     2              OBSERVATION DATA    GPS                 RINEX VERSION / TYPE
ASRINEXO V2.4.4 UX USGS 06-FEB-98 12:32                     PGM / RUN BY / DATE
                                                            COMMENT
Original Marker Name: law1 LAPW1_USGS                       COMMENT
Campaign Name: usgs.landers.pro                             COMMENT
4-Character Station Name: LAW1                              COMMENT
6-Character Antenna Code: DMRCHT                            COMMENT
Vertical Measurement Point: BCR                             COMMENT
Vertical Offset to Rinex Ref. Point: 0.0348                 COMMENT
Radial Measurement Point: ECF                               COMMENT
Radial Offset to Rinex Ref. Point: 0.1897                   COMMENT
Antenna Height from Field Measurement: 1.2730 m             COMMENT
Additional Antenna Identification Info.:                    COMMENT
Turborogue and Ashtech Choke Ring                           COMMENT
Original XYZ: -2354302.2688 -4703855.2915 3596714.1270      COMMENT
New XYZ position is based on association with SCEC monument COMMENT
E1F2J6T9+0011. Position of that monument is believed to be  COMMENT
valid to within 1 m horizontally; vertical accuracy         COMMENT
should be no worse than 3-times this value.                 COMMENT
                                                            COMMENT
Revised Rinex header created by UCSD GPS archive for        COMMENT
GSAC on 11-Nov-1999 (1999:315) 00:40:02 GMT                 COMMENT
For assistance contact dagnew@ucsd.edu or hjohnson@ucsd.edu COMMENT
                                                            COMMENT
LAW1 LAPW1_USGS                                             MARKER NAME
CHS US GEOLOGICAL SURVEY                                    OBSERVER / AGENCY
579 ASHTECH Z-XII3 1E95                                     REC # / TYPE / VERS
244 DORNE-MARGOL. TYPE T                                    ANT # / TYPE
 -2354302.0000 -4703862.0000  3596685.0000                  APPROX POSITION XYZ
        1.2240        0.0000        0.0000                  ANTENNA: DELTA H/E/N
     1     1     0                                          WAVELENGTH FACT L1/2
     5    C1    L1    L2    P1    P2                        # / TYPES OF OBSERV
    30                                                      INTERVAL
  1998     1    28     0     0   30.000000                  TIME OF FIRST OBS
  1998     1    28    23    59    0.000000                  TIME OF LAST OBS
                                                            END OF HEADER
 98  1 28  0  0 30.0000000  0  7  2  4  7  9 27 26 24
  22014999.057   -15127547.29149 -11766448.32449  22014998.6344   22015002.1054
  21971546.683   -18213635.80549 -11357309.26349  21971546.5954   21971550.6884
  20963053.782   -25804555.40249 -16138624.31049  20963053.3704   20963056.6574
  22655782.233   -16403299.26249  -8974190.39849  22655781.8694   22655785.7864
  23719913.829      644339.59449    510635.48149  23719913.6954   23719918.6394
  23888701.252    -9813956.88749  -5121442.77049  23888701.2864   23888705.4424
  24331676.384    -6015715.83149  -4668982.73849  24331676.4214   24331682.7924
 98  1 28  0  1  0.0000000  0  7  2  4  7  9 27 26 24
  22020855.511   -15096771.38949 -11742467.10949  22020855.0194   22020858.6354
  21955434.800   -18298304.11349 -11423284.53249  21955435.2084   21955438.4614
  20970223.401   -25766878.66849 -16109265.80849  20970222.6674   20970226.4744
  22640229.305   -16485030.51249  -9037877.05649  22640228.8464   22640233.0104
  23740430.418      752154.93149    594647.37349  23740430.6824   23740434.8264
  23899125.119    -9759178.92849  -5078758.65649  23899125.1304   23899129.5524
  24309878.698    -6130262.80449  -4758240.05449  24309878.3014   24309884.2944
 98  1 28  0  1 30.0000000  0  7  2  4  7  9 27 26 24
  22026761.032   -15065737.65949 -11718284.99349  22026760.6314   22026764.6264
  21939402.583   -18382553.88749 -11488933.67749  21939402.5484   21939405.8034
  20977447.959   -25728913.32349 -16079682.42349  20977447.1864   20977450.7304
  22624746.744   -16566391.39649  -9101275.12949  22624746.2144   22624750.1754
  23760987.056      860180.76749    678823.29149  23760987.1814   23760992.4524
  23909602.709    -9704119.08949  -5035854.90649  23909602.9664   23909607.3184
  24288087.848    -6244774.83849  -4847470.11949  24288087.1974   24288093.5524
 98  1 28  0  2  0.0000000  0  7  2  4  7  9 27 26 24
  22032706.867   -15034492.11749 -11693937.83049  22032706.4454   22032710.1804
  21923442.733   -18466423.36349 -11554286.48249  21923443.2764   21923446.3414
  20984716.825   -25690715.21849 -16049917.66149  20984716.3734   20984719.7224
  22609326.865   -16647423.04649  -9164416.64549  22609326.8094   22609330.2214
  23781574.949      968370.22549    763126.72749  23781574.7684   23781579.6884
  23920120.443    -9648848.09449  -4992786.62049  23920120.4954   23920125.0764
  24266295.576    -6359294.01449  -4936705.73249  24266294.4144   24266300.3444
 98  1 28  0  2 30.0000000  0  7  2  4  7  9 27 26 24
  22038697.787   -15003009.60249 -11669406.00849  22038697.1974   22038701.0044
  21907560.486   -18549884.78949 -11619321.32349  21907560.7814   21907563.9254
  20992032.146   -25652273.15049 -16019962.79549  20992031.4594   20992034.9624
  22593972.709   -16728109.47049  -9227289.15549  22593972.1294   22593976.0864
  23802196.332     1076736.29849    847567.76949  23802196.5024   23802201.1504
  23930682.152    -9593345.87549  -4949538.14749  23930682.0644   23930686.1394
  24244507.342    -6473790.96149  -5025924.01049  24244507.2974   24244513.7044
 98  1 28  0  3  0.0000000  0  7  2  4  7  9 27 26 24
  22044725.790   -14971332.29449 -11644722.40849  22044725.2744   22044729.3244
  21891749.915   -18632969.73649 -11684062.81649  21891750.2074   21891753.7864
  20999386.390   -25613626.26049 -15989848.33249  20999385.8784   20999389.2824
  22578679.379   -16808476.41149  -9289912.73149  22578678.7864   22578682.8424
  23822842.726     1185233.52949    932111.03249  23822843.0594   23822847.1524
  23941283.500    -9537635.49249  -4906127.46849  23941284.1344   23941288.0574
  24222720.738    -6588279.05049  -5115135.37049  24222719.9104   24222725.6974
 98  1 28  0  3 30.0000000  0  7  2  4  7  9 27 26 24
  22050797.731   -14939424.23049 -11619858.98249  22050797.2414   22050800.8594
  21876015.040   -18715656.83249 -11748494.28049  21876015.1504   21876018.4624
  21006786.810   -25574736.83949 -15959544.87749  21006786.1354   21006789.7484
  22563453.229   -16888490.11749  -9352261.04549  22563452.5674   22563456.3814
  23843519.150     1293888.78249   1016777.41249  23843519.6254   23843523.4064
  23951930.447    -9481685.66149  -4862530.21149  23951930.4244   23951934.4594
  24200946.519    -6702702.67349  -5204296.48849  24200946.7634   24200952.5274
 98  1 28  0  4  0.0000000  0  7  2  4  7  9 27 26 24
  22056929.058   -14907203.90549 -11594752.24649  22056928.3864   22056932.4314
  21860370.650   -18797868.50449 -11812555.29249  21860370.8704   21860374.1744
  21014248.585   -25535524.88349 -15928990.10149  21014247.6994   21014251.2754
  22548308.828   -16968074.57649  -9414274.89149  22548309.2404   22548312.0114
  23864241.293     1402783.97749   1101630.78349  23864240.3504   23864245.6214
  23962639.644    -9425408.22949  -4818677.68449  23962640.0894   23962644.8564
  24179202.044    -6816969.84349  -5293335.67949  24179201.8874   24179208.4894
 98  1 28  0  4 30.0000000  0  7  2  4  7  9 27 26 24
  22063115.819   -14874692.30549 -11569418.52749  22063115.5034   22063119.2254
  21844814.629   -18879615.75049 -11876254.40449  21844814.7594   21844817.9984
  21021768.616   -25496006.87149 -15898196.82649  21021768.1134   21021771.6384
  22533242.585   -17047248.36849  -9475968.72149  22533242.5714   22533246.0274
  23885004.205     1511893.47549   1186651.13349  23885003.7064   23885009.7964
  23973409.761    -9368810.88249  -4774575.86549  23973410.1934   23973414.0894
  24157481.930    -6931108.66549  -5382274.84449  24157481.5044   24157487.7994
 98  1 28  0  5  0.0000000  0  7  2  4  7  9 27 26 24
  22069368.405   -14841834.76149 -11543815.25849  22069367.7954   22069371.7674
  21829354.256   -18960860.54049 -11939562.00349  21829354.4324   21829358.0694
  21029357.075   -25456129.18349 -15867123.29849  21029356.2504   21029359.9774
  22518264.055   -17125961.30649  -9537303.45949  22518263.6204   22518267.2964
  23905819.258     1621277.28949   1271885.20849  23905820.2754   23905824.0454
  23984247.591    -9311858.01549  -4730197.02549  23984248.0814   23984251.1684
  24135793.685    -7045080.16849  -5471083.65749  24135793.3184   24135799.4664
 98  1 28  0  5 30.0000000  0  7  2  4  7  9 27 26 24
  22075655.787   -14808794.46949 -11518069.58049  22075655.1624   22075658.7424
  21813957.491   -19041770.97949 -12002609.06849  21813957.6014   21813960.8294
  21036979.650   -25416072.22349 -15835910.07549  21036979.0424   21036982.3594
  22503338.961   -17204393.02849  -9598419.05949  22503338.4234   22503342.4874
  23926655.188     1730770.28949   1357204.37449  23926654.4424   23926659.9274
  23995117.340    -9254737.61649  -4685687.64449  23995117.3564   23995121.8974
  24114103.198    -7159063.72749  -5559901.85549  24114102.8844   24114108.8124
 98  1 28  0  6  0.0000000  0  7  2  4  7  9 27 26 24
  22081998.788   -14775461.74649 -11492096.04149  22081997.9614   22082002.2594
  21798649.208   -19122216.38949 -12065293.77249  21798649.3894   21798652.7394
  21044658.815   -25375717.86949 -15804465.12549  21044658.1064   21044661.9334
  22488490.124   -17282423.87549  -9659222.30449  22488490.0924   22488493.6724
  23947533.756     1840487.11549   1442697.97749  23947534.2374   23947538.2554
  24006041.079    -9197332.94749  -4640956.75749  24006041.7334   24006045.6274
  24092428.682    -7272963.24049  -5648654.56849  24092428.5494   24092434.8794
 98  1 28  0  6 30.0000000  0  7  2  4  7  9 27 26 24
  22088399.869   -14741823.81549 -11465884.66949  22088399.5194   22088403.3704
  21783429.982   -19202193.60849 -12127613.64949  21783430.0954   21783433.4724
  21052395.390   -25335061.81849 -15772785.07849  21052394.8804   21052398.3224
  22473718.750   -17360048.05649  -9719708.65949  22473718.2094   22473721.8114
  23968452.491     1950415.91149   1528356.73749  23968452.6464   23968457.5654
  24017017.760    -9139649.68649  -4596008.77749  24017017.2254   24017022.6224
  24070770.318    -7386777.85349  -5737341.15449  24070770.2234   24070776.3964
 98  1 28  0  7  0.0000000  0  7  2  4  7  9 27 26 24
  22094851.008   -14707923.01349 -11439468.46949  22094850.1844   22094854.4424
  21768292.424   -19281741.89949 -12189599.30249  21768292.4054   21768296.1624
  21060179.718   -25294154.90049 -15740909.55749  21060178.9614   21060182.7634
  22459016.858   -17437307.01449  -9779910.42349  22459016.4764   22459020.1864
  23989402.761     2060510.19749   1614144.44049  23989403.1324   23989407.6784
  24028040.276    -9081725.97449  -4550873.44449  24028039.9944   24028045.4184
  24049122.476    -7500537.15149  -5825984.63549  24049122.1494   24049127.8734
 98  1 28  0  7 30.0000000  0  7  2  4  7  9 27 26 24
  22101340.188   -14673822.14349 -11412896.36749  22101339.6714   22101343.6864
  21753231.030   -19360889.79349 -12251272.95249  21753231.1614   21753234.6024
  21068003.476   -25253040.83849 -15708872.61849  21068002.8554   21068006.2874
  22444377.055   -17514239.37349  -9839857.69749  22444376.1724   22444380.4274
  24010371.940     2170703.78649   1700009.53549  24010371.3964   24010376.4874
  24039101.105    -9023601.07149  -4505581.33149  24039100.7174   24039104.8274
  24027476.731    -7614284.92449  -5914619.14249  24027477.4344   24027482.9704
 98  1 28  0  8  0.0000000  0  7  2  4  7  9 27 26 24
  22107877.155   -14639470.26149 -11386128.66849  22107876.9154   22107880.7714
  21738255.550   -19439586.35249 -12312594.90549  21738255.8394   21738258.9824
  21075877.838   -25211660.70149 -15676628.34649  21075877.2044   21075880.8934
  22429812.955   -17590774.21849  -9899495.21149  22429813.1534   22429815.7894
  24031367.257     2281033.96449   1785981.08249  24031366.9114   24031372.0254
  24050212.427    -8965210.60149  -4460082.28149  24050213.2144   24050217.2584
  24005843.666    -7727968.06249  -6003203.29349  24005844.1404   24005849.5924
 98  1 28  0  8 30.0000000  0  7  2  4  7  9 27 26 24
  22114472.519   -14604811.39549 -11359121.76649  22114471.8104   22114475.7024
  21723377.753   -19517769.78249 -12373517.02349  21723377.9484   21723381.2304
  21083812.288   -25169964.64849 -15644137.91149  21083811.6014   21083815.1364
  22415337.097   -17666845.32349  -9958771.37749  22415336.9854   22415339.8024
  24052399.336     2391557.69949   1872103.40849  24052399.5404   24052403.2344
  24061385.704    -8906494.94749  -4414329.84949  24061386.5394   24061389.6004
  23984235.546    -7841520.26549  -6091685.43849  23984235.2494   23984240.8014
 98  1 28  0  9  0.0000000  0  7  2  4  7  9 27 26 24
  22121112.292   -14569919.20249 -11331933.06949  22121111.0734   22121115.9314
  21708586.221   -19595499.50549 -12434085.62249  21708586.0394   21708589.5224
  21091795.837   -25128010.64249 -15611446.49549  21091794.9844   21091798.8634
  22400939.259   -17742506.16649 -10017727.87549  22400938.7034   22400942.1404
  24073459.197     2502227.75649   1958339.77149  24073459.0014   24073463.4824
  24072609.295    -8847514.83649  -4368371.35749  24072609.2094   24072614.4704
  23962638.824    -7955012.11049  -6180120.57749  23962638.1114   23962643.7034
 98  1 28  0  9 30.0000000  0  7  2  4  7  9 27 26 24
  22127795.236   -14534799.98049 -11304567.45649  22127794.7364   22127798.4904
  21693879.397   -19672784.14949 -12494307.38749  21693879.3304   21693882.6994
  21099829.847   -25085791.69849 -15578548.62249  21099829.2124   21099832.4354
  22386619.743   -17817755.45549 -10076363.66949  22386619.5064   22386622.4794
  24094546.235     2613041.72649   2044688.25849  24094546.5234   24094551.5774
  24083878.928    -8788292.30049  -4322223.95449  24083880.2674   24083883.3554
  23941051.008    -8068457.25449  -6268519.32349  23941050.4164   23941056.2034
 98  1 28  0 10  0.0000000  0  7  2  4  7  9 27 26 24
  22134532.646   -14499394.71749 -11276978.96549  22134532.3624   22134536.0054
  21679266.279   -19749576.41649 -12554145.50049  21679266.5464   21679269.6834
  21107920.399   -25043275.42449 -15545419.07049  21107919.9514   21107923.3994
  22372387.694   -17892545.20349 -10134641.38549  22372387.6684   22372390.6164
  24115670.743     2724052.05049   2131189.76849  24115670.9784   24115676.5444
  24095202.416    -8728787.30749  -4275856.46749  24095202.0794   24095207.6094
  23919481.773    -8181803.91049  -6356841.31249  23919481.8774   23919487.5554
 98  1 28  0 10 30.0000000  0  7  2  4  7  9 27 26 24
  22141314.786   -14463754.35849 -11249207.22649  22141314.3274   22141318.0034
  21664738.248   -19825921.54349 -12613635.14249  21664738.3344   21664741.4784
  21116056.514   -25000519.81649 -15512102.97949  21116055.9894   21116059.5964
  22358232.283   -17966932.67749 -10192605.59549  22358232.0084   22358235.9584
  24136824.826     2835217.59549   2217812.23149  24136825.2044   24136829.5444
  24106570.212    -8669049.49749  -4229307.51749  24106571.1984   24106574.5744
  23897922.946    -8295096.80049  -6445121.40549  23897922.3634   23897927.5884
 98  1 28  0 11  0.0000000  0  7  2  4  7  9 27 26 24
  22148144.971   -14427861.42149 -11221238.70949  22148144.3194   22148148.5274
  21650294.684   -19901822.80349 -12672778.94249  21650294.5734   21650298.1664
  21124238.654   -24957522.24249 -15478598.37249  21124237.9844   21124241.6074
  22344151.912   -18040925.45349 -10250262.28249  22344151.5364   22344154.5884
  24158006.987     2946530.76049   2304549.73049  24158005.8114   24158011.9804
  24117980.329    -8609088.36249  -4182584.57449  24117981.4494   24117985.1504
  23876374.704    -8408333.39549  -6533357.63749  23876374.2404   23876379.1074
 98  1 28  0 11 30.0000000  0  7  2  4  7  9 27 26 24
  22155034.758   -14391655.40649 -11193026.24649  22155034.2394   22155038.3454
  21635946.908   -19977220.64149 -12731530.47749  21635947.0164   21635950.1534
  21132473.129   -24914249.81549 -15444879.60449  21132472.6544   21132476.2134
  22330154.896   -18114480.06249 -10307577.54249  22330154.6764   22330158.0594
  24179224.936     3058031.50149   2391433.38349  24179225.2114   24179228.9184
  24129442.380    -8548854.88149  -4135649.41749  24129442.4254   24129446.7714
  23854849.654    -8521447.88949  -6621498.74549  23854849.0524   23854855.0864
 98  1 28  0 12  0.0000000  0  8  2  4  7  9 27  5 26 24
  22161978.241   -14355166.92049 -11164593.67049  22161977.5824   22161981.5534
  21621688.811   -20052147.27549 -12789914.83149  21621688.8264   21621692.2634
  21140750.388   -24870752.70149 -15410985.75049  21140749.8034   21140753.1884
  22316232.903   -18187640.96449 -10364586.01649  22316232.7044   22316236.0644
  24200470.720     3169678.97449   2478431.36849  24200470.9034   24200475.2714
  24836936.542    -4551132.98049  -3535465.62649  24836933.9784   24836941.0344
  24140949.871    -8488382.62349  -4088528.20549  24140949.9284   24140955.0544
  23833342.508    -8634468.24749  -6709566.49649  23833342.5404   23833348.0904
 98  1 28  0 12 30.0000000  0  8  2  4  7  9 27  5 26 24
  22168993.619   -14318300.85149 -11135866.87749  22168993.1754   22168997.2844
  21607537.903   -20126510.54149 -12847860.20249  21607537.8734   21607541.1574
  21149090.250   -24826926.49049 -15376835.46249  21149089.7004   21149092.8754
  22302401.043   -18260327.52549 -10421224.87549  22302401.1494   22302404.5324
  24221762.054     3281565.24249   2565615.42249  24221761.6234   24221766.5924
  24820418.115    -4637937.72849  -3603105.63249  24820419.7314   24820422.8554
  24152519.814    -8427582.43349  -4041151.44849  24152519.9384   24152524.7814
  23811870.790    -8747302.20549  -6797489.00849  23811870.9254   23811876.1974
 98  1 28  0 13  0.0000000  0  8  2  4  7  9 27  5 26 24
  22176057.350   -14281180.78449 -11106942.14949  22176056.8254   22176060.7824
  21593472.222   -20200425.86849 -12905456.51549  21593472.3304   21593476.0574
  21157470.727   -24782886.80649 -15342518.81249  21157470.0984   21157473.6554
  22288636.146   -18332662.54549 -10477589.78649  22288635.9684   22288638.8074
  24243075.108     3393566.88949   2652889.40249  24243075.4884   24243080.3704
  24803893.907    -4724773.20449  -3670769.55049  24803893.7924   24803897.9834
  24164126.330    -8366589.93449  -3993624.83649  24164126.5234   24164130.3034
  23790413.308    -8860061.35949  -6885353.21749  23790412.4404   23790418.4364
 98  1 28  0 13 30.0000000  0  8  2  4  7  9 27  5 26 24
  22183169.294   -14243807.28849 -11077819.95649  22183169.1024   22183172.8504
  21579494.099   -20273881.15849 -12962694.36549  21579494.4774   21579497.5444
  21165895.410   -24738615.04149 -15308021.33649  21165894.9564   21165898.3084
  22274941.768   -18404626.74749 -10533665.75449  22274941.5694   22274944.5634
  24264412.267     3505694.38249   2740261.43649  24264411.4184   24264416.7484
  24787367.809    -4811618.21949  -3738440.90549  24787367.2834   24787372.4804
  24175771.772    -8305392.75349  -3945938.73749  24175771.9614   24175776.4564
  23768974.042    -8972725.05049  -6973143.05049  23768973.5924   23768978.7774
 98  1 28  0 14  0.0000000  0  8  2  4  7  9 27  5 26 24
  22190344.835   -14206099.58849 -11048437.34049  22190344.3644   22190348.1714
  21565619.612   -20346792.31749 -13019508.22749  21565619.8724   21565622.9044
  21174383.967   -24694007.64349 -15273262.33049  21174383.4594   21174386.7654
  22261335.653   -18476127.03649 -10589380.24149  22261335.5484   22261338.5514
  24285789.715     3618033.16449   2827798.12149  24285790.5774   24285793.6684
  24770856.098    -4898387.68449  -3806053.39449  24770855.2544   24770861.1524
  24187472.049    -8243906.96049  -3898027.74149  24187471.7224   24187476.8834
  23747569.263    -9085207.81549  -7060791.91849  23747569.1304   23747574.5534
 98  1 28  0 14 30.0000000  0  8  2  4  7  9 27  5 26 24
  22197553.672   -14168216.97649 -11018918.43749  22197552.8744   22197557.6004
  21551818.936   -20419315.27149 -13076019.59649  21551819.0164   21551822.1334
  21182905.919   -24649224.65749 -15238366.50349  21182905.3004   21182908.6454
  22247790.212   -18547308.65149 -10644846.41049  22247790.0554   22247793.2144
  24307175.943     3730418.03249   2915370.68649  24307175.9124   24307181.1214
  24754327.895    -4985243.96349  -3873733.53149  24754328.0854   24754332.9134
  24199195.615    -8182298.93549  -3850021.52749  24199196.3654   24199200.7214
  23726169.358    -9197664.81849  -7148420.72749  23726169.3154   23726174.6084
 98  1 28  0 15  0.0000000  0  8  2  4  7  9 27  5 26 24
  22204791.895   -14130179.85049 -10989279.13749  22204791.6334   22204795.0164
  21538089.568   -20491463.70449 -13132239.13449  21538089.6014   21538092.8634
  21191457.879   -24604283.65549 -15203347.54749  21191457.0604   21191460.6804
  22234306.319   -18618167.06649 -10700060.73949  22234306.1404   22234309.0914
  24328567.863     3842832.90249   3002966.66049  24328568.0534   24328572.4824
  24737780.459    -5072200.80949  -3941492.03849  24737780.1114   24737785.1324
  24210937.653    -8120594.29849  -3801940.01049  24210938.3664   24210942.6924
  23704773.055    -9310102.96749  -7236034.83949  23704772.5874   23704778.1364
 98  1 28  0 15 30.0000000  0  8  2  4  7  9 27  5 26 24
  22212068.873   -14091939.21349 -10959481.24549  22212068.5554   22212072.3314
  21524440.457   -20563190.11149 -13188129.81249  21524440.6204   21524444.0524
  21200045.912   -24559153.19549 -15168180.95649  21200045.6044   21200048.6544
  22220893.656   -18688651.04049 -10754983.28649  22220893.8754   22220897.0334
  24349972.346     3955313.74049   3090614.04549  24349973.0544   24349976.2744
  24721220.151    -5159225.50749  -4009303.40449  24721218.1974   24721225.6714
  24222705.785    -8058752.64549  -3753751.72349  24222705.8204   24222710.5014
  23683388.856    -9422477.26649  -7323599.19249  23683388.3614   23683394.0474
 98  1 28  0 16  0.0000000  0  8  2  4  7  9 27  5 26 24
  22219392.659   -14053452.51649 -10929491.62349  22219391.7654   22219396.2424
  21510882.515   -20634437.40549 -13243647.16649  21510882.5664   21510886.0794
  21208674.169   -24513811.25849 -15132849.58149  21208673.5414   21208677.0864
  22207560.777   -18758715.84649 -10809579.21149  22207560.2464   22207563.4854
  24371397.919     4067905.47049   3178347.80449  24371396.3734   24371401.7894
  24704655.531    -5246272.93149  -4077132.48549  24704656.4024   24704660.4324
  24234504.896    -7996747.68449  -3705436.19549  24234505.1114   24234509.4414
  23662024.952    -9534745.17749  -7411080.64749  23662024.7914   23662029.3704
 98  1 28  0 16 30.0000000  0  8  2  4  7  9 27  5 26 24
  22226774.264   -14014661.90149 -10899265.18349  22226773.7054   22226777.3534
  21497425.657   -20705153.51649 -13298750.60449  21497425.8124   21497428.9164
  21217351.002   -24468214.05449 -15097319.29249  21217350.2244   21217353.8074
  22194316.954   -18828312.54049 -10863810.37349  22194317.0644   22194320.0324
  24392853.212     4180654.31649   3266204.06849  24392853.4494   24392858.4424
  24688097.172    -5333287.91649  -4144936.31149  24688097.3964   24688101.6124
  24246343.561    -7934535.12949  -3656958.88849  24246343.6464   24246348.1184
  23640693.305    -9646843.17049  -7498429.70449  23640692.9094   23640698.5134
 98  1 28  0 17  0.0000000  0  8  2  4  7  9 27  5 26 24
  22234207.027   -13975602.68449 -10868829.44349  22234206.3994   22234210.2954
  21484063.094   -20775374.00049 -13353467.84649  21484063.4024   21484066.6054
  21226069.677   -24422396.81149 -15061617.55249  21226068.8484   21226072.3604
  22181155.089   -18897478.76049 -10917706.10549  22181154.8264   22181158.0094
  24414333.920     4293536.20249   3354163.91749  24414333.7884   24414338.9534
  24671538.483    -5420304.02049  -4212741.02649  24671538.5994   24671543.1974
  24258217.533    -7872137.29949  -3608337.23449  24258217.7954   24258222.6624
  23619389.117    -9758797.79349  -7585667.04149  23619388.3384   23619393.9564
 98  1 28  0 17 30.0000000  0  8  2  4  7  9 27  5 26 24
  22241685.115   -13936304.99349 -10838207.87249  22241684.8424   22241688.7014
  21470789.134   -20845128.92349 -13407822.31049  21470789.2524   21470792.8814
  21234822.427   -24376400.54749 -15025776.30249  21234821.6794   21234825.2644
  22168069.552   -18966243.63749 -10971289.09849  22168069.2454   22168072.3944
  24435831.110     4406504.86349   3442191.41249  24435830.4974   24435834.7254
  24654972.431    -5507359.31549  -4280576.26249  24654971.1694   24654976.4484
  24270121.241    -7809583.91049  -3559594.34849  24270121.6844   24270125.3484
  23598105.541    -9870643.94449  -7672819.84949  23598104.3924   23598110.6664
 98  1 28  0 18  0.0000000  0  8  2  4  7  9 27  5 26 24
  22249221.768   -13896699.93149 -10807346.79649  22249221.2354   22249225.3394
  21457613.801   -20914366.03849 -13461773.29349  21457614.2434   21457617.2464
  21243623.094   -24330152.61949 -14989738.95849  21243622.4164   21243625.6664
  22155074.691   -19034531.33549 -11024500.27349  22155074.6214   22155078.0304
  24457357.198     4519625.36849   3530337.26549  24457356.9444   24457362.5274
  24638413.077    -5594379.24049  -4348383.94649  24638412.6124   24638416.3854
  24282067.304    -7746806.65149  -3510677.03349  24282067.4254   24282072.0314
  23576853.114    -9982325.33349  -7759844.27049  23576852.8244   23576857.7854
 98  1 28  0 18 30.0000000  0  8  2  4  7  9 27  5 26 24
  22256814.877   -13856797.77449 -10776254.20649  22256814.3184   22256818.4564
  21444530.270   -20983120.47349 -13515348.14849  21444530.2214   21444533.5064
  21252470.897   -24283657.20349 -14953508.75049  21252470.4014   21252473.5604
  22142169.766   -19102347.21649 -11077343.78549  22142169.2154   22142172.6194
  24478905.155     4632860.93049   3618572.69549  24478905.6664   24478910.4864
  24621855.013    -5681392.75849  -4416186.66349  24621854.4754   24621858.8444
  24294055.692    -7683807.42549  -3461586.74349  24294055.6154   24294060.5864
  23555627.598   -10093866.05949  -7846759.06349  23555627.9984   23555632.9334
 98  1 28  0 19  0.0000000  0  8  2  4  7  9 27  5 26 24
  22264453.498   -13816656.46249 -10744975.26149  22264452.8204   22264457.1354
  21431530.018   -21051437.14449 -13568581.88649  21431530.0504   21431533.1794
  21261354.638   -24236973.00349 -14917131.43349  21261354.2714   21261357.4944
  22129347.144   -19169730.38949 -11129850.12649  22129347.1824   22129349.8104
  24500463.108     4746148.40749   3706848.64449  24500463.0224   24500469.1634
  24605286.440    -5768460.44049  -4484031.53949  24605286.6844   24605291.1764
  24306074.888    -7620646.24349  -3412370.24149  24306075.5844   24306079.5864
  23534416.481   -10205330.57749  -7933614.46749  23534416.6924   23534421.6804
 98  1 28  0 19 30.0000000  0  8  2  4  7  9 27  5 26 24
  22272149.756   -13776212.40149 -10713460.42449  22272149.1824   22272153.2834
  21418626.700   -21119244.35449 -13621418.65749  21418626.6534   21418629.9424
  21270286.731   -24190034.53949 -14880556.00249  21270286.1074   21270289.6374
  22116618.571   -19236619.30649 -11181971.34549  22116618.3244   22116621.7834
  24522040.351     4859537.27049   3795203.55249  24522040.7044   24522045.1704
  24588720.279    -5855516.18449  -4551867.18349  24588719.0744   24588723.9234
  24318134.081    -7557275.12749  -3362990.18449  24318135.1254   24318138.2904
  23513231.843   -10316656.25549  -8020361.69349  23513232.0684   23513237.4634
 98  1 28  0 20  0.0000000  0  8  2  4  7  9 27  5 26 24
  22279892.633   -13735523.12549 -10681754.51849  22279892.0724   22279895.9374
  21405811.316   -21186589.54149 -13673895.41749  21405811.4854   21405814.5754
  21279257.782   -24142891.48549 -14843821.16149  21279256.7374   21279260.4994
  22103969.864   -19303088.41649 -11233765.45649  22103969.7804   22103972.9104
  24543629.094     4972986.10149   3883605.19649  24543628.4004   24543634.4704
  24572146.194    -5942613.15849  -4619734.93149  24572146.5474   24572151.4834
  24330222.781    -7493748.91249  -3313489.26649  24330222.1584   24330226.9884
  23492064.576   -10427890.95549  -8107038.02649  23492063.2434   23492068.7704
 98  1 28  0 20 30.0000000  0  8  2  4  7  9 27  5 26 24
  22287679.654   -13694602.12349 -10649868.03449  22287679.3014   22287683.2404
  21393089.285   -21253444.10449 -13725989.86149  21393089.3724   21393092.6084
  21288266.473   -24095550.25049 -14806931.88349  21288266.0404   21288269.5924
  22091399.298   -19369147.29049 -11285239.88749  22091399.3034   22091402.4774
  24565231.056     5086504.48749   3972061.01349  24565231.4444   24565235.6424
  24555564.474    -6029750.83749  -4687634.41249  24555564.6964   24555567.9214
  24342340.470    -7430069.97749  -3263869.34849  24342341.0584   24342344.4104
  23470917.355   -10539019.86549  -8193631.91849  23470917.3224   23470922.0994
 98  1 28  0 21  0.0000000  0  8  2  4  7  9 27  5 26 24
  22295521.179   -13653394.79149 -10617758.43449  22295520.6724   22295524.6244
  21380476.144   -21319726.60549 -13777638.53049  21380476.3844   21380479.4674
  21297321.472   -24047965.60949 -14769852.92149  21297320.7324   21297324.2254
  22078915.653   -19434749.40749 -11336358.39649  22078915.9454   22078919.0414
  24586862.561     5200178.66349   4060638.25949  24586862.1004   24586867.0724
  24538990.255    -6116848.36549  -4755502.56549  24538989.4414   24538994.3794
  24354497.513    -7366184.16249  -3214088.19549  24354497.7024   24354502.5874
  23449804.735   -10649967.23749  -8280084.32349  23449805.1584   23449809.4864
 98  1 28  0 21 30.0000000  0  7  2  4  7  9  5 26 24
  22303405.082   -13611964.84749 -10585475.37549  22303404.5544   22303408.2564
  21367959.503   -21385502.00449 -13828892.06649  21367959.6294   21367962.7704
  21306410.060   -24000204.81949 -14732636.71349  21306409.1804   21306412.7694
  22066508.127   -19499951.62249 -11387165.30049  22066508.0144   22066510.6804
  24522414.975    -6203951.59349  -4823375.20349  24522414.6964   24522417.6884
  24366683.473    -7302146.16449  -3164188.48249  24366683.6664   24366687.1854
  23428716.056   -10760788.98149  -8366438.84549  23428715.4784   23428720.6454
 98  1 28  0 22  0.0000000  0  7  2  4  7  9  5 26 24
  22311347.145   -13570229.11249 -10552954.02249  22311346.2964   22311350.4194
  21355552.704   -21450699.97249 -13879695.63749  21355552.7484   21355555.8394
  21315543.850   -23952206.44049 -14695235.35349  21315543.2264   21315546.8074
  22054194.812   -19564658.59749 -11437586.28949  22054194.5794   22054197.7434
  24505852.707    -6290987.10149  -4891195.03049  24505853.1714   24505856.9604
  24378911.862    -7237885.88349  -3114115.54749  24378912.6504   24378916.0644
  23407665.963   -10871408.03849  -8452635.41249  23407665.6704   23407670.8584
 98  1 28  0 22 30.0000000  0  7  2  4  7  9  5 26 24
  22319336.850   -13528242.95649 -10520237.54949  22319336.6054   22319340.3144
  21343242.528   -21515390.25349 -13930103.62349  21343242.8204   21343245.8824
  21324710.017   -23904037.75549 -14657701.30449  21324709.4114   21324712.7014
  22041967.626   -19628912.87049 -11487654.53449  22041967.4234   22041970.3984
  24489291.202    -6378017.71449  -4959011.05449  24489290.4174   24489295.4974
  24391169.190    -7173473.40149  -3063924.02149  24391168.8254   24391174.3234
  23386642.668   -10981885.98749  -8538722.02249  23386641.6154   23386647.4544
 98  1 28  0 23  0.0000000  0  7  2  4  7  9  5 26 24
  22327390.646   -13485920.04349 -10487258.66349  22327390.4694   22327394.2844
  21331037.444   -21579528.20149 -13980081.21649  21331037.6704   21331040.6434
  21333923.439   -23855620.73549 -14619973.74549  21333922.8134   21333926.3784
  22029841.068   -19692638.10149 -11537310.53549  22029840.9084   22029843.9034
  24472741.276    -6464987.68049  -5026779.80549  24472740.7644   24472745.2124
  24403467.554    -7108844.85949  -3013564.13949  24403467.0614   24403471.7874
  23365659.478   -11092153.34149  -8624644.53249  23365659.2014   23365663.9504
 98  1 28  0 23 30.0000000  0  7  2  4  7  9  5 26 24
  22335473.433   -13443444.76449 -10454161.05949  22335472.8144   22335476.5894
  21318900.789   -21643306.72749 -14029778.74049  21318900.9024   21318904.0834
  21343150.594   -23807131.65349 -14582190.03949  21343149.9754   21343153.4724
  22017779.436   -19756022.30249 -11586700.79649  22017779.2394   22017782.6594
  24456163.207    -6552106.16849  -5094664.32749  24456162.2414   24456168.0704
  24415768.848    -7044201.01349  -2963192.34649  24415768.1154   24415773.4004
  23344680.154   -11202400.10049  -8710550.99349  23344679.6654   23344684.4024
 98  1 28  0 24  0.0000000  0  7  2  4  7  9  5 26 24
  22343636.477   -13400547.82049 -10420734.88049  22343636.4624   22343639.7684
  21306885.736   -21706446.21249 -14078978.31549  21306886.1804   21306888.9454
  21352445.413   -23758287.08449 -14544129.33449  21352444.8004   21352448.5684
  22005829.471   -19818819.91849 -11635633.98849  22005829.4514   22005832.1754
  24439605.445    -6639117.45949  -5162465.28849  24439605.1834   24439608.6394
  24428122.640    -6979281.04749  -2912605.39449  24428123.1324   24428127.1854
  23323755.570   -11312359.57149  -8796233.60049  23323754.7514   23323760.1674
 98  1 28  0 24 30.0000000  0  7  2  4  7  9  5 26 24
  22351858.153   -13357342.56149 -10387068.44949  22351857.6414   22351861.5064
  21294976.260   -21769030.69149 -14127745.40949  21294976.3554   21294979.3594
  21361791.519   -23709173.22249 -14505858.78249  21361790.8604   21361794.4434
  21993969.930   -19881142.00149 -11684196.61849  21993969.5124   21993972.6384
  24423050.199    -6726116.03249  -5230256.35149  24423049.9244   24423053.5284
  24440511.900    -6914175.92449  -2861874.16349  24440511.8464   24440516.1664
  23302865.695   -11422136.12849  -8881773.67149  23302865.0324   23302870.3954
 98  1 28  0 25  0.0000000  0  7  2  4  7  9  5 26 24
  22360109.561   -13313980.88649 -10353280.14049  22360108.7094   22360113.2814
  21283148.388   -21831186.73849 -14176178.66149  21283148.6734   21283151.6354
  21371160.348   -23659939.79549 -14467495.06649  21371159.7644   21371163.0684
  21982172.382   -19943137.84049 -11732505.03849  21982172.3494   21982174.9344
  24406472.542    -6813231.99149  -5298138.86449  24406471.4314   24406477.0554
  24452909.324    -6849027.27549  -2811109.00749  24452910.6324   24452914.6524
  23281984.375   -11531867.96749  -8967278.88549  23281983.2884   23281988.2494
 98  1 28  0 25 30.0000000  0  7  2  4  7  9  5 26 24
  22368408.448   -13270369.87449 -10319297.54549  22368407.7744   22368411.7184
  21271425.861   -21892788.76449 -14224180.20449  21271426.0984   21271428.8504
  21380567.500   -23610504.70149 -14428974.20549  21380566.7424   21380570.2404
  21970456.331   -20004705.67949 -11780479.94649  21970455.6204   21970459.3974
  24389895.071    -6900346.79449  -5366020.49649  24389894.3774   24389898.6164
  24465332.645    -6783742.42949  -2760237.71449  24465332.0834   24465337.1324
  23261131.662   -11641448.85249  -9052666.47649  23261130.5644   23261136.2924
 98  1 28  0 26  0.0000000  0  7  2  4  7  9  5 26 24
  22376771.668   -13226421.03149 -10285051.71249  22376771.2944   22376775.3524
  21259825.794   -21953747.38049 -14271680.40149  21259825.9894   21259829.0754
  21390029.265   -23560782.49549 -14390229.62949  21390028.7014   21390032.2574
  21958842.594   -20065735.94649 -11828035.97049  21958842.5304   21958845.4924
  24373338.991    -6987350.02349  -5433815.16749  24373338.0394   24373342.5234
  24477800.550    -6718223.20649  -2709183.81449  24477801.6514   24477804.6524
  23240324.813   -11750788.70949  -9137866.25549  23240324.4584   23240329.5754
 98  1 28  0 26 30.0000000  0  7  2  4  7  9  5 26 24
  22385177.716   -13182247.08449 -10250630.47849  22385177.5344   22385181.3694
  21248322.900   -22014195.38549 -14318782.71849  21248322.9524   21248325.8004
  21399521.182   -23510901.96449 -14351361.68549  21399520.4604   21399524.1054
  21947313.677   -20126320.96749 -11875245.05149  21947313.2614   21947316.6464
  24356783.295    -7074350.64049  -5501607.79149  24356782.3904   24356787.2914
  24490292.208    -6652579.05049  -2658032.54449  24490291.9644   24490297.7404
  23219545.013   -11859986.55949  -9222955.39549  23219544.6144   23219550.2004
 98  1 28  0 27  0.0000000  0  7  2  4  7  9  5 26 24
  22393628.189   -13137839.55949 -10216027.22549  22393627.2444   22393631.4954
  21236914.378   -22074147.45749 -14365498.58749  21236914.4404   21236917.4244
  21409042.510   -23460867.00849 -14312373.40549  21409041.9594   21409045.0794
  21935870.393   -20186456.06349 -11922103.54049  21935870.2734   21935873.3764
  24340227.188    -7161354.09149  -5569402.59049  24340226.1424   24340231.3604
  24502807.512    -6586810.77049  -2606784.57049  24502807.2794   24502811.2334
  23198795.361   -11969026.74849  -9307921.68349  23198795.0484   23198799.8054
 98  1 28  0 27 30.0000000  0  7  2  4  7  9  5 26 24
  22402144.632   -13093085.20849 -10181153.72949  22402144.1984   22402147.9314
  21225617.052   -22133515.33749 -14411759.24649  21225617.1814   21225620.1374
  21418614.554   -23410565.73249 -14273177.60649  21418614.2724   21418617.5904
  21924534.573   -20246026.18649 -11968521.79249  21924534.4914   21924537.2064
  24323687.007    -7248273.36749  -5637131.80649  24323685.9334   24323691.2024
  24515366.125    -6520814.70549  -2555359.08949  24515365.3464   24515369.9384
  23178093.925   -12077813.72749  -9392690.67849  23178093.3904   23178098.4994
 98  1 28  0 28  0.0000000  0  7  2  4  7  9  5 26 24
  22410708.941   -13048079.56849 -10146084.40949  22410709.0894   22410712.4774
  21214408.969   -22192414.18949 -14457654.42049  21214409.2004   21214412.2724
  21428219.656   -23360090.69449 -14233846.40449  21428219.1134   21428222.5004
  21913287.360   -20305130.34149 -12014576.94149  21913287.2374   21913290.3474
  24307141.754    -7335218.26449  -5704880.94649  24307141.4064   24307145.3094
  24527949.933    -6454686.01149  -2503830.23549  24527950.0344   24527955.3174
  23157421.869   -12186445.95549  -9477339.09149  23157421.3814   23157426.5944
 98  1 28  0 28 30.0000000  0  7  2  4  7  9  5 26 24
  22419328.726   -13002782.42349 -10110787.95149  22419327.9724   22419331.7354
  21203298.350   -22250800.70849 -14503150.37949  21203298.5324   21203301.3224
  21437862.455   -23309417.39349 -14194360.71349  21437861.9974   21437865.5104
  21902132.270   -20363750.62249 -12060255.05349  21902132.1094   21902135.1364
  24290594.342    -7422175.80249  -5772639.93949  24290593.6424   24290597.9034
  24540562.313    -6388407.44549  -2452184.62449  24540563.2324   24540567.0904
  23136787.147   -12294881.56649  -9561834.32149  23136787.2064   23136790.9484
 98  1 28  0 29  0.0000000  0  7  2  4  7  9  5 26 24
  22428012.631   -12957148.06049 -10075228.72549  22428011.8804   22428015.8744
  21192298.880   -22308603.03849 -14548191.13049  21192299.1774   21192302.0544
  21447551.500   -23258501.19249 -14154685.75049  21447550.8994   21447554.2744
  21891075.795   -20421852.72749 -12105529.39649  21891075.6144   21891078.4384
  24274051.852    -7509106.29949  -5840377.83949  24274050.7044   24274055.5244
  24553206.463    -6321961.77949  -2400408.82049  24553207.2484   24553211.4544
  23116196.041   -12403088.28449  -9646151.18949  23116195.7514   23116200.5604
 98  1 28  0 29 30.0000000  0  7  2  4  7  9  5 26 24
  22436755.559   -12911203.32249 -10039427.65549  22436755.5074   22436759.2724
  21181407.950   -22365835.17349 -14592787.57049  21181407.8664   21181411.0524
  21457279.622   -23207379.23449 -14114850.46249  21457278.8354   21457282.5094
  21880111.092   -20479472.64349 -12150428.00849  21880110.9144   21880113.7264
  24257508.253    -7596043.14049  -5908120.68549  24257507.1374   24257512.5724
  24565872.088    -6255403.79849  -2348545.50049  24565872.1014   24565876.2954
  23095640.598   -12511107.58849  -9730322.03249  23095640.2414   23095645.0304
 98  1 28  0 30  0.0000000  0  7  2  4  7  9  5 26 24
  22445542.201   -12865029.55849 -10003448.11749  22445541.8254   22445546.5434
  21170615.992   -22422546.95749 -14636978.54449  21170616.0574   21170618.9954
  21467034.176   -23156118.70049 -14074907.18949  21467033.5724   21467037.2904
  21869224.399   -20536682.45949 -12195007.05749  21869224.2214   21869227.3264
  24240952.691    -7683042.26349  -5975912.06649  24240951.6084   24240955.3774
  24578544.087    -6188812.22849  -2296656.00849  24578544.3584   24578548.9484
  23075110.689   -12618992.79449  -9814388.39649  23075110.4834   23075114.9024
 98  1 28  0 30 30.0000000  0  7  2  4  7  9  5 26 24
  22454376.172   -12818606.91449  -9967274.64849  22454375.8394   22454379.8504
  21159929.569   -22478704.22249 -14680737.42149  21159929.4764   21159932.7994
  21476819.571   -23104696.26449 -14034837.75549  21476819.2174   21476822.4364
  21858422.172   -20593448.29449 -12239240.15449  21858421.9194   21858425.4724
  24224390.170    -7770078.06249  -6043732.03649  24224389.3344   24224394.1534
  24591227.207    -6122162.51649  -2244721.19249  24591227.6474   24591231.5954
  23054610.913   -12726719.47749  -9898331.22349  23054610.4354   23054615.8154
 98  1 28  0 31  0.0000000  0  7  2  4  7  9  5 26 24
  22463275.299   -12771841.61149  -9930834.16849  22463274.6694   22463278.6934
  21149365.879   -22534216.58749 -14723993.77549  21149366.0194   21149369.0274
  21486653.919   -23053016.41949 -13994567.73649  21486653.1304   21486656.1244
  21847726.810   -20649652.48849 -12283035.60649  21847726.5544   21847730.0184
  24207840.971    -7857044.12949  -6111497.68549  24207840.8514   24207844.5684
  24603942.530    -6055343.30849  -2192654.28549  24603942.8954   24603947.4794
  23034161.258   -12834183.02449  -9982069.01249  23034160.3934   23034166.0374
 98  1 28  0 31 30.0000000  0  7  2  4  7  9  5 26 24
  22472221.033   -12724831.62349  -9894203.02149  22472220.4754   22472224.3464
  21138902.222   -22589203.24249 -14766840.49249  21138902.5724   21138905.3934
  21496516.953   -23001185.47749 -13954179.98149  21496516.3914   21496519.7224
  21837122.399   -20705378.94249 -12326458.79549  21837122.2954   21837125.4174
  24191288.942    -7944025.42949  -6179275.19249  24191288.0204   24191292.5464
  24616676.031    -5988428.97449  -2140513.27149  24616675.6204   24616680.7684
  23013746.608   -12941462.24449 -10065663.16849  23013746.1454   23013751.3194
 98  1 28  0 32  0.0000000  0  7  2  4  7  9  5 26 24
  22481214.257   -12677572.10249  -9857377.43649  22481213.9494   22481217.9234
  21128538.114   -22643666.79949 -14809279.59649  21128538.3274   21128541.3034
  21506409.847   -22949198.01749 -13913670.26249  21506409.0034   21506412.4554
  21826613.032   -20760605.87549 -12369492.75149  21826613.0704   21826616.2514
  24174737.545    -8031003.00149  -6247049.78749  24174735.9094   24174740.5604
  24629432.702    -5921392.37949  -2088276.97349  24629433.5584   24629437.1044
  22993373.144   -13048525.20349 -10149088.81449  22993372.9394   22993377.9074
 98  1 28  0 32 30.0000000  0  7  2  4  7  9  5 26 24
  22490268.538   -12629991.35649  -9820301.55549  22490268.1914   22490272.1164
  21118282.331   -22697561.34549 -14851275.33749  21118282.6674   21118285.3814
  21516340.369   -22897012.57649 -13873006.28849  21516339.6884   21516343.2884
  21816209.656   -20815276.20749 -12412093.00949  21816209.5524   21816212.8274
  24158194.696    -8117935.50949  -6314789.30749  24158193.2714   24158197.4484
  24642223.654    -5854175.40149  -2035900.13649  24642223.9334   24642228.5464
  22973051.549   -13155315.26149 -10232301.83249  22973051.2684   22973055.7964
 98  1 28  0 33  0.0000000  0  7  2  4  7  9  5 26 24
  22499378.334   -12582119.03649  -9782998.46149  22499377.7154   22499382.3244
  21108129.421   -22750915.01249 -14892849.59849  21108129.4464   21108132.4104
  21526302.706   -22844660.31549 -13832212.31049  21526301.7314   21526305.6494
  21805905.384   -20869425.85749 -12454287.52349  21805905.4764   21805908.1344
  24141655.119    -8204850.66949  -6382515.29449  24141654.3804   24141658.3704
  24655040.058    -5786824.46649  -1983418.92049  24655040.6014   24655044.7514
  22952776.114   -13261863.13749 -10315326.11749  22952775.7644   22952781.0414
 98  1 28  0 33 30.0000000  0  7  2  4  7  9  5 26 24
  22508540.258   -12533972.73749  -9745481.87749  22508539.9724   22508543.9914
  21098077.750   -22803736.96749 -14934009.54349  21098077.8254   21098080.8134
  21536295.606   -22792147.32749 -13791293.09249  21536294.7134   21536298.4314
  21795696.043   -20923076.23649 -12496092.99849  21795695.8344   21795698.6744
  24125115.507    -8291766.61249  -6450241.90449  24125114.9804   24125119.7514
  24667874.786    -5719377.41449  -1930862.79349  24667875.0754   24667879.3324
  22932542.994   -13368188.75649 -10398177.21749  22932543.0414   22932547.6694
 98  1 28  0 34  0.0000000  0  7  2  4  7  9  5 26 24
  22517760.919   -12485517.97149  -9707724.93249  22517760.2694   22517764.8254
  21088136.235   -22855979.80649 -14974718.22649  21088136.3174   21088139.3654
  21546326.176   -22739436.07049 -13750219.38149  21546325.8594   21546329.1394
  21785585.537   -20976206.89849 -12537493.50249  21785585.1834   21785588.1934
  24108578.079    -8378670.91749  -6517959.43449  24108577.6194   24108581.2014
  24680729.650    -5651824.48949  -1878224.17549  24680730.1764   24680733.2004
  22912357.403   -13474264.74349 -10480833.79949  22912357.3554   22912361.8374
 98  1 28  0 34 30.0000000  0  7  2  4  7  9  5 26 24
  22527029.182   -12436812.86249  -9669772.89349  22527028.3834   22527033.3094
  21078294.243   -22907699.82549 -15015019.50349  21078294.4904   21078297.2594
  21556383.685   -22686583.78449 -13709035.75949  21556382.9374   21556386.4034
  21775561.496   -21028883.55449 -12578540.22449  21775561.3534   21775564.5654
  24092030.106    -8465630.95249  -6585720.39549  24092029.4354   24092033.4404
  24693587.638    -5584255.65849  -1825573.14049  24693588.3944   24693591.8624
  22892204.242   -13580170.75749 -10563357.92049  22892204.1074   22892207.9274
 98  1 28  0 35  0.0000000  0  7  2  4  7  9  5 26 24
  22536348.883   -12387837.13649  -9631610.00649  22536348.2714   22536352.6164
  21068559.205   -22958857.47249 -15054882.58149  21068559.3304   21068562.1104
  21566474.799   -22633554.56349 -13667714.28549  21566474.1314   21566477.5004
  21765630.478   -21081071.26949 -12619205.96049  21765630.0084   21765633.5214
  24075481.679    -8552593.08449  -6653483.00149  24075480.4724   24075484.0964
  24706453.240    -5516646.45449  -1772890.68649  24706452.9984   24706458.1674
  22872088.155   -13685881.20449 -10645729.66949  22872087.7034   22872091.7984
 98  1 28  0 35 30.0000000  0  7  2  4  7  9  5 26 24
  22545734.103   -12338517.43549  -9593179.07749  22545733.1544   22545737.8034
  21058945.291   -23009378.91849 -15094249.91949  21058945.4654   21058948.4374
  21576611.973   -22580283.49249 -13626204.35249  21576611.4334   21576614.7724
  21755804.799   -21132705.42049 -12659440.35249  21755804.4904   21755807.8624
  24058947.974    -8639477.76849  -6721185.25949  24058946.8284   24058950.7074
  24719342.611    -5448912.08349  -1720110.68649  24719342.0364   24719346.5144
  22852023.202   -13791322.58449 -10727891.74549  22852022.5644   22852027.6274
 98  1 28  0 36  0.0000000  0  7  2  4  7  9  5 26 24
  22555178.285   -12288887.90949  -9554506.73549  22555177.5464   22555182.1154
  21049446.009   -23059297.91749 -15133147.82149  21049446.1524   21049449.0384
  21586786.924   -22526813.78249 -13584539.64049  21586786.0594   21586789.5804
  21746076.957   -21183825.61649 -12699274.26149  21746076.5844   21746079.8004
  24042426.032    -8726300.23849  -6788839.05049  24042425.6854   24042429.1254
  24732253.003    -5381067.72049  -1667245.00449  24732252.3584   24732258.2534
  22832002.425   -13896532.31149 -10809873.31449  22832002.0044   22832006.8744
 98  1 28  0 36 30.0000000  0  8  2  4  7  9  8  5 26 24
  22564670.234   -12239007.61449  -9515638.97249  22564669.7844   22564673.9394
  21040051.995   -23108663.67749 -15171614.62449  21040052.2154   21040055.2374
  21596989.496   -22473198.67749 -13542761.62849  21596988.9864   21596992.1504
  21736439.157   -21234472.52149 -12738739.36649  21736438.8574   21736442.0554
  24453023.030    -5181210.45249  -3734715.73349  24453022.0354   24453026.8694
  24025910.612    -8813088.95049  -6856466.54149  24025909.1594   24025914.3084
  24745178.151    -5313145.99049  -1614319.00249  24745178.8094   24745183.1224
  22812014.046   -14001571.70849 -10891722.15249  22812013.1324   22812019.2554
 98  1 28  0 37  0.0000000  0  8  2  4  7  9  8  5 26 24
  22574220.484   -12188820.90949  -9476532.45649  22574219.8234   22574223.8204
  21030775.313   -23157412.88449 -15209600.99849  21030775.6174   21030778.2984
  21607229.953   -22419384.74449 -13500828.68949  21607229.1174   21607232.7974
  21726900.912   -21284596.14649 -12777796.72349  21726900.7504   21726903.9724
  24432155.703    -5290868.69249  -3820163.64649  24432153.9924   24432158.7764
  24009412.578    -8899786.05349  -6924022.66149  24009411.6704   24009416.1094
  24758134.421    -5245060.52349  -1561265.42749  24758134.6704   24758138.7694
  22792069.914   -14106378.57749 -10973389.79049  22792069.8284   22792073.9294
 98  1 28  0 37 30.0000000  0  8  2  4  7  9  8  5 26 24
  22583826.190   -12138342.75849  -9437198.84249  22583825.5934   22583829.7354
  21021611.150   -23205571.08249 -15247126.84549  21021611.1114   21021614.2224
  21617503.688   -22365395.90549 -13458759.45749  21617503.0044   21617506.4624
  21717456.106   -21334229.16849 -12816471.79049  21717455.5484   21717458.9334
  24411328.409    -5400317.66149  -3905448.49649  24411327.9494   24411331.4144
  23992924.261    -8986432.48949  -6991539.29449  23992923.8344   23992927.4684
  24771116.703    -5176838.70749  -1508105.61649  24771117.5124   24771121.8264
  22772168.062   -14210963.34149 -11054884.36649  22772167.8964   22772172.4224
 98  1 28  0 38  0.0000000  0  8  2  4  7  9  8  5 26 24
  22593466.319   -12087683.50949  -9397724.12049  22593465.4194   22593470.5224
  21012537.163   -23253255.08549 -15284283.19249  21012537.0834   21012540.0414
  21627789.777   -22311341.97049 -13416639.50749  21627789.0934   21627792.6074
  21708085.571   -21383471.55249 -12854842.46649  21708085.2054   21708088.6004
  24390518.046    -5509677.18949  -3990663.63849  24390518.8754   24390520.9204
  23976420.920    -9073158.19849  -7059117.69849  23976420.5294   23976424.5864
  24784097.775    -5108623.01949  -1454950.56649  24784097.8964   24784102.2454
  22752286.847   -14315439.73149 -11136294.49949  22752286.5604   22752291.2944
 98  1 28  0 38 30.0000000  0  8  2  4  7  9  8  5 26 24
  22603161.526   -12036734.95649  -9358023.94749  22603160.9774   22603165.6054
  21003572.466   -23300364.52849 -15320991.81149  21003572.5394   21003575.7734
  21638109.788   -22257109.92649 -13374380.75249  21638109.4194   21638112.9324
  21698810.924   -21432209.70349 -12892820.21349  21698810.4964   21698813.6564
  24369746.708    -5618831.32949  -4075718.74949  24369745.8364   24369748.8144
  23959918.969    -9159875.88749  -7126689.82749  23959917.8844   23959922.4204
  24797092.469    -5040335.63049  -1401739.62749  24797092.1004   24797097.1004
  22732448.184   -14419692.58049 -11217530.42349  22732447.8244   22732452.8914
 98  1 28  0 39  0.0000000  0  8  2  4  7  9  8  5 26 24
  22612936.934   -11985364.96049  -9317995.38749  22612936.3404   22612940.4324
  20994738.571   -23346786.87649 -15357165.04549  20994738.7054   20994741.4824
  21648486.922   -22202577.78049 -13331888.16149  21648486.1654   21648489.6274
  21689656.450   -21480316.77349 -12930306.22049  21689656.1534   21689659.4204
  24349040.239    -5727644.04249  -4160507.80549  24349040.2204   24349043.6744
  23943437.562    -9246485.51449  -7194177.80249  23943437.5434   23943441.1304
  24810118.770    -4971881.63749  -1348398.90049  24810119.3124   24810123.6344
  22712678.412   -14523583.41949 -11298484.28149  22712678.2804   22712683.4264
 98  1 28  0 39 30.0000000  0  8  2  4  7  9  8  5 26 24
  22622766.954   -11933707.96749  -9277743.19749  22622766.6254   22622770.7204
  20986012.356   -23392643.36549 -15392897.35249  20986012.4964   20986015.2514
  21658896.669   -22147874.00249 -13289261.84449  21658896.1884   21658899.3844
  21680601.216   -21527902.32649 -12967385.85749  21680601.2524   21680604.2164
  24328376.184    -5836233.82349  -4245123.14949  24328375.8564   24328381.4864
  23926955.679    -9333098.36549  -7261668.26449  23926955.0444   23926959.6474
  24823149.480    -4903405.28949  -1295040.77049  24823149.8514   24823154.2984
  22692957.297   -14627218.54649 -11379238.90449  22692956.4934   22692961.5654
 98  1 28  0 40  0.0000000  0  8  2  4  7  9  8  5 26 24
  22632649.758   -11881773.66449  -9237274.92749  22632649.3134   22632653.3034
  20977394.262   -23437931.61149 -15428186.87749  20977394.2724   20977397.3584
  21669340.426   -22092991.70949 -13246496.42349  21669339.7584   21669343.2214
  21671649.404   -21574944.36249 -13004041.97349  21671648.5804   21671651.8274
  24307761.137    -5944565.95949  -4329537.73649  24307760.5984   24307763.2274
  23910475.995    -9419699.53649  -7329149.65749  23910475.5124   23910480.2244
  24836186.013    -4834898.17449  -1241658.66549  24836186.4764   24836190.5974
  22673286.882   -14730587.31949 -11459785.97049  22673286.2114   22673290.9634
 98  1 28  0 40 30.0000000  0  8  2  4  7  9  8  5 26 24
  22642559.802   -11829696.10949  -9196695.02949  22642559.2224   22642563.7134
  20968861.078   -23482773.48249 -15463128.56749  20968861.2494   20968864.1204
  21679792.545   -22038065.43649 -13203696.72549  21679791.8124   21679795.4424
  21662776.364   -21621572.19049 -13040375.32249  21662776.3124   21662779.1364
  24287174.232    -6052751.10349  -4413837.78649  24287172.7704   24287178.1394
  23893977.131    -9506401.54949  -7396709.59049  23893975.8654   23893980.2484
  24849210.206    -4766455.37249  -1188326.66449  24849211.2894   24849215.6804
  22653645.806   -14833801.77349 -11540212.78449  22653645.4584   22653649.8884
 98  1 28  0 41  0.0000000  0  8  2  4  7  9  8  5 26 24
  22652523.824   -11777334.65949  -9155893.92349  22652523.6644   22652527.4614
  20960443.980   -23527005.72949 -15497595.22649  20960444.1264   20960446.9514
  21690276.791   -21982970.38449 -13160765.51549  21690275.8544   21690279.5064
  21654009.499   -21667642.43549 -13076274.19449  21654009.2414   21654012.2784
  24266641.087    -6160653.15949  -4497917.23849  24266641.1244   24266643.8734
  23877488.666    -9593048.66949  -7464226.74549  23877488.4494   23877492.1664
  24862253.215    -4697913.74649  -1134917.66349  24862252.2914   24862259.2814
  22634063.496   -14936707.27849 -11620398.86049  22634063.1044   22634067.6664
 98  1 28  0 41 30.0000000  0  8  2  4  7  9  8  5 26 24
  22662561.860   -11724584.63349  -9114790.02149  22662561.1954   22662565.1174
  20952166.209   -23570505.84449 -15531491.40149  20952166.2274   20952168.8394
  21700814.218   -21927595.73149 -13117616.44549  21700813.9494   21700816.9894
  21645369.159   -21713047.80649 -13111654.98749  21645369.0134   21645372.0184
  24246183.156    -6268160.55349  -4581689.17849  24246182.3574   24246186.2614
  23861034.993    -9679513.01449  -7531601.46749  23861034.1004   23861038.8504
  24875339.802    -4629143.30649  -1081330.37349  24875340.1804   24875344.8924
  22614560.949   -15039193.33849 -11700258.10449  22614560.3764   22614565.0454
 98  1 28  0 42  0.0000000  0  8  2  4  7  9  8  5 26 24
  22672644.978   -11671597.48949  -9073501.36049  22672644.2054   22672647.7614
  20943994.273   -23613449.53049 -15564953.98949  20943994.6044   20943997.3584
  21711371.206   -21872118.49249 -13074387.42749  21711371.0814   21711373.9124
  21636822.579   -21757960.26449 -13146651.68849  21636822.3504   21636825.3544
  24225766.175    -6375451.41849  -4665292.34649  24225765.1424   24225769.3964
  23844579.552    -9765986.31749  -7598983.16749  23844578.6124   23844582.2164
  24888436.779    -4560318.21649  -1027700.48549  24888436.6144   24888442.2934
  22595102.423   -15141448.06349 -11779937.08349  22595102.4664   22595106.8404
 98  1 28  0 42 30.0000000  0  8  2  4  7  9  8  5 26 24
  22682782.856   -11618322.76349  -9031988.59549  22682782.3474   22682786.9284
  20935935.669   -23655797.70949 -15597952.52949  20935935.6734   20935938.6054
  21721951.809   -21816517.13249 -13031061.67949  21721951.2964   21721954.6114
  21628374.132   -21802357.06149 -13181246.56049  21628373.7784   21628376.7854
  24205392.170    -6482516.63849  -4748719.68649  24205392.1164   24205395.2294
  23828128.267    -9852438.04249  -7666348.03149  23828127.9204   23828131.9524
  24901548.170    -4491417.55549   -974011.72849  24901548.1574   24901553.3624
  22575691.051   -15243455.36649 -11859423.24849  22575690.4554   22575695.0334
 98  1 28  0 43  0.0000000  0  8  2  4  7  9  8  5 26 24
  22692984.399   -11564713.02649  -8990214.78149  22692984.1344   22692988.7904
  20927997.658   -23697512.15949 -15630457.26549  20927997.7694   20928000.7274
  21732566.010   -21760739.09149 -12987598.26749  21732565.5084   21732568.7844
  21620032.318   -21846193.43549 -13215404.74849  21620031.9034   21620035.0304
  24185068.591    -6589317.82849  -4831941.29449  24185068.7954   24185071.6104
  23811689.418    -9938825.14549  -7733662.55349  23811688.5314   23811693.1224
  24914678.203    -4422419.04149   -920246.70349  24914678.3774   24914682.6034
  22556332.755   -15345183.70949 -11938692.05649  22556331.7764   22556335.9934
 98  1 28  0 43 30.0000000  0  8  2  4  7  9  8  5 26 24
  22703261.188   -11510708.09049  -8948133.03149  22703261.1994   22703265.2034
  20920188.384   -23738549.81149 -15662434.62749  20920188.4754   20920191.5194
  21743228.480   -21704707.34549 -12943937.15849  21743227.9574   21743230.9784
  21611809.802   -21889402.88149 -13249074.42549  21611809.3164   21611812.4034
  24164806.651    -6695795.08649  -4914910.49349  24164806.1834   24164810.5844
  23795274.055   -10025088.25349  -7800880.45849  23795272.9754   23795277.5454
  24927834.503    -4353282.39749   -866374.07149  24927833.9904   24927839.1214
  22537036.029   -15446588.17349 -12017708.49849  22537036.4744   22537040.8464
 98  1 28  0 44  0.0000000  0  8  2  4  7  9  8  5 26 24
  22713580.145   -11456481.67149  -8905878.70849  22713580.1764   22713583.6214
  20912473.455   -23779091.96249 -15694025.90049  20912473.5264   20912476.4844
  21753904.106   -21648606.57349 -12900222.27549  21753903.4164   21753906.8724
  21603673.957   -21932157.04649 -13282389.35149  21603673.6084   21603676.5834
  24144571.279    -6802132.09649  -4997770.41549  24144570.5224   24144574.4014
  23778849.621   -10111398.74149  -7868135.27949  23778849.1154   23778852.7504
  24940978.457    -4284210.26749   -812551.70149  24940979.7094   24940984.2774
  22517768.802   -15547838.30849 -12096604.69049  22517768.6334   22517773.4734
 98  1 28  0 44 30.0000000  0  8  2  4  7  9  8  5 26 24
  22723954.964   -11401961.51449  -8863395.48649  22723954.5544   22723958.7834
  20904870.107   -23819047.79749 -15725160.28949  20904870.3394   20904873.0684
  21764611.878   -21592336.78549 -12856375.68049  21764611.1934   21764614.9884
  21595641.243   -21974369.28049 -13315281.97649  21595640.7894   21595643.9704
  24124381.064    -6908232.02349  -5080445.57949  24124380.6094   24124384.8524
  23762436.951   -10197647.65849  -7935342.14849  23762435.7484   23762439.4914
  24954127.984    -4215109.68949   -758707.16449  24954127.4374   24954132.8024
  22498550.983   -15648828.66049 -12175298.43849  22498551.4274   22498555.4464
 98  1 28  0 45  0.0000000  0  8  2  4  7  9  8  5 26 24
  22734387.249   -11347139.59949  -8820677.11749  22734386.8224   22734390.4744
  20897382.049   -23858397.74049 -15755822.56049  20897382.2134   20897384.9894
  21775355.495   -21535878.64449 -12812382.31649  21775354.8264   21775358.3194
  21587715.811   -22016017.18049 -13347734.86449  21587715.4764   21587718.5064
  24104244.066    -7014052.29549  -5162902.85449  24104242.3504   24104246.8554
  23746039.557   -10283815.82749  -8002486.06049  23746038.8094   23746043.1434
  24967286.729    -4145959.83149   -704824.21149  24967286.8574   24967291.8784
  22479392.156   -15749508.52849 -12253750.25049  22479392.3214   22479396.5454
 98  1 28  0 45 30.0000000  0  8  2  4  7  9  8  5 26 24
  22744867.778   -11292063.99249  -8777761.09049  22744867.6864   22744871.3984
  20890001.743   -23897181.48849 -15786043.64249  20890001.8934   20890004.7174
  21786120.829   -21479306.22349 -12768299.90249  21786120.2834   21786123.5364
  21579886.749   -22057159.38749 -13379793.70749  21579886.7254   21579889.7584
  24084150.814    -7119642.89649  -5245181.14149  24084150.3804   24084154.2244
  23729646.191   -10369963.36249  -8069613.92849  23729645.1094   23729649.9564
  24980443.688    -4076819.90449   -650948.99749  24980444.2084   24980449.0694
  22460286.353   -15849910.01449 -12331985.14649  22460286.7574   22460290.7284
 98  1 28  0 46  0.0000000  0  8  2  4  7  9  8  5 26 24
  22755398.338   -11236726.07549  -8734640.65149  22755397.5064   22755402.4304
  20882732.597   -23935381.13949 -15815809.58049  20882732.8554   20882735.4944
  21796906.644   -21422626.18149 -12724133.62749  21796905.8264   21796909.3874
  21572153.073   -22097799.99849 -13411461.69849  21572152.9794   21572155.8624
  24064103.879    -7224989.45249  -5327269.27149  24064102.5984   24064106.5864
  23713254.633   -10456101.34849  -8136734.35149  23713254.5854   23713258.0664
  24993600.961    -4007678.82849   -597072.90249  24993602.2194   24993606.2594
  22441237.629   -15950011.78149 -12409986.48649  22441236.8054   22441242.1544
 98  1 28  0 46 30.0000000  0  8  2  4  7  9  8  5 26 24
  22765998.296   -11181022.84649  -8691235.53649  22765997.0884   22766002.0204
  20875595.653   -23972885.82649 -15845033.97549  20875595.6964   20875598.5604
  21807733.086   -21365732.44549 -12679800.81949  21807732.7114   21807735.8904
  21564532.640   -22137845.26949 -13442665.76849  21564532.4054   21564535.4074
  24044125.027    -7329978.91849  -5409079.17249  24044124.4894   24044127.8574
  23696881.958   -10542140.14649  -8203777.49149  23696880.7014   23696884.7494
  25006780.517    -3938419.79349   -543104.86849  25006780.1964   25006785.7094
  22422264.770   -16049714.77749 -12487677.09649  22422264.5894   22422269.1064
 98  1 28  0 47  0.0000000  0  8  2  4  7  9  8  5 26 24
  22776660.686   -11124991.64849  -8647574.86949  22776659.3574   22776664.2304
  20868583.689   -24009733.76249 -15873746.62449  20868583.9404   20868586.8564
  21818590.438   -21308676.83049 -12635341.88649  21818589.7254   21818593.4164
  21557019.381   -22177327.52849 -13473431.14049  21557019.3964   21557022.1594
  24024206.876    -7434648.62549  -5490639.90249  24024205.6784   24024209.1504
  23680516.268   -10628142.36749  -8270792.12749  23680514.9714   23680519.6004
  25019971.065    -3869103.02149   -489091.85749  25019971.7544   25019976.5824
  22403357.111   -16149075.02749 -12565100.63349  22403357.4884   22403361.8074
 98  1 28  0 47 30.0000000  0  8  2  4  7  9  8  5 26 24
  22787375.225   -11068686.56449  -8603700.79649  22787375.2284   22787378.6494
  20861686.248   -24045980.11749 -15901990.52049  20861686.5254   20861689.1614
  21829469.113   -21251509.09949 -12590795.59249  21829468.4134   21829471.7614
  21549604.221   -22216294.53849 -13503795.02549  21549604.0604   21549606.8254
  24004337.913    -7539060.03149  -5571999.39449  24004336.1844   24004341.1234
  23664144.607   -10714175.19349  -8337830.63249  23664143.8444   23664147.7884
  25033159.156    -3799799.24849   -435088.99149  25033159.2644   25033164.2404
  22384499.228   -16248173.86549 -12642320.47849  22384499.0444   22384503.0044
 98  1 28  0 48  0.0000000  0  8  2  4  7  9  8  5 26 24
  22798142.440   -11012104.07249  -8559610.56549  22798141.4954   22798147.0414
  20854902.681   -24081628.00149 -15929768.08049  20854903.0914   20854905.7504
  21840373.991   -21194203.56249 -12546141.93449  21840373.6944   21840376.6324
  21542291.119   -22254725.30249 -13533741.06649  21542291.0724   21542293.8464
  23984520.831    -7643199.19849  -5653146.73449  23984519.8424   23984523.2414
  23647769.742   -10800225.25949  -8404882.57149  23647769.9304   23647773.0074
  25046347.238    -3730495.95849   -381086.48549  25046347.2854   25046353.3394
  22365690.395   -16347014.95749 -12719339.49149  22365689.8554   22365694.9164
 98  1 28  0 48 30.0000000  0  8  2  4  7  9  8  5 26 24
  22808959.534   -10955259.90049  -8515316.41949  22808959.1164   22808963.5994
  20848227.458   -24116706.29249 -15957101.78849  20848227.7024   20848230.3484
  21851303.338   -21136769.64849 -12501388.22349  21851302.6584   21851305.9404
  21535079.151   -22292624.40949 -13563272.81249  21535078.8154   21535081.7024
  23964753.972    -7747074.87249  -5734088.74549  23964753.2374   23964756.4604
  23631393.724   -10886281.83749  -8471939.56849  23631392.7174   23631397.0364
  25059532.574    -3661206.77349   -327094.97449  25059532.8764   25059538.5394
  22346926.022   -16445622.20749 -12796176.27349  22346925.9054   22346930.6594
 98  1 28  0 49  0.0000000  0  8  2  4  7  9  8  5 26 24
  22819842.821   -10898067.98149  -8470751.30149  22819842.4524   22819846.2214
  20841674.292   -24151143.50549 -15983935.96349  20841674.4494   20841677.1594
  21862273.911   -21079118.93749 -12456465.58249  21862273.3234   21862276.5854
  21527986.911   -22329894.19549 -13592314.18949  21527986.8654   21527989.6114
  23945054.016    -7850598.57449  -5814756.49649  23945053.9644   23945056.9574
  23615034.724   -10972248.45949  -8538926.47749  23615034.6024   23615038.5494
  25072731.608    -3591846.07349   -273047.74249  25072730.7904   25072735.4634
  22328224.939   -16543897.18049 -12872754.13149  22328225.0914   22328229.3064
 98  1 28  0 49 30.0000000  0  8  2  4  7  9  8  5 26 24
  22830778.801   -10840599.25849  -8425970.48349  22830778.6114   22830782.8754
  20835226.696   -24185025.68349 -16010337.63649  20835226.7834   20835229.5034
  21873271.195   -21021328.04749 -12411433.71649  21873270.7004   21873273.9684
  21520999.767   -22366611.95549 -13620925.41149  21520999.5124   21521002.4384
  23925408.144    -7953838.30649  -5895202.98649  23925407.2754   23925411.3034
  23598683.037   -11058177.02349  -8605883.71449  23598682.4224   23598686.3014
  25085934.271    -3522465.25049   -218984.81349  25085934.0694   25085938.4434
  22309577.104   -16641892.11949 -12949113.77849  22309576.9514   22309581.3254
 98  1 28  0 50  0.0000000  0  7  2  4  7  9  8  5 24
  22841773.017   -10782824.71949  -8380951.38449  22841771.9104   22841776.7694
  20828888.834   -24218331.18349 -16036289.95749  20828888.9604   20828891.5964
  21884296.365   -20963390.49249 -12366287.56749  21884295.6574   21884299.2714
  21514120.565   -22402762.11149 -13649094.34649  21514120.3244   21514123.0894
  23905819.242    -8056778.18649  -5975415.81849  23905818.3264   23905821.2594
  23582347.371   -11144021.43949  -8672775.37549  23582346.4914   23582350.8444
  22290988.222   -16739577.16149 -13025231.93649  22290987.4514   22290992.6304
 98  1 28  0 50 30.0000000  0  7  2  4  7  9  8  5 24
  22852835.099   -10724693.06149  -8335653.98249  22852834.7924   22852839.2214
  20822671.043   -24251005.67049 -16061750.55849  20822671.2054   20822674.0164
  21895355.711   -20905273.12349 -12321001.28549  21895355.1214   21895358.2884
  21507356.703   -22438306.38549 -13676791.15449  21507356.4374   21507359.6334
  23886295.679    -8159374.99849  -6055361.31549  23886294.9124   23886299.1904
  23566035.161   -11229742.34849  -8739570.79749  23566034.0344   23566038.5654
  22272467.564   -16836903.38049 -13101070.47649  22272467.1424   22272471.6434
 98  1 28  0 51  0.0000000  0  7  2  4  7  9  8  5 24
  22863954.318   -10666261.14049  -8290122.63349  22863954.7244   22863957.4514
  20816567.800   -24283078.35849 -16086742.24149  20816567.9104   20816570.6224
  21906436.530   -20847042.88049 -12275627.06849  21906436.1104   21906439.5774
  21500697.311   -22473301.54649 -13704060.09649  21500697.2674   21500699.9824
  23866826.194    -8261686.95849  -6135084.85749  23866825.2214   23866829.0874
  23549731.497   -11315418.68149  -8806331.49549  23549730.8714   23549734.6634
  22254008.359   -16933906.77249 -13176657.47049  22254008.1414   22254012.7584
 98  1 28  0 51 30.0000000  0  7  2  4  7  9  8  5 24
  22875117.519   -10607597.94849  -8244411.07049  22875117.0464   22875120.8664
  20810572.008   -24314586.30849 -16111293.87949  20810572.0614   20810574.8324
  21917525.351   -20788770.76749 -12230220.23649  21917524.8034   21917528.0234
  21494128.417   -22507821.10949 -13730958.45549  21494128.2154   21494130.9874
  23847399.890    -8363772.29449  -6214631.81349  23847398.9694   23847403.9224
  23533423.180   -11401118.84149  -8873110.76849  23533422.7004   23533426.2424
  22235597.203   -17030657.97549 -13252047.96849  22235596.5974   22235601.7234
 98  1 28  0 52  0.0000000  0  7  2  4  7  9  8  5 24
  22886354.569   -10548547.13349  -8198397.47349  22886354.1374   22886357.7364
  20804717.863   -24345349.90549 -16135265.49849  20804717.9534   20804720.7814
  21928653.581   -20730291.52749 -12184651.99949  21928652.6204   21928656.2154
  21487679.490   -22541710.53249 -13757365.79149  21487679.2894   21487682.2434
  23828046.153    -8465475.87849  -6293881.29449  23828045.0584   23828048.7634
  23517139.458   -11486689.81049  -8939789.37349  23517138.6344   23517142.0444
  22217264.132   -17126998.85649 -13327118.72849  22217263.9284   22217268.7994
 98  1 28  0 52 30.0000000  0  7  2  4  7  9  8  5 24
  22897645.910   -10489210.60749  -8152161.22649  22897644.8604   22897649.9654
  20798990.660   -24375446.51249 -16158717.37149  20798990.7184   20798993.2534
  21939810.703   -20671660.30149 -12138965.32349  21939810.2354   21939813.2774
  21481337.226   -22575039.26149 -13783336.20849  21481336.8204   21481339.7534
  23808754.568    -8566853.73849  -6372876.98249  23808754.0434   23808757.3604
  23500865.193   -11572211.10049  -9006429.27149  23500864.1004   23500868.6884
  22198998.899   -17222983.15649 -13401911.62049  22198998.4734   22199002.9134
 98  1 28  0 53  0.0000000  0  7  2  4  7  9  8  5 24
  22908997.897   -10429555.59149  -8105676.80849  22908996.9214   22909000.8904
  20793398.231   -24404834.93349 -16181617.42049  20793398.3904   20793400.9994
  21951007.277   -20612822.19849 -12093117.45249  21951006.6444   21951010.0034
  21475112.997   -22607747.57949 -13808823.20349  21475112.4694   21475115.6034
  23789537.500    -8667839.76249  -6451567.35249  23789536.7164   23789540.7754
  23484613.813   -11657612.85149  -9072976.01149  23484612.7414   23484616.9974
  22180810.788   -17318562.26649 -13476388.79249  22180810.3054   22180815.5124
 98  1 28  0 53 30.0000000  0  7  2  4  7  9  8  5 24
  22920396.499   -10369655.59049  -8059001.50349  22920396.1104   22920400.4804
  20787921.248   -24433616.42249 -16204044.53449  20787921.2124   20787923.9864
  21962229.000   -20553851.38749 -12047166.17049  21962228.2064   21962231.5454
  21468993.299   -22639906.92049 -13833882.42449  21468993.2254   21468996.0654
  23770382.193    -8768500.94849  -6530004.58249  23770380.8184   23770385.5314
  23468374.844   -11742948.86549  -9139471.53649  23468373.5834   23468377.6554
  22162680.971   -17413835.12849 -13550627.32249  22162680.7154   22162685.1114
 98  1 28  0 54  0.0000000  0  7  2  4  7  9  8  5 24
  22931856.626   -10309432.56349  -8012074.47449  22931855.9464   22931859.8094
  20782569.531   -24461739.76049 -16225958.79549  20782569.4974   20782572.2224
  21973490.826   -20494669.89249 -12001050.71749  21973490.1794   21973493.4844
  21462993.783   -22671434.44649 -13858449.32049  21462993.3294   21462996.4194
  23751300.486    -8868775.35949  -6608140.43149  23751301.1864   23751303.5254
  23452161.890   -11828147.79049  -9205860.26149  23452161.6764   23452164.9474
  22144623.424   -17508728.06249 -13624569.80049  22144623.1664   22144627.2024
 98  1 28  0 54 30.0000000  0  7  2  4  7  9  8  5 24
  22943371.949   -10248919.47349  -7964921.42449  22943371.1554   22943375.2444
  20777333.525   -24489254.88949 -16247399.13849  20777333.7114   20777336.3404
  21984783.685   -20435325.65249 -11954808.45349  21984783.1514   21984786.4904
  21457108.432   -22702362.17449 -13882548.84149  21457108.2234   21457111.2534
  23732285.145    -8968701.76949  -6686005.13449  23732284.1824   23732288.7044
  23435966.937   -11913252.66049  -9272175.68149  23435965.7494   23435970.0774
  22126628.862   -17603289.81049 -13698254.22149  22126628.5444   22126632.8054
 98  1 28  0 55  0.0000000  0  7  2  4  7  9  8  5 24
  22954947.806   -10188087.61249  -7917519.99349  22954947.3114   22954951.4694
  20772214.801   -24516153.86549 -16268359.34549  20772215.0254   20772217.6444
  21996102.485   -20375844.84549 -11908459.75649  21996101.6364   21996105.5884
  21451335.846   -22732697.55849 -13906186.78449  21451335.7194   21451338.5174
  23713331.074    -9068305.95249  -6763618.71849  23713330.6134   23713334.2174
  23419785.891   -11998284.22349  -9338433.97449  23419784.9904   23419788.6124
  22108691.830   -17697549.48149 -13771703.23649  22108691.6914   22108695.5424
 98  1 28  0 55 30.0000000  0  7  2  4  7  9  8  5 24
  22966585.863   -10126929.06949  -7869863.99149  22966585.4644   22966590.0854
  20767215.353   -24542426.08449 -16288831.17149  20767215.4164   20767218.3384
  22007446.372   -20316231.95449 -11862008.14349  22007445.4234   22007449.1654
  21445672.971   -22762456.12849 -13929375.25949  21445672.7004   21445675.6184
  23694433.476    -9167613.41449  -6841001.11249  23694432.5664   23694436.4644
  23403613.257   -12083272.18449  -9404658.31249  23403613.1064   23403615.8534
  22090813.722   -17791499.28649 -13844910.79349  22090813.2384   22090817.9254
 98  1 28  0 56  0.0000000  0  7  2  4  7  9  8  5 24
  22978282.370   -10065463.32849  -7821968.64449  22978282.1964   22978287.2624
  20762335.524   -24568069.82049 -16308813.29849  20762335.7844   20762338.1634
  22018813.566   -20256496.98049 -11815461.41949  22018812.7434   22018816.2254
  21440117.083   -22791652.27149 -13952125.51149  21440116.7964   21440119.7744
  23675588.510    -9266644.04449  -6918167.81049  23675588.0614   23675591.9104
  23387443.559   -12168244.27249  -9470870.29949  23387442.9604   23387446.1974
  22072994.274   -17885140.79149 -13917878.14849  22072993.8444   22072998.4704
 98  1 28  0 56 30.0000000  0  7  2  4  7  9  8  5 24
  22990046.489   -10003642.62949  -7773796.67949  22990046.5624   22990050.5814
  20757587.048   -24593023.19049 -16328257.45949  20757587.3114   20757589.7504
  22030210.979   -20196603.32449 -11768791.03749  22030210.3434   22030213.5934
  21434676.672   -22820241.78649 -13974403.05449  21434676.6124   21434679.2364
  23656809.109    -9365330.46849  -6995066.28949  23656808.1924   23656812.7044
  23371286.853   -12253147.90449  -9537028.92749  23371286.1554   23371289.4874
  22055243.376   -17978421.87349 -13990564.64649  22055242.6234   22055247.5144
 98  1 28  0 57  0.0000000  0  7  2  4  7  9  8  5 24
  23001866.844    -9941526.21749  -7725394.29749  23001866.5094   23001870.5564
  20752960.263   -24617336.86649 -16347203.14849  20752960.2254   20752963.1804
  22041628.233   -20136605.08049 -11722039.14449  22041627.3694   22041630.7574
  21429341.282   -22848279.19449 -13996250.37049  21429341.0564   21429343.5924
  23638087.964    -9463710.92349  -7071726.31749  23638087.4734   23638091.1624
  23355134.941   -12338026.25449  -9603167.84849  23355134.2374   23355137.7804
  22037554.407   -18071377.34749 -14062997.41149  22037554.2394   22037558.2124
 98  1 28  0 57 30.0000000  0  7  2  4  7  9  8  5 24
  23013731.020    -9879179.57349  -7676812.50649  23013730.4664   23013734.5314
  20748443.378   -24641073.14649 -16365698.92349  20748443.4024   20748445.9354
  22053058.284   -20076539.78649 -11675235.00949  22053057.7064   22053061.0594
  21424101.923   -22875812.18149 -14017704.63449  21424101.7034   21424104.8204
  23619422.427    -9561798.69249  -7148158.32149  23619422.4244   23619425.9564
  23338981.091   -12422914.63649  -9669314.61049  23338981.1804   23338983.1184
  22019923.171   -18164029.88349 -14135194.13949  22019922.6654   22019927.1084
 98  1 28  0 58  0.0000000  0  7  2  4  7  9  8  5 24
  23025652.529    -9816531.42049  -7627995.78449  23025652.1034   23025656.2374
  20744049.237   -24664164.44549 -16383692.11549  20744049.5234   20744052.0714
  22064513.366   -20016342.86149 -11628328.30649  22064512.5664   22064516.4124
  21418974.991   -22902754.33249 -14038698.51249  21418974.8624   21418977.5324
  23600831.167    -9659495.97649  -7224286.02049  23600830.7654   23600834.5114
  23322844.924   -12507710.54649  -9735389.29449  23322843.9814   23322848.0154
  22002365.125   -18256297.61649 -14207091.01949  22002364.5104   22002369.0414
 98  1 28  0 58 30.0000000  0  7  2  4  7  9  8  5 24
  23037620.209    -9753641.35949  -7578990.54149  23037618.8284   23037623.2974
  20739764.806   -24686679.28049 -16401236.11349  20739765.0094   20739767.4964
  22075980.752   -19956081.08649 -11581371.06749  22075979.8374   22075983.5014
  21413950.393   -22929158.70249 -14059273.33549  21413950.3114   21413953.1904
  23582303.556    -9756859.60149  -7300153.74149  23582302.9914   23582306.1444
  23306716.115   -12592467.75049  -9801433.83849  23306715.8064   23306718.0264
  21984871.968   -18348224.66749 -14278722.44249  21984871.6504   21984875.9764
 98  1 28  0 59  0.0000000  0  7  2  4  7  9  8  5 24
  23049656.736    -9690388.74349  -7529702.80749  23049656.2754   23049660.7604
  20735611.155   -24708506.65749 -16418244.43049  20735610.9654   20735613.9094
  22087486.127   -19895620.06049 -11534258.56749  22087485.5424   22087488.7904
  21409052.035   -22954899.67249 -14079331.22149  21409051.7924   21409054.5974
  23563861.598    -9853772.46649  -7375670.19249  23563861.0184   23563865.1044
  23290617.067   -12677069.15049  -9867356.95749  23290616.7124   23290619.3534
  21967467.129   -18439687.04849 -14349991.78649  21967466.7494   21967470.9084
 98  1 28  0 59 30.0000000  0  7  2  4  7  9  8  5 24
  23061742.522    -9626877.60449  -7480213.60549  23061742.2884   23061746.4404
  20731567.303   -24729756.88649 -16434803.00749  20731567.5144   20731570.1744
  22099009.498   -19835064.17749 -11487072.13649  22099008.6354   22099012.4764
  21404260.121   -22980081.28049 -14098953.23049  21404259.9094   21404262.6804
  23545483.200    -9950351.84449  -7450926.80049  23545482.3624   23545486.6594
  23274526.574   -12761625.34649  -9933244.85349  23274526.5214   23274529.6164
  21950127.993   -18530804.52449 -14420992.36249  21950127.5634   21950132.1574
 98  1 28  1  0  0.0000000  0  7  2  4  7  9  8  5 24
  23073880.332    -9563093.14949  -7430511.44949  23073879.7154   23073883.7714
  20727636.571   -24750412.80649 -16450898.50449  20727636.7564   20727639.2654
  22110552.226   -19774406.71849 -11439806.57749  22110552.5934   22110554.5244
  21399577.128   -23004690.30249 -14118129.08249  21399577.0014   21399579.8524
  23527166.064   -10046608.87449  -7525932.22349  23527165.2824   23527169.0944
  23258447.464   -12846121.26749  -9999085.78049  23258446.7324   23258450.2904
  21932854.805   -18621575.42549 -14491722.89849  21932854.5114   21932858.8024
 98  1 28  1  0 30.0000000  0  7  2  4  7  9  8  5 24
  23086069.470    -9499038.77249  -7380598.95749  23086068.8874   23086073.4294
  20723816.878   -24770485.18149 -16466539.30049  20723817.1004   20723819.5494
  22122115.390   -19713641.72149 -11392457.23049  22122115.0484   22122118.3524
  21394999.250   -23028747.42649 -14136874.89149  21394999.4404   21395001.9874
  23508908.262   -10142554.72749  -7600695.17949  23508906.9324   23508911.2634
  23242375.605   -12930579.35249 -10064897.24849  23242374.5594   23242378.0964
  21915644.867   -18712014.00049 -14562194.48449  21915644.8354   21915648.6104
 98  1 28  1  1  0.0000000  0  7  2  4  7  9  8  5 24
  23098322.214    -9434649.68449  -7330425.66749  23098321.3454   23098326.4004
  20720122.475   -24789899.37549 -16481667.21649  20720122.6984   20720125.3424
  22133712.485   -19652698.56349 -11344969.04049  22133711.6504   22133715.3834
  21390537.541   -23052193.81749 -14155144.79449  21390537.1794   21390539.9944
  23490724.505   -10238110.84049  -7675154.43449  23490723.4414   23490726.8824
  23226324.574   -13014927.62649 -10130623.11649  23226323.5814   23226327.6184
  21898510.571   -18802055.14849 -14632356.38249  21898510.5574   21898514.4764
 98  1 28  1  1 30.0000000  0  7  2  4  7  9  8  5 24
  23110627.826    -9369983.43549  -7280036.38149  23110627.6454   23110631.2664
  20716545.406   -24808696.90949 -16496314.61549  20716545.6044   20716548.3274
  22145332.575   -19591634.57349 -11297386.70149  22145331.3964   22145334.9204
  21386182.685   -23075078.58049 -14172977.06049  21386182.3644   21386185.2954
  23472607.133   -10333318.11449  -7749341.87049  23472606.8624   23472609.3884
  23210287.209   -13099204.30349 -10196293.20849  23210287.0534   23210289.1634
  21881445.138   -18891734.63849 -14702236.46649  21881444.5414   21881449.0354
 98  1 28  1  2  0.0000000  0  7  2  4  7  9  8  5 24
  23122991.984    -9305009.62549  -7229407.44149  23122991.6264   23122994.9314
  20713094.195   -24826832.91349 -16510446.53849  20713094.2734   20713096.9114
  22156983.899   -19530406.14849 -11249676.22049  22156983.0704   22156986.3804
  21381942.718   -23097359.67749 -14190338.94149  21381942.5794   21381945.6164
  23454565.911   -10428125.18849  -7823217.45849  23454565.2624   23454568.6604
  23194269.345   -13183378.32749 -10261883.30449  23194269.3214   23194272.3134
  21864458.020   -18981002.18749 -14771795.55149  21864458.1214   21864461.9744
 98  1 28  1  2 30.0000000  0  7  2  4  7  9  8  5 24
  23135410.510    -9239749.47549  -7178555.38349  23135410.1994   23135414.2844
  20709763.451   -24844335.81549 -16524085.13849  20709763.6694   20709766.3014
  22168660.500   -19469045.26849 -11201862.53849  22168659.8664   22168663.3554
  21377814.725   -23119052.59849 -14207242.50549  21377814.0774   21377817.1194
  23436597.405   -10522549.60949  -7896794.88049  23436596.9924   23436600.6534
  23178265.159   -13267481.22649 -10327417.98749  23178265.3814   23178267.5904
  21847545.600   -19069877.17549 -14841048.75749  21847545.4494   21847549.5224
 98  1 28  1  3  0.0000000  0  7  2  4  7  9  8  5 24
  23147856.328    -9174346.32349  -7127591.87949  23147855.7234   23147860.4384
  20706526.105   -24861348.36149 -16537341.64949  20706526.2404   20706528.8684
  22180331.906   -19407711.52849 -11154070.00749  22180330.7574   22180334.3774
  21373772.936   -23140292.27949 -14223792.89649  21373772.7554   21373775.6014
  23418674.575   -10616734.55349  -7970185.69649  23418674.1694   23418676.7194
  23162247.488   -13351654.21649 -10393007.28049  23162246.6304   23162250.2904
  21830679.850   -19158507.19249 -14910111.07649  21830679.7254   21830684.1054
 98  1 28  1  3 30.0000000  0  7  2  4  7  9  8  5 24
  23160357.664    -9108651.79249  -7076401.34249  23160356.3194   23160360.8694
  20703405.912   -24877744.96049 -16550118.19449  20703406.0004   20703408.6444
  22192020.654   -19346286.65349 -11106206.45349  22192020.3244   22192023.4494
  21369842.244   -23160948.34749 -14239888.52049  21369842.1164   21369844.8114
  23400822.206   -10710549.27149  -8043288.03349  23400821.8284   23400825.1754
  23146242.746   -13435759.85649 -10458544.10549  23146242.6004   23146244.9594
  21813883.114   -19246774.40649 -14978890.68349  21813882.6534   21813887.3054
 98  1 28  1  4  0.0000000  0  7  2  4  7  9  8  5 24
  23172924.564    -9042611.86349  -7024941.66249  23172924.0684   23172928.6154
  20700409.914   -24893488.95949 -16562386.22949  20700410.0544   20700412.5474
  22203732.850   -19284738.52649 -11058246.86349  22203731.8664   22203735.6334
  21366029.914   -23180982.31049 -14255499.39649  21366029.7754   21366032.5544
  23383046.879   -10803959.25749  -8116074.99949  23383045.6344   23383049.3994
  23130258.787   -13519756.18149 -10523995.74249  23130258.6554   23130261.7434
  21797160.011   -19334654.78249 -15047368.86649  21797159.8704   21797164.3174
 98  1 28  1  4 30.0000000  0  7  2  4  7  9  8  5 24
  23185557.489    -8976226.11249  -6973212.49249  23185557.8924   23185560.0574
  20697536.637   -24908587.95249 -16574151.65349  20697536.6944   20697539.4454
  22215464.770   -19223086.85249 -11010206.59149  22215464.2444   22215467.2764
  21362333.528   -23200406.90949 -14270635.43549  21362333.2444   21362336.0624
  23365348.904   -10896962.54549  -8188545.05249  23365348.6464   23365351.1994
  23114297.359   -13603634.23849 -10589355.22849  23114296.5654   23114300.3694
  21780510.182   -19422150.20149 -15115547.08049  21780510.1174   21780514.2614
 98  1 28  1  5  0.0000000  0  7  2  4  7  9  8  5 24
  23198253.952    -8909505.39349  -6921222.32649  23198253.4434   23198257.7554
  20694787.296   -24923035.67149 -16585409.57749  20694787.3874   20694790.1574
  22227217.248   -19161326.79649 -10962081.83949  22227216.6484   22227219.7194
  21358749.587   -23219240.66149 -14285311.06049  21358749.2264   21358752.0534
  23347730.065   -10989549.82949  -8260690.92849  23347728.7344   23347732.6004
  23098358.376   -13687393.51049 -10654622.11849  23098357.7404   23098361.4514
  21763932.171   -19509268.29749 -15183431.26749  21763931.9534   21763936.4504
 98  1 28  1  5 30.0000000  0  7  2  4  7  9  8  5 24
  23211004.162    -8842502.49949  -6869012.25949  23211003.7664   23211007.7234
  20692155.804   -24936864.08049 -16596184.93749  20692156.1084   20692158.7864
  22238984.356   -19099490.24249 -10913897.49549  22238983.5024   22238987.2964
  21355271.188   -23237519.77549 -14299554.51649  21355271.0334   21355274.0544
  23330183.545   -11081757.20549  -8332540.79249  23330183.2604   23330186.8694
  23082434.291   -13771074.94549 -10719828.38849  23082433.4244   23082436.7474
  21747421.373   -19596033.10649 -15251040.18049  21747421.0944   21747425.5694
 98  1 28  1  6  0.0000000  0  7  2  4  7  9  8  5 24
  23223804.546    -8775235.65449  -6816596.55949  23223804.2754   23223808.9974
  20689642.708   -24950070.57349 -16606475.71249  20689642.8584   20689645.2104
  22250767.372   -19037570.06849 -10865648.02049  22250766.8754   22250770.0284
  21351897.059   -23255250.94949 -14313371.03149  21351896.8694   21351899.6304
  23312707.099   -11173596.67749  -8404103.99249  23312707.2194   23312710.6804
  23066520.679   -13854700.78749 -10784991.35549  23066520.0204   23066523.5154
  21730981.827   -19682423.40349 -15318357.29049  21730981.4354   21730985.8484
 98  1 28  1  6 30.0000000  0  7  2  4  7  9  8  5 24
  23236660.555    -8707676.84149  -6763953.33649  23236660.5454   23236664.4124
  20687257.068   -24962607.21649 -16616244.50649  20687257.2004   20687259.8324
  22262573.532   -18975528.00149 -10817303.53949  22262572.7624   22262576.6634
  21348632.748   -23272404.94449 -14326737.77549  21348632.6094   21348635.4284
  23295308.511   -11265027.07949  -8475348.43249  23295308.4344   23295310.6694
  23050621.530   -13938250.69549 -10850095.15049  23050620.4684   23050624.2934
  21714622.086   -19768393.97549 -15385347.32649  21714621.9404   21714625.8614
 98  1 28  1  7  0.0000000  0  7  2  4  7  9  8  5 24
  23249576.759    -8639801.79549  -6711063.67049  23249575.6944   23249580.0814
  20685003.933   -24974447.38049 -16625470.58749  20685004.1404   20685006.6754
  22274410.314   -18913325.50349 -10768834.04949  22274409.8574   22274413.2234
  21345483.968   -23288951.87849 -14339631.48649  21345483.6194   21345486.3784
  23277988.527   -11356043.46349  -8546270.25749  23277988.4644   23277992.0384
  23034741.433   -14021701.13349 -10915121.41149  23034740.5814   23034744.5044
  21698345.485   -19853927.85549 -15451997.07549  21698345.6384   21698349.4694
 98  1 28  1  7 30.0000000  0  7  2  4  7  9  8  5 24
  23262533.890    -8571711.26449  -6658006.12549  23262533.7734   23262537.1164
  20682861.741   -24985704.53149 -16634242.37249  20682862.0334   20682864.3584
  22286256.780   -18851072.01649 -10720324.81449  22286255.9764   22286259.3434
  21342433.786   -23304980.56649 -14352121.36349  21342433.4714   21342436.3854
  23260727.010   -11446752.96849  -8616952.95549  23260726.8644   23260729.2034
  23018862.756   -14105144.00449 -10980141.79449  23018862.4634   23018865.3224
  21682132.542   -19939127.56049 -15518386.42349  21682132.5324   21682136.2254
 98  1 28  1  8  0.0000000  0  7  2  4  7  9  8  5 24
  23275562.975    -8503242.90349  -6604654.14549  23275562.2744   23275567.3094
  20680858.850   -24996229.68449 -16642443.76949  20680859.0594   20680861.6084
  22298143.082   -18788609.16649 -10671652.45949  22298141.9384   22298145.9714
  21339511.675   -23320336.24249 -14364086.82549  21339511.5144   21339514.2384
  23243555.706   -11536988.70549  -8687266.48249  23243555.0824   23243558.4094
  23003016.142   -14188418.37249 -11045030.88449  23003015.9734   23003018.9684
  21666010.025   -20023852.09349 -15584405.51049  21666009.7844   21666013.9934
 98  1 28  1  8 30.0000000  0  7  2  4  7  9  8  5 24
  23288631.051    -8434569.42049  -6551142.34449  23288630.3474   23288634.7184
  20678961.124   -25006202.18649 -16650214.53249  20678961.2534   20678963.7874
  22310037.778   -18726102.05449 -10622945.61049  22310037.1634   22310040.6854
  21336689.069   -23335169.19049 -14375644.96749  21336688.7284   21336691.5834
  23226443.053   -11626916.33049  -8757339.92949  23226442.6884   23226445.6834
  22987173.101   -14271674.25149 -11109905.56249  22987172.9014   22987175.9514
  21649941.563   -20108292.44249 -15650203.15749  21649941.2384   21649945.0934
 98  1 28  1  9  0.0000000  0  7  2  4  7  9  8  5 24
  23301737.398    -8365695.26649  -6497474.16749  23301737.0634   23301741.1444
  20677164.156   -25015645.22949 -16657572.73349  20677164.4174   20677166.8204
  22321939.477   -18663558.47649 -10574210.34449  22321938.7734   22321942.3294
  21333968.683   -23349464.69749 -14386784.32449  21333968.6814   21333971.3854
  23209390.044   -11716530.50049  -8827169.12549  23209389.4144   23209391.9294
  22971336.921   -14354894.05749 -11174752.14049  22971336.6354   22971338.9994
  21633926.717   -20192451.04949 -15715781.25949  21633926.3844   21633930.8904
 98  1 28  1  9 30.0000000  0  7  2  4  7  9  8  5 24
  23314903.956    -8296504.73649  -6443559.47949  23314904.3684   23314908.1404
  20675489.259   -25024446.99749 -16664431.25049  20675489.4464   20675491.9604
  22333866.695   -18600880.61349 -10525370.46049  22333866.1664   22333869.0064
  21331372.357   -23363108.72949 -14397416.05049  21331372.4184   21331374.6714
  23192423.710   -11805688.64249  -8896642.96749  23192422.8704   23192425.9454
  22955527.354   -14437973.93549 -11239489.69049  22955527.2294   22955529.8134
  21617990.547   -20276195.78649 -15781036.86649  21617990.0774   21617994.1194
 98  1 28  1 10  0.0000000  0  7  2  4  7  9  8  5 24
  23328131.401    -8226994.50149  -6389395.67349  23328131.3914   23328135.6354
  20673937.210   -25032603.03649 -16670786.59249  20673937.3314   20673939.6574
  22345820.694   -18538062.24949 -10476421.08049  22345820.2414   22345822.8834
  21328899.131   -23376105.49449 -14407543.40449  21328898.7414   21328901.4944
  23175544.642   -11894388.67249  -8965759.84649  23175543.6254   23175547.3004
  22939742.267   -14520924.97549 -11304126.84649  22939742.0474   22939745.3794
  21602137.664   -20359503.12849 -15845951.64049  21602137.7114   21602141.6844
 98  1 28  1 10 30.0000000  0  7  2  4  7  9  8  5 24
  23341420.268    -8157161.25749  -6334980.13249  23341419.2424   23341423.3634
  20672509.351   -25040106.42349 -16676633.36649  20672509.4504   20672511.8274
  22357797.677   -18475122.82549 -10427377.35749  22357796.7694   22357800.3444
  21326549.991   -23388450.27349 -14417162.70449  21326549.8974   21326552.3344
  23158753.155   -11982628.77949  -9034518.35249  23158751.6504   23158755.0184
  22923982.756   -14603741.66449 -11368659.29849  22923982.0474   22923986.4194
  21586374.192   -20442340.53449 -15910500.21349  21586373.4854   21586377.9304
 98  1 28  1 11  0.0000000  0  7  2  4  7  9  8  5 24
  23354748.305    -8087122.19549  -6280404.21749  23354747.3254   23354751.2104
  20671183.299   -25047074.66649 -16682063.11249  20671183.2584   20671185.9204
  22369771.781   -18412198.41649 -10378345.30249  22369770.8704   22369774.0124
  21324298.318   -23400283.00349 -14426382.97349  21324298.0964   21324300.8924
  23142028.592   -12070516.65449  -9103002.33649  23142028.1174   23142031.4394
  22908223.831   -14686555.53449 -11433189.52649  22908223.5474   22908226.4134
  21570681.492   -20524805.90949 -15974758.85149  21570681.0584   21570685.2604
 98  1 28  1 11 30.0000000  0  7  2  4  7  9  8  5 24
  23368148.450    -8016703.92749  -6225532.86849  23368147.2384   23368151.8634
  20669994.367   -25053322.44849 -16686931.52649  20669994.5214   20669996.9344
  22381778.823   -18349101.04349 -10329178.53749  22381777.8884   22381781.4644
  21322175.636   -23411437.91349 -14435075.13849  21322175.5354   21322178.2244
  23125402.161   -12157889.06649  -9171084.73649  23125401.4484   23125405.1864
  22892496.598   -14769202.23749 -11497589.56349  22892495.7154   22892499.2084
  21555094.990   -20606712.73449 -16038582.32349  21555094.8484   21555098.7384
 98  1 28  1 12  0.0000000  0  7  2  4  7  9  8  5 24
  23381584.990    -7946094.59549  -6170512.60249  23381584.5664   23381588.2684
  20668908.236   -25059030.01749 -16691378.95649  20668908.3434   20668910.7484
  22393784.793   -18286009.19649 -10280016.04549  22393784.2164   22393786.9934
  21320146.482   -23422101.01449 -14443384.03949  21320146.3904   21320149.0854
  23108835.451   -12244947.63249  -9238922.54349  23108834.6774   23108838.5594
  22876771.129   -14851840.10849 -11561982.68249  22876770.4614   22876773.0574
  21539579.632   -20688246.24449 -16102114.85949  21539579.4794   21539583.4284
 98  1 28  1 12 30.0000000  0  7  2  4  7  9  8  5 24
  23395071.310    -7875223.27249  -6115288.19049  23395070.9394   23395074.3084
  20667937.975   -25064128.59549 -16695351.85849  20667938.1544   20667940.5144
  22405801.469   -18222860.91649 -10230809.58249  22405800.3174   22405803.8444
  21318223.635   -23432205.51549 -14451257.67849  21318223.2214   21318226.0494
  23092341.604   -12331623.45949  -9306462.11849  23092340.9654   23092343.7854
  22861062.238   -14934390.82649 -11626307.90649  22861061.4274   22861064.5924
  21524143.582   -20769363.04049 -16165322.70149  21524143.3764   21524147.2064
 98  1 28  1 13  0.0000000  0  7  2  4  7  9  8  5 24
  23408626.878    -7803987.94349  -6059780.14549  23408626.0554   23408630.9344
  20667101.562   -25068524.06249 -16698776.88249  20667101.8234   20667104.1234
  22417853.107   -18159528.62449 -10181459.73749  22417852.3344   22417855.7434
  21316424.937   -23441657.34249 -14458622.73949  21316424.6764   21316427.2354
  23075938.583   -12417821.54249  -9373629.43049  23075937.8814   23075941.4914
  22845387.626   -15016761.30049 -11690492.66649  22845386.8384   22845390.5884
  21508800.241   -20849993.03649 -16228151.21649  21508799.9684   21508803.7914
 98  1 28  1 13 30.0000000  0  7  2  4  7  9  8  5 24
  23422233.300    -7732485.73549  -6004064.13549  23422232.0464   23422236.9394
  20666381.162   -25072309.83249 -16701726.81149  20666381.4224   20666383.6284
  22429923.284   -18096099.18049 -10132034.18849  22429922.3984   22429925.8294
  21314733.191   -23450547.67649 -14465550.26949  21314733.2474   21314735.8234
  23059607.629   -12503641.28149  -9440501.91949  23059607.1064   23059609.1884
  22829729.851   -15099043.59649 -11754608.72549  22829729.6674   22829732.2124
  21493528.923   -20930244.04949 -16290684.41849  21493528.3904   21493532.5174
 98  1 28  1 14  0.0000000  0  7  2  4  7  9  8  5 24
  23435900.104    -7660665.66749  -5948100.44249  23435900.0644   23435903.7004
  20665783.869   -25075448.43349 -16704172.44849  20665784.0254   20665786.5904
  22442016.158   -18032550.58249 -10082515.78349  22442015.7264   22442019.0334
  21313155.243   -23458839.86849 -14472011.70849  21313155.0504   21313157.8994
  23043359.415   -12589025.60349  -9507035.11849  23043358.2654   23043362.2344
  22814097.505   -15181192.07549 -11818620.48849  22814097.0794   22814100.2714
  21478335.055   -21010088.08549 -16352900.49549  21478335.0884   21478339.0204
 98  1 28  1 14 30.0000000  0  7  2  4  7  9  8  5 24
  23449620.366    -7588564.93349  -5891918.05049  23449619.0474   23449624.2314
  20665301.388   -25077983.67049 -16706147.94249  20665301.5994   20665303.9634
  22454124.072   -17968923.25849 -10032936.04449  22454124.1334   22454126.6304
  21311682.547   -23466578.79149 -14478042.03849  21311682.1694   21311685.0564
  23027189.757   -12673997.54249  -9573247.00049  23027189.5584   23027192.3404
  22798476.988   -15263278.45349 -11882583.87549  22798476.3034   22798479.1884
  21463207.503   -21089584.06549 -16414845.36349  21463207.2914   21463211.1294
 98  1 28  1 15  0.0000000  0  7  2  4  7  9  8  5 24
  23463392.408    -7516191.60349  -5835523.24549  23463392.1724   23463395.4744
  20664934.543   -25079911.43849 -16707650.07549  20664934.6534   20664937.1634
  22466245.372   -17905225.66349  -9983301.53249  22466244.8924   22466248.5604
  21310315.718   -23473761.51649 -14483638.95849  21310315.4764   21310318.3534
  23011100.767   -12758545.92149  -9639128.83049  23011100.5674   23011103.1984
  22782868.903   -15345299.06449 -11946496.00849  22782868.2684   22782871.6994
  21448150.243   -21168710.40749 -16476502.20049  21448150.0054   21448153.7694
 98  1 28  1 15 30.0000000  0  7  2  4  7  9  8  5 24
  23477229.164    -7443479.40549  -5778864.39549  23477228.6434   23477233.0954
  20664697.942   -25081154.75749 -16708618.87149  20664698.0274   20664700.5604
  22478389.431   -17841407.91649  -9933573.39949  22478388.9154   22478392.4734
  21309068.577   -23480315.30849 -14488745.79949  21309068.1294   21309071.0744
  22995107.597   -12842589.97749  -9704617.67949  22995107.1194   22995109.8484
  22767288.723   -15427173.49249 -12010294.23049  22767288.8644   22767291.5424
  21433181.062   -21247373.76249 -16537798.26849  21433181.0384   21433184.3834
 98  1 28  1 16  0.0000000  0  7  2  4  7  9  8  5 24
  23491106.480    -7370553.94649  -5722039.34349  23491106.4254   23491109.5624
  20664568.526   -25081834.75649 -16709148.72149  20664568.5474   20664571.0094
  22490532.159   -17777596.98449  -9883850.58849  22490531.0794   22490535.0024
  21307918.615   -23486358.37649 -14493454.67949  21307918.6054   21307921.2434
  22979187.938   -12926248.08149  -9769805.78749  22979188.1994   22979190.9914
  22751713.648   -15509020.60249 -12074071.16149  22751712.7874   22751716.2604
  21418277.785   -21325690.82849 -16598824.50349  21418277.3354   21418281.2494
 98  1 28  1 16 30.0000000  0  7  2  4  7  9  8  5 24
  23505022.401    -7297425.27649  -5665055.97149  23505021.4424   23505026.0474
  20664548.036   -25081942.29249 -16709232.49449  20664548.0414   20664550.2654
  22502677.260   -17713773.74549  -9834118.17349  22502676.6014   22502680.0424
  21306870.218   -23491867.90749 -14497747.81449  21306870.1414   21306872.8754
  22963342.549   -13009516.14149  -9834689.96649  22963341.3804   22963345.1724
  22736146.164   -15590828.25449 -12137817.34349  22736146.0344   22736148.5204
  21403444.927   -21403637.74249 -16659562.30749  21403444.8034   21403448.5364
 98  1 28  1 17  0.0000000  0  7  2  4  7  9  8  5 24
  23518971.341    -7224122.95149  -5607937.27349  23518971.2954   23518975.1624
  20664632.541   -25081498.01849 -16708886.28949  20664632.6134   20664634.9964
  22514820.075   -17649962.54849  -9784395.15549  22514819.0954   22514822.7674
  21305921.343   -23496854.24949 -14501633.26949  21305921.2384   21305924.0044
  22947564.325   -13092430.67049  -9899298.67649  22947564.2624   22947566.9434
  22720586.026   -15672597.16349 -12201533.35249  22720585.6664   22720588.4674
  21388684.680   -21481203.53349 -16720003.13949  21388684.2824   21388688.1734
 98  1 28  1 17 30.0000000  0  7  2  4  7  9  8  5 24
  23532973.207    -7150543.28449  -5550602.46949  23532973.8514   23532976.8314
  20664838.596   -25080414.94049 -16708042.31849  20664838.6604   20664841.1304
  22526980.079   -17586061.29049  -9734601.95649  22526979.0674   22526983.1944
  21305088.706   -23501229.78049 -14505042.76849  21305088.4744   21305091.2684
  22931870.475   -13174902.92049  -9963562.75649  22931869.8874   22931873.1554
  22705050.565   -15754236.47849 -12265148.37649  22705049.7314   22705052.3254
  21374014.730   -21558294.29749 -16780073.82849  21374014.3884   21374018.3114
 98  1 28  1 18  0.0000000  0  7  2  4  7  9  8  5 24
  23547019.420    -7076729.58249  -5493085.29249  23547018.4684   23547023.5304
  20665155.494   -25078749.58449 -16706744.61449  20665155.4814   20665158.1084
  22539149.166   -17522112.29249  -9684771.54849  22539148.3924   22539152.4554
  21304365.529   -23505029.96649 -14508003.94349  21304365.2854   21304367.8314
  22916251.482   -13256981.63449 -10027520.16249  22916250.8804   22916253.6214
  22689530.656   -15835793.74849 -12328699.46049  22689530.1354   22689533.1294
  21359425.494   -21634960.79749 -16839813.91149  21359425.0784   21359428.6694
 98  1 28  1 18 30.0000000  0  7  2  4  7  9  8  5 24
  23561112.668    -7002669.72449  -5435376.30849  23561111.4424   23561115.4264
  20665584.589   -25076494.44249 -16704987.34149  20665584.7234   20665587.0364
  22551328.975   -17458107.01049  -9634897.28649  22551328.3904   22551331.5364
  21303754.640   -23508240.26249 -14510505.46549  21303754.4884   21303757.0844
  22900710.348   -13338650.55749 -10091158.26349  22900709.8184   22900712.7334
  22674029.335   -15917253.77749 -12392174.77349  22674028.7074   22674031.6944
  21344920.017   -21711187.16849 -16899211.04749  21344919.7104   21344923.4374
 98  1 28  1 19  0.0000000  0  7  2  4  7  9  8  5 24
  23575262.321    -6928312.66249  -5377435.73749  23575261.5864   23575266.9224
  20666133.185   -25073611.31049 -16702740.72049  20666133.1644   20666135.7164
  22563526.337   -17394009.11749  -9584950.86049  22563525.5664   22563528.2074
  21303259.762   -23510841.05249 -14512532.04449  21303259.5604   21303262.1414
  22885257.891   -13419853.57249 -10154433.31849  22885257.2264   22885260.8014
  22658552.552   -15998584.57549 -12455549.38949  22658552.1914   22658554.7704
  21330504.388   -21786941.67449 -16958240.49049  21330504.0394   21330507.9654
 98  1 28  1 19 30.0000000  0  7  2  4  7  9  8  5 24
  23589455.300    -6853727.58749  -5319317.48449  23589454.9904   23589459.1564
  20666785.571   -25070182.76949 -16700069.10949  20666785.6624   20666788.2004
  22575727.676   -17329890.54149  -9534988.31549  22575727.0594   22575730.7684
  21302865.921   -23512910.62249 -14514144.68949  21302865.7534   21302868.5384
  22869882.933   -13500649.13449 -10217390.87249  22869883.0594   22869885.9324
  22643085.646   -16079863.65449 -12518883.70549  22643085.4184   22643087.8944
  21316160.420   -21862319.49549 -17016976.42149  21316160.3794   21316164.0684
 98  1 28  1 20  0.0000000  0  7  2  4  7  9  8  5 24
  23603703.369    -6778853.53349  -5260974.08849  23603703.0464   23603706.9084
  20667555.112   -25066138.58549 -16696917.78049  20667555.3194   20667557.7314
  22587946.551   -17265680.06949  -9484954.17549  22587945.8804   22587949.5294
  21302587.373   -23514374.38849 -14515285.28349  21302587.0964   21302589.7604
  22854599.894   -13580962.29949 -10279972.53549  22854599.3704   22854602.8524
  22627640.593   -16161027.97949 -12582128.60749  22627640.1414   22627643.1044
  21301898.495   -21937266.30149 -17075376.49749  21301897.9934   21301901.9384
 98  1 28  1 20 30.0000000  0  7  2  4  7  9  8  5 24
  23618015.537    -6703642.99249  -5202368.45849  23618014.8994   23618019.4864
  20668451.774   -25061426.61749 -16693246.09349  20668451.8494   20668454.4414
  22600191.393   -17201333.16649  -9434813.70749  22600190.8134   22600194.0474
  21302428.771   -23515207.39349 -14515934.36749  21302428.0564   21302430.9494
  22839418.565   -13660740.34949 -10342137.23149  22839418.7194   22839421.3394
  22612225.512   -16242034.43149 -12645250.48949  22612224.9924   22612227.8704
  21287727.203   -22011736.61249 -17133405.27249  21287726.7734   21287730.9244
 98  1 28  1 21  0.0000000  0  7  2  4  7  9  8  5 24
  23632367.344    -6628223.53849  -5143600.03149  23632366.4434   23632370.6414
  20669449.474   -25056183.81749 -16689160.77549  20669449.6784   20669452.1124
  22612435.972   -17136987.36349  -9384674.11049  22612435.3274   22612438.5254
  21302362.944   -23515552.84549 -14516203.54549  21302362.5214   21302365.4704
  22824313.207   -13740119.79749 -10403991.32549  22824312.0884   22824316.2594
  22596814.468   -16323020.22849 -12708356.27949  22596813.8614   22596816.7544
  21273619.889   -22085870.71949 -17191172.07849  21273619.5304   21273623.4914
 98  1 28  1 21 30.0000000  0  7  2  4  7  9  8  5 24
  23646784.545    -6552460.11549  -5084563.59949  23646783.9124   23646787.6254
  20670573.038   -25050279.32649 -16684559.85749  20670573.1204   20670575.6884
  22624706.020   -17072507.90849  -9334430.36849  22624705.6224   22624708.3074
  21302418.138   -23515262.48149 -14515977.28849  21302417.7734   21302420.3214
  22809305.424   -13818985.70349 -10465445.25649  22809304.8374   22809307.6344
  22581434.210   -16403843.59149 -12771335.50249  22581433.5494   22581436.3864
  21259599.697   -22159547.21049 -17248582.30349  21259599.3464   21259603.2694
 98  1 28  1 22  0.0000000  0  7  2  4  7  9  8  5 24
  23661240.358    -6476494.15849  -5025369.34249  23661239.9644   23661244.6244
  20671798.982   -25043836.78649 -16679539.67349  20671799.0614   20671801.5204
  22636975.925   -17008028.56749  -9284186.71749  22636975.7384   22636978.7954
  21302570.307   -23514462.90849 -14515354.23649  21302570.2474   21302572.9304
  22794370.765   -13897467.56749 -10526599.92649  22794370.8854   22794373.6614
  22566059.989   -16484635.57449 -12834290.26049  22566059.5324   22566061.9854
  21245643.475   -22232887.69249 -17305730.70549  21245643.1674   21245647.1274
 98  1 28  1 22 30.0000000  0  7  2  4  7  9  8  5 24
  23675750.292    -6400244.18149  -4965953.80449  23675750.1594   23675753.8424
  20673144.522   -25036765.91849 -16674029.89449  20673144.6504   20673146.9724
  22649264.283   -16943452.80849  -9233867.93549  22649263.5114   22649267.0824
  21302836.827   -23513062.25349 -14514262.81849  21302836.8234   21302839.6254
  22779527.551   -13975469.19149 -10587380.39549  22779527.3514   22779529.5584
  22550712.260   -16565288.09849 -12897136.36849  22550711.7174   22550715.0744
  21231773.484   -22305774.96249 -17362525.95549  21231773.2394   21231776.9464
 98  1 28  1 23  0.0000000  0  7  2  4  7  9  8  5 24
  23690307.504    -6323745.75349  -4906344.59949  23690306.1024   23690311.0854
  20674605.033   -25029090.84549 -16668049.26449  20674605.0594   20674607.6434
  22661566.592   -16878803.49549  -9183491.80249  22661565.7944   22661569.2244
  21303213.695   -23511081.93549 -14512719.67349  21303213.4824   21303216.5664
  22764770.005   -14053020.90749 -10647810.24949  22764768.9584   22764772.3404
  22535386.604   -16645824.75449 -12959892.14349  22535385.9374   22535389.1414
  21217985.213   -22378232.53349 -17418986.33549  21217984.8854   21217989.0444
 98  1 28  1 23 30.0000000  0  7  2  4  7  9  8  5 24
  23704917.127    -6246971.10949  -4846520.21949  23704916.7884   23704921.3714
  20676189.492   -25020764.24149 -16661561.00449  20676189.5824   20676191.9314
  22673892.757   -16814029.27649  -9133018.39449  22673892.0314   22673895.8654
  21303708.357   -23508482.57849 -14510694.22049  21303708.2304   21303710.9894
  22750106.721   -14130076.65049 -10707853.68049  22750106.1394   22750109.5634
  22520091.090   -16726202.77749 -13022524.36549  22520090.3164   22520093.1764
  21204291.086   -22450195.51249 -17475061.38149  21204290.9354   21204294.8654
 98  1 28  1 24  0.0000000  0  7  2  4  7  9  8  5 24
  23719557.392    -6170036.21049  -4786570.97549  23719556.9424   23719561.4924
  20677879.426   -25011883.47749 -16654640.90949  20677879.6324   20677881.9374
  22686219.636   -16749250.96249  -9082541.77549  22686219.7074   22686221.7114
  21304298.816   -23505379.97649 -14508276.60649  21304298.9414   21304301.5234
  22735522.113   -14206718.98749 -10767574.94749  22735521.9864   22735524.6834
  22504807.711   -16806517.49449 -13085107.23649  22504806.9864   22504810.2344
  21190676.507   -22521740.69849 -17530810.85149  21190676.5504   21190680.3254
 98  1 28  1 24 30.0000000  0  7  2  4  7  9  8  5 24
  23734235.024    -6092904.46549  -4726468.30249  23734233.9124   23734237.9414
  20679677.069   -25002436.87849 -16647279.90449  20679677.4574   20679679.5814
  22698547.443   -16684468.02949  -9032061.54949  22698547.0534   22698549.8964
  21304984.750   -23501775.17949 -14505467.67249  21304984.4464   21304987.0204
  22721018.305   -14282937.01149 -10826965.59549  22721017.6974   22721020.9924
  22489540.131   -16886748.99749 -13147625.26849  22489539.6364   22489543.0604
  21177143.912   -22592854.91849 -17586224.50549  21177143.8284   21177147.4624
 98  1 28  1 25  0.0000000  0  7  2  4  7  9  8  5 24
  23748955.163    -6015549.70049  -4666191.86949  23748955.3104   23748958.8454
  20681583.705   -24992417.49549 -16639472.57049  20681583.6284   20681586.2144
  22710873.726   -16619693.14949  -8981587.61049  22710873.1704   22710876.3804
  21305767.646   -23497661.12549 -14502261.91249  21305767.6244   21305770.4604
  22706596.260   -14358725.29749 -10886021.36649  22706595.7314   22706599.0184
  22474288.247   -16966897.80249 -13210078.85749  22474287.4554   22474290.6104
  21163691.165   -22663549.35949 -17641311.06049  21163690.8824   21163694.5314
 98  1 28  1 25 30.0000000  0  7  2  4  7  9  8  5 24
  23763718.941    -5937965.48149  -4605736.63749  23763718.6504   23763722.8644
  20683598.397   -24981830.18249 -16631222.69549  20683598.2934   20683600.9654
  22723197.346   -16554931.71349  -8931124.13049  22723196.7684   22723199.3364
  21306650.892   -23493019.64149 -14498645.16649  21306650.4834   21306653.5554
  22692257.107   -14434077.71149 -10944737.50449  22692256.5384   22692259.6634
  22459052.739   -17046960.46049 -13272465.31849  22459052.1824   22459055.4354
  21150317.422   -22733828.80449 -17696074.23649  21150317.1104   21150321.0724
 98  1 28  1 26  0.0000000  0  7  2  4  7  9  8  5 24
  23778541.194    -5860073.96749  -4545041.95749  23778540.6294   23778545.4114
  20685732.026   -24970617.74949 -16622485.72449  20685732.1564   20685734.5504
  22735530.303   -16490121.70149  -8880622.81849  22735529.7504   22735532.1544
  21307648.837   -23487775.29749 -14494558.67549  21307648.4324   21307651.1634
  22678013.497   -14508928.38249 -11003062.67549  22678012.8284   22678016.4304
  22443846.362   -17126870.34749 -13334732.74649  22443846.1094   22443849.1044
  21137031.925   -22803644.25149 -17750475.86749  21137031.7774   21137035.3734
 98  1 28  1 26 30.0000000  0  7  2  4  7  9  8  5 24
  23793405.201    -5781963.18649  -4484176.42449  23793404.3994   23793409.0534
  20687964.754   -24958884.58849 -16613342.98149  20687964.9804   20687967.2694
  22747860.689   -16425324.54449  -8830131.51349  22747859.7344   22747863.7004
  21308745.441   -23482012.39349 -14490068.09949  21308745.0434   21308748.1764
  22663846.761   -14583374.96849 -11061072.98049  22663846.1664   22663849.3474
  22428649.461   -17206730.69449 -13396961.56749  22428648.6104   22428652.5804
  21123818.152   -22873083.02249 -17804583.97349  21123818.1254   21123821.8914
 98  1 28  1 27  0.0000000  0  7  2  4  7  9  8  5 24
  23808307.000    -5703654.09949  -4423156.35849  23808306.9324   23808311.6594
  20690296.333   -24946632.06249 -16603795.54349  20690296.2564   20690298.7984
  22760193.377   -16360516.21049  -8779631.51149  22760192.8064   22760196.0094
  21309944.296   -23475712.27549 -14485158.91949  21309944.1834   21309946.7364
  22649759.440   -14657404.30049 -11118758.14249  22649758.6484   22649761.5354
  22413462.439   -17286539.25649 -13459150.03449  22413461.9334   22413465.0154
  21110680.001   -22942124.66149 -17858382.62849  21110679.6614   21110683.2684
 98  1 28  1 27 30.0000000  0  7  2  4  7  9  8  5 24
  23823261.967    -5625065.59149  -4361918.54449  23823261.3294   23823265.3864
  20692742.516   -24933777.04349 -16593778.62549  20692742.5924   20692744.9994
  22772546.962   -16295597.43049  -8729045.44249  22772546.1144   22772549.6574
  21311262.387   -23468785.84149 -14479761.69549  21311262.1004   21311264.6864
  22635769.438   -14730921.79249 -11176044.46949  22635768.5934   22635771.6684
  22398302.372   -17366205.74149 -13521227.79849  22398301.6084   22398304.5324
  21097638.557   -23010657.95949 -17911785.17549  21097638.1794   21097642.1104
 98  1 28  1 28  0.0000000  0  7  2  4  7  9  8  5 24
  23838254.182    -5546281.82849  -4300528.58249  23838253.3514   23838257.5384
  20695287.548   -24920402.84849 -16583357.16149  20695287.7704   20695290.1144
  22784907.656   -16230641.53849  -8678430.45449  22784907.1274   22784910.1874
  21312681.334   -23461329.05749 -14473951.21849  21312680.8984   21312683.9184
  22621863.717   -14803996.61849 -11232985.86449  22621863.2604   22621866.2764
  22383156.762   -17445796.66349 -13583246.67949  22383156.4234   22383159.1534
  21084683.826   -23078735.48849 -17964832.57749  21084683.6374   21084687.3024
 98  1 28  1 28 30.0000000  0  8  2  4  7  9  8  5 24 16
  23853279.913    -5467321.14949  -4239000.81749  23853278.6494   23853282.5624
  20697930.482   -24906514.19649 -16572534.81849  20697930.5314   20697932.8184
  22797270.558   -16165674.02349  -8627806.41849  22797269.0394   22797273.0134
  21314197.249   -23453362.80749 -14467743.75149  21314197.2484   21314200.0184
  22608040.146   -14876640.04349 -11289591.10349  22608039.9804   22608042.4154
  22368023.516   -17525322.40749 -13645214.77349  22368022.8104   22368025.4384
  21071814.167   -23146365.79349 -18017531.48849  21071814.0574   21071817.9034
  24748546.467    -4874607.36649  -3786945.88149  24748544.5794   24748550.3134
 98  1 28  1 29  0.0000000  0  8  2  4  7  9  8  5 24 16
  23868375.089    -5387994.88149  -4177188.11749  23868375.6274   23868377.9424
  20700709.251   -24891911.40349 -16561156.00249  20700709.5174   20700711.6474
  22809665.377   -16100538.49349  -8577051.44449  22809664.1384   22809667.6004
  21315845.482   -23444701.41649 -14460994.62449  21315845.4774   21315848.5584
  22594333.784   -14948667.29349 -11345716.20549  22594333.4984   22594336.7004
  22352938.834   -17604593.00549 -13706984.04949  22352938.4234   22352941.3834
  21059059.673   -23213391.00649 -18069758.90749  21059059.4474   21059063.2214
  24746278.797    -4886524.22849  -3796231.71949  24746278.2684   24746282.5554
 98  1 28  1 29 30.0000000  0  8  2  4  7  9  8  5 24 16
  23883508.263    -5308470.66449  -4115221.18249  23883507.0224   23883510.6744
  20703590.826   -24876768.65949 -16549356.44149  20703590.9124   20703593.3644
  22822057.116   -16035419.32349  -8526309.23349  22822056.4794   22822059.6344
  21317592.404   -23435521.23649 -14453841.23749  21317592.1584   21317595.2354
  22580711.738   -15020251.62449 -11401496.18249  22580711.9184   22580713.5214
  22337869.263   -17683784.17249 -13768691.43249  22337868.5154   22337871.6814
  21046382.583   -23280009.39349 -18121669.30649  21046382.1834   21046385.8934
  24744093.673    -4898006.11549  -3805178.58949  24744091.6424   24744098.1074
 98  1 28  1 30  0.0000000  0  8  2  4  7  9  8  5 24 16
  23898694.913    -5228664.25349  -4053034.33449  23898693.2494   23898697.6194
  20706594.721   -24860983.00849 -16537055.91149  20706594.8934   20706597.3004
  22834462.621   -15970227.72149  -8475510.56749  22834461.5914   22834465.7564
  21319455.316   -23425731.72349 -14446213.04849  21319455.0084   21319457.9834
  22567191.061   -15091303.21549 -11456861.02149  22567190.3194   22567192.9394
  22322833.496   -17762797.48849 -13830260.22449  22322833.0544   22322835.7754
  21033797.124   -23346145.97349 -18173204.27349  21033796.8354   21033800.6744
  24742009.201    -4908958.79649  -3813713.07949  24742009.0444   24742012.8284
 98  1 28  1 30 30.0000000  0  8  2  4  7  9  8  5 24 16
  23913921.533    -5148647.39949  -3990683.52449  23913920.8774   23913924.5264
  20709706.117   -24844632.41549 -16524315.16949  20709706.2294   20709708.6454
  22846865.611   -15905049.75949  -8424722.53749  22846865.1444   22846868.6094
  21321420.360   -23415405.32149 -14438166.50149  21321420.1484   21321423.0624
  22553755.086   -15161909.43549 -11511878.83949  22553754.7604   22553757.6034
  22307815.285   -17841718.66549 -13891757.22049  22307814.9514   22307817.8254
  21021284.784   -23411898.46849 -18224439.95749  21021284.5784   21021288.3374
  24740012.460    -4919452.12449  -3821889.65149  24740013.4754   24740016.3604
 98  1 28  1 31  0.0000000  0  8  2  4  7  9  8  5 24 16
  23929193.540    -5068392.17749  -3928147.02349  23929192.9644   23929197.9134
  20712926.346   -24827709.77749 -16511128.67749  20712926.5694   20712928.6734
  22859272.135   -15839853.42049  -8373920.18849  22859270.9464   22859274.5544
  21323493.276   -23404512.05649 -14429678.24749  21323493.0634   21323496.0244
  22540410.940   -15232033.40649 -11566520.87149  22540410.6684   22540413.4784
  22292819.920   -17920519.61949 -13953160.53449  22292819.3624   22292822.1124
  21008852.045   -23477233.02749 -18275349.97549  21008851.7654   21008855.6194
  24738111.459    -4929442.94249  -3829674.68549  24738110.9324   24738115.5264
 98  1 28  1 31 30.0000000  0  8  2  4  7  9  8  5 24 16
  23944502.681    -4987941.98449  -3865458.51649  23944500.5474   23944505.7794
  20716244.588   -24810272.29449 -16497541.00149  20716244.6124   20716246.9344
  22871675.597   -15774672.70049  -8323130.01349  22871675.0394   22871677.6484
  21325663.427   -23393107.76649 -14420791.78449  21325663.0814   21325666.1454
  22527152.444   -15301707.55449 -11620812.38449  22527151.8974   22527155.0304
  22277840.097   -17999238.87949 -14014500.18949  22277839.1834   22277842.3524
  20996495.089   -23542169.22349 -18325949.57149  20996494.7694   20996498.6734
  24736297.277    -4938975.87049  -3837102.89449  24736296.3484   24736301.3914
 98  1 28  1 32  0.0000000  0  8  2  4  7  9  8  5 24 16
  23959866.709    -4907203.30149  -3802545.25249  23959867.0694   23959870.0474
  20719678.755   -24792225.47249 -16483478.52749  20719679.0054   20719681.1064
  22884093.170   -15709418.03649  -8272282.21449  22884092.4724   22884096.0084
  21327945.653   -23381114.61149 -14411446.47849  21327945.4314   21327948.4834
  22513997.924   -15370835.08349 -11674677.98249  22513997.0044   22513999.8774
  22262894.958   -18077776.25649 -14075698.12749  22262894.1094   22262897.2024
  20984235.177   -23606595.36749 -18376151.73449  20984234.7874   20984238.4494
  24734587.126    -4947962.52749  -3844105.43249  24734586.7824   24734591.0464
 98  1 28  1 32 30.0000000  0  8  2  4  7  9  8  5 24 16
  23975268.615    -4826265.21049  -3739476.61049  23975267.7084   23975272.0524
  20723208.419   -24773677.02449 -16469025.16449  20723208.4914   20723210.8884
  22896507.814   -15644178.22849  -8221445.99349  22896507.0284   22896510.5134
  21330320.964   -23368632.13649 -14401719.87249  21330320.9264   21330323.7464
  22500931.092   -15439501.31449 -11728184.11149  22500930.9104   22500933.3704
  22247964.175   -18156238.00449 -14136837.11549  22247963.5154   22247966.3384
  20972055.499   -23670599.85849 -18426025.32449  20972055.2084   20972059.0174
  24732961.006    -4956508.34249  -3850764.49549  24732960.8284   24732965.1604
 98  1 28  1 33  0.0000000  0  8  2  4  7  9  8  5 24 16
  23990723.489    -4745048.78249  -3676191.09549  23990723.2684   23990727.0334
  20726852.051   -24754529.35249 -16454104.88049  20726852.2294   20726854.4074
  22908939.863   -15578847.19749  -8170538.70049  22908939.0024   22908942.4504
  21332807.945   -23355563.26249 -14391536.33749  21332807.8544   21332810.7064
  22487972.784   -15507596.84849 -11781245.54949  22487972.3214   22487975.4564
  22233065.280   -18234532.22749 -14197845.57649  22233064.8204   22233067.7084
  20959973.662   -23734090.05449 -18475498.17749  20959973.3624   20959977.1704
  24731434.421    -4964530.56249  -3857015.54749  24731434.2244   24731437.6574
 98  1 28  1 33 30.0000000  0  8  2  4  7  9  8  5 24 16
  24006223.708    -4663595.01449  -3612720.63249  24006223.3474   24006226.6104
  20730606.879   -24734797.42049 -16438729.33249  20730607.0394   20730609.2554
  22921384.950   -15513448.21449  -8119578.44949  22921384.4064   22921387.3484
  21335400.524   -23341939.24949 -14380920.23049  21335400.3104   21335403.1694
  22475114.781   -15575165.82549 -11833896.69149  22475114.8524   22475117.0474
  22218193.149   -18312685.56349 -14258744.26049  22218192.4754   22218195.3734
  20947982.547   -23797103.58049 -18524599.59749  20947982.4144   20947986.0734
  24730000.674    -4972064.78749  -3862886.33749  24730000.6774   24730003.6634
 98  1 28  1 34  0.0000000  0  8  2  4  7  9  8  5 24 16
  24021772.876    -4581882.76449  -3549048.76649  24021771.6044   24021776.3094
  20734477.612   -24714456.42049 -16422879.18049  20734477.8404   20734480.1794
  22933848.568   -15447951.53049  -8068542.06549  22933848.5174   22933850.8334
  21338106.282   -23327720.34049 -14369840.55849  21338106.0874   21338109.0674
  22462360.172   -15642191.50749 -11886124.47049  22462358.9824   22462363.3474
  22203352.989   -18390671.00149 -14319512.09949  22203352.6294   22203355.5514
  20936087.924   -23859610.13349 -18573305.96749  20936087.7884   20936091.5194
  24728666.855    -4979074.49549  -3868348.45349  24728665.8214   24728667.5674
 98  1 28  1 34 30.0000000  0  8  2  4  7  9  8  5 24 16
  24037357.450    -4499984.48249  -3485231.92149  24037357.4244   24037361.5074
  20738451.577   -24693573.17149 -16406606.49849  20738451.7394   20738454.1034
  22946319.238   -15382417.52749  -8017476.59949  22946318.3244   22946322.1714
  21340915.806   -23312956.07849 -14358335.94449  21340915.7114   21340918.4294
  22449694.948   -15708747.85349 -11937986.54549  22449694.7304   22449697.5444
  22188531.862   -18468556.50649 -14380202.07349  22188531.0104   22188534.2974
  20924276.441   -23921679.92849 -18621672.00949  20924276.3254   20924279.7694
  24727418.372    -4985632.50549  -3873458.53649  24727415.8964   24727421.9494
 98  1 28  1 35  0.0000000  0  8  2  4  7  9  8  5 24 16
  24052986.237    -4417855.33549  -3421235.14649  24052985.7844   24052989.8164
  20742539.411   -24672091.19749 -16389867.28149  20742539.4394   20742541.6284
  22958805.201   -15316803.36149  -7966348.67849  22958804.1714   22958807.5294
  21343838.387   -23297597.95649 -14346368.58149  21343838.1784   21343840.8834
  22437125.619   -15774800.36549 -11989456.03049  22437125.1214   22437127.5434
  22173742.547   -18546274.72649 -14440761.69649  22173741.8284   22173744.8494
  20912558.139   -23983259.74949 -18669656.25849  20912557.8274   20912561.3394
  24726268.875    -4991671.08849  -3878163.84049  24726268.6504   24726272.9024
 98  1 28  1 35 30.0000000  0  8  2  4  7  9  8  5 24 16
  24068651.027    -4335536.32249  -3357090.51049  24068650.7504   24068655.3744
  20746730.854   -24650064.79749 -16372703.83049  20746731.0174   20746733.3074
  22971293.632   -15251176.21949  -7915210.64049  22971292.7754   22971296.4144
  21346861.581   -23281710.88849 -14333989.04949  21346861.4054   21346864.0924
  22424641.258   -15840405.95949 -12040577.25049  22424640.8644   22424643.7304
  22158977.257   -18623866.25949 -14501222.60249  22158976.6904   22158979.8344
  20900925.131   -24044391.36349 -18717291.24749  20900925.0714   20900928.4004
  24725211.854    -4997227.12449  -3882493.22649  24725211.6724   24725215.6904
 98  1 28  1 36  0.0000000  0  8  2  4  7  9  8  5 24 16
  24084355.742    -4253007.71749  -3292782.50449  24084355.3184   24084359.3264
  20751027.055   -24627487.84449 -16355111.39249  20751027.1934   20751029.2964
  22983785.348   -15185531.70949  -7864059.07849  22983784.7674   22983787.8244
  21349987.421   -23265284.53649 -14321189.30649  21349987.1314   21349989.7934
  22412247.598   -15905535.11649 -12091327.24249  22412247.4744   22412250.0804
  22144238.555   -18701318.47549 -14561574.95949  22144238.0834   22144240.9374
  20889378.745   -24105067.99749 -18764571.72049  20889378.5644   20889382.3314
  24724247.931    -5002291.41749  -3886439.39749  24724246.9104   24724252.2244
 98  1 28  1 36 30.0000000  0  8  2  4  7  9  8  5 24 16
  24100102.758    -4170257.12049  -3228301.51049  24100102.6064   24100105.7834
  20755431.208   -24604343.86849 -16337077.10749  20755431.2944   20755433.5564
  22996281.359   -15119864.45049  -7812889.78849  22996280.4164   22996284.1344
  21353216.839   -23248313.78749 -14307965.34649  21353216.4664   21353219.3844
  22399947.733   -15970171.37949 -12141693.14849  22399946.6604   22399950.2984
  22129529.937   -18778612.59649 -14621804.11749  22129529.4564   22129532.3414
  20877917.948   -24165294.83849 -18811501.69249  20877917.5584   20877921.2334
  24723377.934    -5006863.94149  -3890002.35949  24723378.7714   24723383.0154
 98  1 28  1 37  0.0000000  0  8  2  4  7  9  8  5 24 16
  24115903.208    -4087225.82849  -3163601.78349  24115903.7974   24115906.6174
  20759953.096   -24580581.03649 -16318560.59149  20759953.3034   20759955.6534
  23008791.421   -15054124.05649  -7761663.50449  23008790.5464   23008794.7774
  21356559.243   -23230749.42249 -14294278.82349  21356559.2724   21356561.9494
  22387754.495   -16034247.19349 -12191622.32649  22387754.1004   22387756.9764
  22114862.977   -18855688.02849 -14681862.87049  22114862.3794   22114865.3854
  20866554.391   -24225010.80149 -18858033.57349  20866554.1354   20866557.7514
  24722612.820    -5010886.14549  -3893136.51849  24722612.1124   24722616.0084
 98  1 28  1 37 30.0000000  0  8  2  4  7  9  8  5 24 16
  24131726.845    -4004070.94849  -3098805.78549  24131725.5244   24131731.0424
  20764559.382   -24556374.96549 -16299698.70149  20764559.7044   20764561.8374
  23021283.845   -14988475.94049  -7710509.12049  23021283.5574   23021286.1384
  21359983.547   -23212754.71949 -14280256.97749  21359983.4114   21359986.2064
  22375640.634   -16097906.27349 -12241226.79249  22375639.9374   22375642.9174
  22100204.531   -18932718.57949 -14741886.64749  22100204.1174   22100206.9324
  20855258.311   -24284371.97749 -18904289.00249  20855258.0754   20855261.6744
  24721915.978    -5014547.28149  -3895989.30649  24721915.8444   24721919.6424
 98  1 28  1 38  0.0000000  0  8  2  4  7  9  8  5 24 16
  24147590.426    -3920707.61749  -3033847.34749  24147589.9714   24147593.7284
  20769264.302   -24531650.44949 -16280432.83049  20769264.4674   20769266.8744
  23033775.197   -14922833.36049  -7659359.06049  23033774.2904   23033777.6444
  21363507.298   -23194237.21449 -14265827.75449  21363506.7824   21363509.8004
  22363619.997   -16161074.94849 -12290449.12849  22363619.2194   22363622.2584
  22085569.073   -19009628.50949 -14801816.43549  22085568.7294   22085571.2384
  20844048.940   -24343277.53649 -18950189.40949  20844048.8054   20844052.0904
  24721301.755    -5017777.19549  -3898506.14449  24721303.4584   24721305.6364
 98  1 28  1 38 30.0000000  0  8  2  4  7  9  8  5 24 16
  24163505.152    -3837075.38049  -2968679.36249  24163504.4244   24163508.8164
  20774080.458   -24506341.43249 -16260711.49649  20774080.5434   20774082.9124
  23046276.719   -14857137.26149  -7608167.28249  23046275.7854   23046280.0684
  21367141.580   -23175138.58749 -14250945.70049  21367141.2564   21367143.9834
  22351704.546   -16223691.10349 -12339240.91249  22351703.7874   22351707.2604
  22070967.296   -19086361.35049 -14861608.23049  22070966.4984   22070969.1164
  20832942.899   -24401640.12249 -18995666.71049  20832942.6644   20832946.0384
  24720782.938    -5020505.07049  -3900631.71849  24720781.0094   24720786.3844
 98  1 28  1 39  0.0000000  0  8  2  4  7  9  8  5 24 16
  24179474.000    -3753158.66849  -2903289.68249  24179473.6794   24179478.5034
  20779007.796   -24480447.90749 -16240534.70949  20779007.9024   20779010.1704
  23058787.750   -14791391.34449  -7556936.70749  23058786.7844   23058789.3314
  21370885.621   -23155463.39449 -14235614.38049  21370885.1844   21370888.2004
  22339896.385   -16285743.10549 -12387593.10949  22339895.7424   22339898.3684
  22056398.773   -19162919.26649 -14921263.71949  22056398.0834   22056401.1254
  20821943.693   -24459441.03249 -19040706.34849  20821943.4584   20821946.8254
  24720360.855    -5022720.12149  -3902357.62449  24720359.2614   24720364.9264
 98  1 28  1 39 30.0000000  0  8  2  4  7  9  8  5 24 16
  24195494.448    -3668970.05049  -2837688.21349  24195493.6284   24195498.4654
  20784043.062   -24453987.53849 -16219916.23149  20784043.2464   20784045.2814
  23071304.621   -14725614.78549  -7505682.24149  23071303.9294   23071306.7864
  21374734.195   -23135238.88349 -14219855.02749  21374734.0104   21374736.5524
  22328192.684   -16347246.23849 -12435517.61349  22328192.6544   22328195.0114
  22041858.324   -19239329.69749 -14980804.29549  22041857.5204   22041860.6244
  20811046.579   -24516705.59849 -19085328.06049  20811046.5124   20811050.0004
  24720037.519    -5024420.75649  -3903682.82249  24720038.2444   24720040.2024
 98  1 28  1 40  0.0000000  0  8  2  4  7  9  8  5 24 16
  24211554.420    -3584573.97949  -2771925.01649  24211554.2604   24211557.9554
  20789178.772   -24426999.03849 -16198886.21349  20789178.8414   20789180.9934
  23083816.398   -14659864.93649  -7454448.59149  23083816.2474   23083818.3904
  21378675.061   -23114529.51049 -14203717.84549  21378674.6324   21378677.6624
  22316582.818   -16408256.70749 -12483058.21449  22316582.5014   22316584.8454
  22027335.829   -19315645.69649 -15040271.27649  22027335.0934   22027338.3804
  20800237.353   -24573508.31049 -19129589.87449  20800237.0764   20800240.6464
  24719804.462    -5025646.00349  -3904637.56149  24719803.6264   24719807.6954
 98  1 28  1 40 30.0000000  0  8  2  4  7  9  8  5 24 16
  24227655.322    -3499963.07049  -2705994.44249  24227654.5844   24227658.8264
  20794419.647   -24399457.82149 -16177425.51449  20794419.7834   20794422.1534
  23096328.508   -14594113.34649  -7403213.58349  23096327.2154   23096330.3664
  21382709.698   -23093327.59149 -14187196.87449  21382709.5984   21382712.4894
  22305071.471   -16468749.02949 -12530195.08149  22305071.0714   22305073.8524
  22012837.107   -19391836.97049 -15099641.08349  22012836.6204   22012839.2444
  20789513.348   -24629863.24349 -19173502.78449  20789513.1704   20789516.5544
  24719665.775    -5026374.88649  -3905205.42849  24719666.0514   24719670.0664
 98  1 28  1 41  0.0000000  0  8  2  4  7  9  8  5 24 16
  24243795.938    -3415143.61549  -2639901.34649  24243792.3224   24243799.0334
  20799762.606   -24371380.29149 -16155546.90749  20799762.7444   20799764.9914
  23108841.281   -14528357.93549  -7351975.59949  23108840.9124   23108843.8934
  21386836.672   -23071640.37049 -14170297.74249  21386836.3314   21386839.2204
  22293656.872   -16528733.31449 -12576936.06049  22293656.2934   22293659.0204
  21998362.539   -19467901.14149 -15158911.84249  21998361.8914   21998364.8624
  20778870.310   -24685792.70349 -19217084.15249  20778870.0584   20778873.5774
  24719620.191    -5026614.77249  -3905392.36949  24719619.0744   24719623.0494
 98  1 28  1 41 30.0000000  0  8  2  4  7  9  8  5 24 16
  24259967.344    -3330162.36349  -2573682.20949  24259967.0544   24259971.1814
  20805202.691   -24342792.30849 -16133270.54449  20805202.8984   20805205.2024
  23121354.306   -14462601.79049  -7300737.04849  23121352.9304   23121356.6934
  21391052.890   -23049483.89249 -14153032.95449  21391052.8824   21391055.6164
  22282336.211   -16588223.85749 -12623292.31149  22282336.1604   22282338.6884
  21983907.909   -19543860.64949 -15218101.05049  21983907.2784   21983910.2154
  20768305.121   -24741312.93349 -19260346.63949  20768304.8324   20768308.4754
  24719660.910    -5026398.45649  -3905223.74649  24719659.6664   24719665.2754
 98  1 28  1 42  0.0000000  0  8  2  4  7  9  8  5 24 16
  24276181.543    -3244956.38249  -2507287.95349  24276180.4604   24276184.5204
  20810752.138   -24313629.71849 -16110546.43449  20810752.4164   20810754.4974
  23133883.348   -14396760.92049  -7249432.48249  23133882.8464   23133886.3784
  21395375.744   -23026767.04849 -14135331.51949  21395375.1404   21395378.2214
  22271121.360   -16647158.06049 -12669215.05549  22271121.1344   22271123.7544
  21969491.300   -19619620.21849 -15277134.45949  21969490.7984   21969493.8594
  20757834.546   -24796336.09549 -19303221.79949  20757834.3104   20757838.0314
  24719799.405    -5025670.27349  -3904656.30849  24719798.7694   24719802.9794
 98  1 28  1 42 30.0000000  0  8  2  4  7  9  8  5 24 16
  24292433.951    -3159549.74849  -2440737.31749  24292434.7874   24292438.1214
  20816400.929   -24283945.03249 -16087415.49549  20816401.1654   20816403.3744
  23146423.628   -14330861.17149  -7198082.01949  23146423.0154   23146425.8184
  21399803.213   -23003500.20549 -14117201.51149  21399803.1654   21399805.8174
  22260009.288   -16705552.48749 -12714717.18649  22260009.1764   22260012.2214
  21955110.635   -19695191.36749 -15336021.04949  21955110.3534   21955112.9434
  20747458.259   -24850863.71649 -19345710.82849  20747458.0144   20747461.4394
  24720031.751    -5024449.08849  -3903704.71449  24720031.9784   24720034.8904
 98  1 28  1 43  0.0000000  0  8  2  4  7  9  8  5 24 16
  24308713.519    -3074000.30449  -2374075.42849  24308712.8884   24308716.8634
  20822134.484   -24253815.07549 -16063937.59649  20822134.7564   20822137.0384
  23158960.775   -14264977.84549  -7146744.36349  23158960.3354   23158964.0484
  21404325.637   -22979734.83449 -14098683.03749  21404325.3844   21404328.2554
  22248991.915   -16763449.00049 -12759831.32549  22248991.5644   22248994.1614
  21940752.826   -19770642.02149 -15394813.74449  21940751.8844   21940755.1194
  20737170.233   -24904927.61349 -19387838.50849  20737170.0064   20737173.6174
  24720347.415    -5022790.71449  -3902412.46449  24720346.9404   24720349.8314
 98  1 28  1 43 30.0000000  0  8  2  4  7  9  8  5 24 16
  24325017.658    -2988321.45149  -2307312.69549  24325016.6814   24325020.4354
  20827950.978   -24223249.20549 -16040120.02049  20827951.0894   20827953.4254
  23171490.347   -14199134.45249  -7095437.83649  23171489.8914   23171493.6414
  21408942.818   -22955471.06749 -14079776.20549  21408942.3384   21408945.2674
  22238066.263   -16820863.97349 -12804570.24349  22238065.6874   22238068.4514
  21926416.040   -19845982.07549 -15453520.25949  21926415.8384   21926418.0904
  20726968.512   -24958537.59549 -19429612.49149  20726968.1894   20726971.5474
  24720744.769    -5020702.46949  -3900785.21849  24720743.8354   24720747.6654
 98  1 28  1 44  0.0000000  0  8  2  4  7  9  8  5 24 16
  24341352.292    -2902482.55949  -2240425.22949  24341351.5634   24341356.9234
  20833854.649   -24192225.10249 -16015945.38649  20833854.6934   20833856.9274
  23184012.527   -14133330.32049  -7044161.88549  23184011.6534   23184015.2084
  21413659.013   -22930687.13349 -14060464.04849  21413658.7334   21413661.3304
  22227231.670   -16877799.83749 -12848935.84249  22227231.1884   22227234.2414
  21912105.142   -19921186.25149 -15512120.89649  21912104.4664   21912107.4234
  20716853.882   -25011690.33249 -19471030.18149  20716853.6114   20716857.1314
  24721231.331    -5018145.71549  -3898792.93949  24721230.5184   24721234.2724
 98  1 28  1 44 30.0000000  0  8  2  4  7  9  8  5 24 16
  24357730.264    -2816415.11049  -2173359.69549  24357729.7054   24357733.6904
  20839859.970   -24160666.82849 -15991354.51549  20839859.9554   20839862.3794
  23196537.329   -14067511.85149  -6992874.77649  23196536.9224   23196539.9804
  21418483.777   -22905333.15549 -14040707.70749  21418483.5624   21418486.3534
  22216504.427   -16934171.99049 -12892862.17749  22216503.8944   22216507.1564
  21897829.430   -19996205.33449 -15570577.30949  21897828.9484   21897831.7644
  20706837.301   -25064327.60649 -19512046.21549  20706837.1554   20706840.6254
  24721822.105    -5015041.01649  -3896373.62949  24721822.9984   24721826.3034
 98  1 28  1 45  0.0000000  0  8  2  4  7  9  8  5 24 16
  24374156.756    -2730093.88949  -2106096.40849  24374156.1734   24374160.0464
  20845974.233   -24128536.06749 -15966317.55049  20845974.6424   20845976.8614
  23209070.009   -14001652.18549  -6941555.56549  23209069.2964   23209072.2534
  21423419.127   -22879397.77149 -14020498.31849  21423418.9264   21423421.7194
  22205886.895   -16989967.61649 -12936339.27349  22205886.2654   22205889.1534
  21883590.712   -20071030.23849 -15628882.40749  21883590.2164   21883592.9544
  20696918.378   -25116451.83449 -19552662.47049  20696918.2524   20696921.7464
  24722519.390    -5011377.27949  -3893518.80349  24722516.9284   24722521.8174
 98  1 28  1 45 30.0000000  0  8  2  4  7  9  8  5 24 16
  24390638.642    -2643480.37949  -2038605.41749  24390637.9534   24390641.8234
  20852208.407   -24095775.27749 -15940789.64849  20852208.5264   20852210.8414
  23221619.472   -13935704.26849  -6890167.56949  23221619.0284   23221622.3464
  21428470.625   -22852852.08449 -13999813.36449  21428470.1894   21428473.1164
  22195385.406   -17045153.34549 -12979341.11949  22195384.8354   22195387.4444
  21869397.155   -20145617.96849 -15687002.69249  21869396.4224   21869399.5574
  20687101.206   -25168041.33849 -19592862.05449  20687100.7384   20687104.5044
  24723331.327    -5007109.54449  -3890193.26949  24723331.9434   24723335.4204
 98  1 28  1 46  0.0000000  0  8  2  4  7  9  8  5 24 16
  24407140.954    -2556760.30249  -1971031.35349  24407140.8084   24407144.7734
  20858527.953   -24062565.72949 -15914912.07049  20858527.9724   20858530.2384
  23234153.615   -13869836.92449  -6838842.37949  23234153.4104   23234156.4024
  21433600.160   -22825895.92249 -13978808.56549  21433600.0274   21433602.6384
  22184972.890   -17099871.63949 -13021978.73649  22184972.3234   22184975.3364
  21855214.701   -20220147.13149 -15745077.34449  21855214.2904   21855216.7684
  20677354.380   -25219261.05249 -19632773.49449  20677354.2464   20677357.8174
  24724224.319    -5002417.11849  -3886536.80749  24724222.3274   24724226.7734
 98  1 28  1 46 30.0000000  0  8  2  4  7  9  8  5 24 16
  24423678.670    -2469854.14349  -1903312.23849  24423676.9404   24423683.3264
  20864946.276   -24028837.07349 -15888629.99349  20864946.4084   20864948.5084
  23246688.493   -13803966.11749  -6787514.47649  23246687.6434   23246691.5834
  21438823.377   -22798447.80449 -13957420.42349  21438823.2524   21438825.9144
  22174670.383   -17154011.52849 -13064165.64549  22174669.3864   22174672.9944
  21841059.932   -20294530.65049 -15803038.51249  21841059.3494   21841062.2504
  20667695.674   -25270017.94649 -19672324.29649  20667695.4724   20667698.8474
  24725210.536    -4997233.93349  -3882497.94749  24725211.5524   24725213.8654
 98  1 28  1 47  0.0000000  0  8  2  4  7  9  8  5 24 16
  24440244.414    -2382800.53049  -1835478.27149  24440243.5614   24440247.3594
  20871456.275   -23994626.67449 -15861972.53349  20871456.4614   20871458.5934
  23259218.042   -13738122.81149  -6736208.00349  23259217.2294   23259220.2094
  21444134.029   -22770540.10149 -13935674.16049  21444133.7754   21444136.7964
  22164469.845   -17207615.50749 -13105934.96349  22164469.1874   22164472.4404
  21826927.217   -20368798.58049 -15860909.60349  21826926.7734   21826929.7964
  20658118.974   -25320343.69949 -19711539.14549  20658118.7824   20658122.5214
  24726281.719    -4991605.16249  -3878111.86549  24726280.9424   24726284.4014
 98  1 28  1 47 30.0000000  0  8  2  4  7  9  8  5 24 16
  24456832.287    -2295631.31649  -1767554.20349  24456831.5284   24456835.8434
  20878053.049   -23959960.41349 -15834959.85349  20878053.1554   20878055.2614
  23271737.104   -13672335.05749  -6684944.83349  23271735.6934   23271739.5784
  21449526.821   -22742200.76749 -13913591.56149  21449526.6524   21449529.4464
  22154366.306   -17260709.88749 -13147307.18849  22154365.3124   22154368.4754
  21812813.482   -20442966.56949 -15918702.82149  21812812.9944   21812815.6564
  20648625.803   -25370230.61349 -19750412.03849  20648625.5844   20648629.2034
  24727434.710    -4985546.51849  -3873390.84049  24727433.8244   24727437.9814
 98  1 28  1 48  0.0000000  0  8  2  4  7  9  8  5 24 16
  24473467.379    -2208213.17249  -1699436.20449  24473467.4014   24473471.1154
  20884757.441   -23924728.49049 -15807506.38449  20884757.7434   20884760.0354
  23284268.848   -13606479.95549  -6633629.15749  23284268.3064   23284270.9354
  21455027.261   -22713295.81149 -13891068.20849  21455027.0644   21455030.0654
  22144381.068   -17313182.15049 -13188194.63649  22144380.5444   22144383.5014
  21798745.149   -20516895.95549 -15976310.09849  21798744.5134   21798747.4764
  20639240.435   -25419551.08949 -19788843.54349  20639240.3414   20639243.6514
  24728691.121    -4978943.97449  -3868245.94749  24728690.2844   24728693.9764
 98  1 28  1 48 30.0000000  0  8  2  4  7  9  8  5 24 16
  24490149.396    -2120548.92249  -1631126.39549  24490148.9334   24490152.4604
  20891567.781   -23888939.92749 -15779619.18049  20891567.8294   20891570.2994
  23296810.780   -13540571.82449  -6582272.16449  23296810.3044   23296813.1764
  21460633.870   -22683832.96249 -13868110.14149  21460633.6034   21460636.5004
  22134505.184   -17365080.17549 -13228634.63549  22134504.5714   22134507.3554
  21784720.235   -20590597.35049 -16033739.73049  21784719.4434   21784722.5074
  20629956.558   -25468337.95949 -19826859.25949  20629956.3084   20629959.6824
  24730046.631    -4971820.73649  -3862695.35949  24730045.7064   24730049.5834
 98  1 28  1 49  0.0000000  0  8  2  4  7  9  8  5 24 16
  24506870.607    -2032678.40149  -1562655.89549  24506869.1684   24506874.5824
  20898478.260   -23852625.07149 -15751321.88849  20898478.7044   20898480.9144
  23309355.098   -13474651.35249  -6530905.57149  23309354.2504   23309357.9644
  21466336.810   -22653863.63949 -13844757.43149  21466336.5544   21466339.5804
  22124726.807   -17416465.66649 -13268675.26949  22124726.5114   22124729.7234
  21770731.414   -20664108.90849 -16091021.45049  21770730.9174   21770733.6354
  20620765.913   -25516635.03249 -19864493.32449  20620765.8714   20620769.2294
  24731493.396    -4964217.60649  -3856770.81749  24731492.9544   24731496.6684
 98  1 28  1 49 30.0000000  0  8  2  4  7  9  8  5 24 16
  24523625.433    -1944631.70549  -1494048.03149  24523624.7784   24523628.0004
  20905479.359   -23815834.09749 -15722653.60249  20905479.5784   20905481.6104
  23321892.690   -13408765.73849  -6479566.15149  23321892.9194   23321894.8404
  21472128.344   -22623428.85049 -13821042.02449  21472128.2454   21472130.7824
  22115038.399   -17467378.67049 -13308347.73849  22115037.8184   22115040.6854
  21756773.603   -20737457.56249 -16148176.23549  21756772.9994   21756775.8914
  20611660.620   -25564483.57349 -19901777.89249  20611660.3044   20611663.6104
  24733023.043    -4956179.02749  -3850506.98249  24733022.1954   24733027.2174
 98  1 28  1 50  0.0000000  0  8  2  4  7  9  8  5 24 16
  24540429.717    -1856323.51949  -1425236.54149  24540430.0344   24540432.6494
  20912584.754   -23778494.95149 -15693558.15649  20912584.8394   20912587.3424
  23334439.567   -13342831.78749  -6428189.04549  23334439.3844   23334441.7844
  21478026.423   -22592434.29349 -13796890.42749  21478026.3024   21478029.0364
  22105457.537   -17517726.44949 -13347579.75549  22105457.7404   22105460.1194
  21742861.753   -20810564.54449 -16205142.69349  21742861.1904   21742864.2254
  20602653.118   -25611818.29049 -19938662.06849  20602653.1304   20602656.4484
  24734646.894    -4947644.40349  -3843856.60649  24734645.4514   24734650.8064
 98  1 28  1 50 30.0000000  0  7  4  7  9  8  5 24 16
  20919784.888   -23740658.14149 -15664074.92449  20919785.1944   20919787.5194
  23346984.908   -13276905.57849  -6376817.98849  23346984.6794   23346987.0794
  21484020.156   -22560936.94649 -13772347.05049  21484020.0824   21484022.9374
  22095975.538   -17567554.71049 -13386406.96649  22095975.9344   22095977.9734
  21728983.999   -20883492.63649 -16261969.76849  21728983.5284   21728986.3864
  20593736.286   -25658676.58649 -19975175.01149  20593736.1334   20593739.4794
  24736356.374    -4938658.87149  -3836854.86849  24736354.8684   24736360.4014
 98  1 28  1 51  0.0000000  0  7  4  7  9  8  5 24 16
  20927069.401   -23702377.63949 -15634245.95249  20927069.5814   20927071.6904
  23359519.002   -13211038.23049  -6325492.77749  23359517.8024   23359520.3904
  21490102.298   -22528975.21649 -13747441.80749  21490102.0624   21490105.0274
  22086586.384   -17616895.10449 -13424854.00849  22086585.7454   22086588.8334
  21715132.925   -20956280.58749 -16318687.62949  21715132.6664   21715134.8964
  20584905.812   -25705080.92749 -20011334.21449  20584905.5664   20584908.9354
  24738146.315    -4929252.32149  -3829525.09849  24738144.5994   24738150.8504
 98  1 28  1 51 30.0000000  0  7  4  7  9  8  5 24 16
  20934448.255   -23663601.59449 -15604030.85049  20934448.4034   20934450.6864
  23372057.361   -13145149.35649  -6274150.80549  23372056.2024   23372059.9914
  21496286.138   -22496478.72249 -13722119.87649  21496286.0314   21496288.8044
  22077305.238   -17665667.80849 -13462858.71849  22077305.0404   22077308.1234
  21701320.139   -21028867.13549 -16375248.56949  21701319.4294   21701322.3684
  20576176.036   -25750956.11649 -20047081.10449  20576175.9404   20576179.2144
  24740031.019    -4919348.01649  -3821807.45649  24740030.3234   24740035.9894
 98  1 28  1 52  0.0000000  0  6  4  7  9  8  5 24
  20941924.160   -23624315.29149 -15573418.13149  20941924.4174   20941926.4194
  23384605.372   -13079208.93849  -6222768.65749  23384604.1954   23384607.2394
  21502575.042   -22463430.44849 -13696367.97049  21502574.9574   21502577.8244
  22068137.967   -17713841.98349 -13500397.01449  22068137.4464   22068140.3644
  21687547.572   -21101242.64449 -16431645.04349  21687547.0544   21687549.8974
  20567551.417   -25796278.75849 -20082397.42049  20567551.3314   20567554.8324
 98  1 28  1 52 30.0000000  0  6  4  7  9  8  5 24
  20949486.529   -23584574.66749 -15542451.39349  20949486.7424   20949489.0304
  23397152.093   -13013275.16849  -6171391.69249  23397151.4994   23397154.1544
  21508954.895   -22429904.39149 -13670243.77049  21508954.7804   21508957.6824
  22059075.519   -17761465.24849 -13537506.02949  22059075.0504   22059077.8124
  21673807.369   -21173447.92949 -16487908.87849  21673806.7264   21673809.5074
  20559022.271   -25841099.34149 -20117322.52049  20559021.8154   20559025.3514
 98  1 28  1 53  0.0000000  0  6  4  7  9  8  5 24
  20957134.365   -23544385.06949 -15511134.81549  20957134.6284   20957136.8454
  23409697.271   -12947349.50449  -6120021.03549  23409696.5844   23409699.1344
  21515422.132   -22395918.70549 -13643761.42049  21515422.0234   21515424.9544
  22050118.166   -17808536.17049 -13574184.65549  22050117.6414   22050120.2694
  21660098.044   -21245490.85749 -16544046.20949  21660097.5464   21660100.1614
  20550585.930   -25885432.48449 -20151867.80849  20550585.7164   20550589.2444
 98  1 28  1 53 30.0000000  0  6  4  7  9  8  5 24
  20964869.920   -23503734.44649 -15479459.00049  20964870.2624   20964872.1984
  23422245.148   -12881410.14949  -6068639.72449  23422244.1884   23422247.3574
  21521978.033   -22361467.22149 -13616916.11449  21521977.7654   21521980.5484
  22041269.275   -17855037.32649 -13610419.31549  22041269.0874   22041271.5554
  21646420.180   -21317368.56049 -16600054.79749  21646419.6654   21646422.3674
  20542241.901   -25929280.58549 -20186035.14449  20542241.6224   20542244.9414
 98  1 28  1 54  0.0000000  0  6  4  7  9  8  5 24
  20972696.638   -23462604.85749 -15447409.96349  20972696.8544   20972698.8114
  23434795.868   -12815455.62549  -6017246.59449  23434793.9504   23434798.5524
  21528625.079   -22326536.65749 -13589697.50049  21528625.0934   21528628.2324
  22032530.793   -17900958.26649 -13646201.85449  22032530.3174   22032533.6584
  21632777.653   -21389060.46949 -16655918.60649  21632777.2204   21632779.9294
  20533991.394   -25972637.15349 -20219819.46649  20533991.2144   20533994.5944
 98  1 28  1 54 30.0000000  0  6  4  7  9  8  5 24
  20980609.254   -23421023.69249 -15415009.04649  20980609.3964   20980611.2844
  23447341.496   -12749527.37649  -5965873.94249  23447340.7444   23447344.2854
  21535354.160   -22291175.17049 -13562143.09649  21535353.6954   21535357.0834
  22023892.305   -17946353.72349 -13681574.92549  22023891.3774   22023894.7144
  21619163.799   -21460601.46449 -16711664.82349  21619163.1054   21619165.7844
  20525825.405   -26015549.64649 -20253257.75549  20525825.2274   20525828.6344
 98  1 28  1 55  0.0000000  0  6  4  7  9  8  5 24
  20988608.872   -23378985.30349 -15382251.86849  20988609.0884   20988610.9434
  23459884.734   -12683611.94049  -5914511.26349  23459883.9104   23459887.6444
  21542168.621   -22255364.84349 -13534238.96749  21542168.6674   21542171.4064
  22015353.724   -17991224.42349 -13716539.11249  22015353.7384   22015355.9594
  21605577.726   -21531996.61349 -16767297.40849  21605577.1104   21605580.0654
  20517744.755   -26058013.70949 -20286346.63049  20517744.5914   20517747.9424
 98  1 28  1 55 30.0000000  0  6  4  7  9  8  5 24
  20996714.178   -23336391.72349 -15349062.04749  20996714.4574   20996716.7394
  23472445.092   -12617606.53249  -5863078.48649  23472443.9254   23472447.6414
  21549090.968   -22218987.67749 -13505893.11549  21549090.6354   21549093.8504
  22006936.102   -18035458.99549 -13751007.58849  22006935.5964   22006938.3884
  21592041.559   -21603129.61049 -16822725.69049  21592041.1514   21592043.7944
  20509770.120   -26099920.61549 -20319001.33249  20509769.9624   20509773.3214
 98  1 28  1 56  0.0000000  0  6  4  7  9  8  5 24
  21004916.235   -23293289.57149 -15315475.96649  21004916.5394   21004918.4414
  23485010.374   -12551575.71649  -5811625.90849  23485010.0564   23485012.9474
  21556109.281   -22182106.03249 -13477154.19349  21556109.1964   21556111.9914
  21998630.627   -18079104.51949 -13785017.07849  21998630.0254   21998633.1314
  21578547.912   -21674039.07449 -16877979.81949  21578547.5224   21578550.1784
  20501892.847   -26141315.86549 -20351257.36949  20501892.6754   20501896.0834
 98  1 28  1 56 30.0000000  0  6  4  7  9  8  5 24
  21013214.827   -23249680.23949 -15281494.65549  21013215.0644   21013217.0404
  23497578.434   -12485530.47549  -5760162.07049  23497577.5664   23497581.1944
  21563221.672   -22144730.05049 -13448030.05049  21563221.6224   21563224.4164
  21990437.761   -18122158.17949 -13818565.37349  21990437.3874   21990440.7464
  21565096.935   -21744724.10849 -16933059.04549  21565096.4644   21565099.0374
  20494114.632   -26182190.73449 -20383107.89149  20494114.5304   20494117.8404
 98  1 28  1 57  0.0000000  0  6  4  7  9  8  5 24
  21021596.314   -23205635.06449 -15247173.78349  21021596.4524   21021598.6224
  23510136.127   -12419539.49449  -5708740.59049  23510134.4634   23510138.6764
  21570417.474   -22106915.96849 -13418564.58249  21570417.3314   21570420.0584
  21982347.476   -18164672.98349 -13851693.83349  21982346.6484   21982349.8994
  21551678.259   -21815239.53849 -16988006.16649  21551677.9044   21551680.2804
  20486425.989   -26222594.78849 -20414591.60349  20486425.6334   20486429.1504
 98  1 28  1 57 30.0000000  0  6  4  7  9  8  5 24
  21030064.302   -23161135.38649 -15212498.69349  21030064.4494   21030066.5504
  23522684.296   -12353597.47949  -5657357.20749  23522684.3744   23522687.0724
  21577697.208   -22068660.65049 -13388755.23749  21577696.9214   21577699.7714
  21974363.323   -18206629.93849 -13884387.53949  21974362.7854   21974366.0894
  21538296.914   -21885558.94449 -17042800.48249  21538296.7274   21538299.3074
  20478830.551   -26262509.09149 -20445693.62849  20478830.3614   20478833.4014
 98  1 28  1 58  0.0000000  0  6  4  7  9  8  5 24
  21038634.178   -23116100.23649 -15177406.35549  21038634.5264   21038636.5804
  23535238.785   -12287623.17049  -5605948.64949  23535238.2144   23535240.8894
  21585075.581   -22029887.19049 -13358542.14949  21585075.5334   21585078.0474
  21966500.159   -18247951.01949 -13916585.76849  21966499.5594   21966502.5664
  21524969.697   -21955594.16549 -17097373.35949  21524969.1544   21524972.1484
  20471343.670   -26301852.78949 -20476351.03049  20471343.3144   20471346.7154
 98  1 28  1 58 30.0000000  0  6  4  7  9  8  5 24
  21047290.269   -23070612.20649 -15141961.12349  21047290.3144   21047292.5654
  23547789.819   -12221667.34449  -5554554.49249  23547789.1154   23547791.6894
  21592543.187   -21990644.85149 -13327963.69849  21592543.1834   21592545.6844
  21958744.237   -18288708.70949 -13948344.98949  21958743.5684   21958746.7834
  21511683.583   -22025413.18349 -17151777.76649  21511683.0724   21511685.4214
  20463952.228   -26340694.89849 -20506617.58449  20463951.9314   20463955.2614
 98  1 28  1 59  0.0000000  0  7  4  7  9  8  5 24 30
  21056022.929   -23024721.66049 -15106202.24049  21056022.8794   21056025.1364
  23560331.078   -12155762.89549  -5503200.36349  23560330.7824   23560334.1204
  21600093.228   -21950969.10949 -13297047.53149  21600093.2474   21600095.9674
  21951085.817   -18328953.49649 -13979704.54749  21951085.4904   21951088.3424
  21498429.514   -22095063.74549 -17206050.91049  21498428.9474   21498431.7884
  20456644.287   -26379098.32149 -20536542.30449  20456644.1904   20456647.4954
  24654460.495    -4663543.37549  -2368527.09549  24654461.1924   24654463.0874
 98  1 28  1 59 30.0000000  0  7  4  7  9  8  5 24 30
  21064853.869   -22978314.80949 -15070041.05349  21064853.8954   21064856.0144
  23572885.082   -12089791.67049  -5451794.22449  23572884.4124   23572886.9534
  21607747.615   -21910745.23649 -13265704.25549  21607747.4584   21607750.3454
  21943549.626   -18368556.29549 -14010563.86449  21943548.8274   21943551.4854
  21485229.475   -22164430.33549 -17260102.78349  21485228.9064   21485231.5314
  20449440.517   -26416954.40249 -20566040.53249  20449440.3874   20449443.6024
  24634983.041    -4765897.48749  -2448283.45149  24634984.2154   24634985.6274
 98  1 28  2  0  0.0000000  0  7  4  7  9  8  5 24 30
  21073772.813   -22931445.26849 -15033519.33049  21073773.1404   21073775.1634
  23585444.401   -12023792.23249  -5400366.10549  23585443.9774   23585447.1074
  21615498.176   -21870015.76649 -13233967.01149  21615498.0524   21615500.6494
  21936125.224   -18407571.72649 -14040965.49349  21936124.9474   21936127.0664
  21472074.382   -22233560.77849 -17313970.64849  21472073.9824   21472076.6254
  20442330.100   -26454319.83249 -20595156.43749  20442329.9094   20442333.3214
  24615498.306    -4868290.77049  -2528070.36449  24615498.4554   24615500.9764
 98  1 28  2  0 30.0000000  0  7  4  7  9  8  5 24 30
  21082778.331   -22884121.10549 -14996643.35049  21082778.3664   21082780.7234
  23598007.365   -11957773.63949  -5348923.02549  23598006.9904   23598009.9574
  21623341.299   -21828799.98149 -13201850.81749  21623341.1024   21623343.9574
  21928809.819   -18446014.42449 -14070920.83549  21928809.4414   21928812.3404
  21458962.126   -22302466.20549 -17367663.17649  21458961.7204   21458964.3904
  20435310.439   -26491208.12849 -20623900.54849  20435310.0894   20435313.4784
  24596004.011    -4970733.56549  -2607895.83949  24596004.5104   24596007.4374
 98  1 28  2  1  0.0000000  0  8  4  7  9  8 10  5 24 30
  21091883.899   -22836270.88049 -14959357.49849  21091884.1424   21091886.1354
  23610583.385   -11891686.14149  -5297426.34149  23610582.6244   23610584.9244
  21631285.050   -21787055.36349 -13169322.59349  21631285.0034   21631287.5494
  21921614.409   -18483826.75849 -14100385.03149  21921614.0024   21921616.7044
  24700403.862    -3035111.16749  -2347432.92849  24700402.5874   24700406.9774
  21445904.827   -22371082.73449 -17421130.62849  21445904.3494   21445906.9544
  20428393.722   -26527555.59549 -20652223.27749  20428393.6074   20428396.8324
  24576514.145    -5073152.70649  -2687702.90249  24576514.2534   24576518.1944
 98  1 28  2  1 30.0000000  0  8  4  7  9  8 10  5 24 30
  21101080.009   -22787944.98149 -14921700.90649  21101080.1564   21101082.4334
  23623162.409   -11825583.25149  -5245917.55649  23623161.4964   23623164.8394
  21639317.280   -21744845.52749 -13136431.77349  21639317.0734   21639319.9984
  21914530.968   -18521050.67049 -14129390.63449  21914530.6864   21914532.9094
  24681909.472    -3132299.05849  -2423163.58049  24681908.1814   24681912.6894
  21432894.102   -22439454.34549 -17474407.15549  21432893.5374   21432896.2544
  20421574.577   -26563390.24849 -20680146.32349  20421574.4984   20421577.9084
  24557022.336    -5175582.94649  -2767518.59849  24557022.4374   24557025.7564
 98  1 28  2  2  0.0000000  0  8  4  7  9  8 10  5 24 30
  21110370.668   -22739122.05149 -14883657.06849  21110370.8744   21110373.1234
  23635749.204   -11759439.40049  -5194376.87149  23635748.7624   23635751.9484
  21647442.428   -21702147.60249 -13103160.67449  21647442.1984   21647445.2584
  21907561.982   -18557672.94249 -14157927.47349  21907561.3214   21907563.9524
  24663406.813    -3229531.30749  -2498928.79549  24663405.0204   24663410.3714
  21419934.537   -22507557.31049 -17527474.39849  21419934.1084   21419936.7164
  20414859.329   -26598679.05649 -20707644.08849  20414859.2974   20414862.5254
  24537531.723    -5278006.25849  -2847328.88249  24537532.1504   24537534.5084
 98  1 28  2  2 30.0000000  0  8  4  7  9  8 10  5 24 30
  21119741.625   -22689877.11349 -14845284.37849  21119741.7274   21119743.8534
  23648329.504   -11693328.85349  -5142862.19549  23648328.8334   23648331.1504
  21655646.679   -21659033.82549 -13069565.52549  21655646.4984   21655649.4764
  21900695.676   -18593755.57049 -14186043.79649  21900695.2344   21900697.8654
  24644881.816    -3326880.28349  -2574784.98449  24644880.9944   24644885.4884
  21407011.375   -22575468.95449 -17580392.54549  21407010.9254   21407013.3974
  20408238.311   -26633472.63749 -20734755.95149  20408237.9914   20408241.4294
  24518030.440    -5380486.50149  -2927183.56849  24518030.9204   24518033.0884
 98  1 28  2  3  0.0000000  0  8  4  7  9  8 10  5 24 30
  21129193.669   -22640206.35749 -14806579.89149  21129193.8234   21129195.9664
  23660905.510   -11627241.03549  -5091365.19349  23660905.3964   23660909.2024
  21663932.631   -21615490.89149 -13035635.97349  21663932.5224   21663935.5084
  21893936.192   -18629276.71849 -14213722.61649  21893935.6644   21893938.9794
  24626337.872    -3424328.52149  -2650718.52949  24626335.8324   24626339.5864
  21394124.304   -22643190.91449 -17633162.89549  21394123.7464   21394126.3874
  20401715.751   -26667748.84249 -20761464.66949  20401715.7664   20401719.1744
  24498520.866    -5483010.35349  -3007072.26049  24498520.1574   24498522.5864
 98  1 28  2  3 30.0000000  0  8  4  7  9  8 10  5 24 30
  21138727.280   -22590106.64649 -14767541.14749  21138727.6434   21138729.7374
  23673478.565   -11561169.77749  -5039881.09649  23673478.0624   23673480.9864
  21672302.948   -21571504.73149 -13001361.04849  21672302.7574   21672305.3564
  21887289.745   -18664203.98349 -14240938.65649  21887289.4154   21887292.1984
  24607773.596    -3521883.68249  -2726735.40249  24607772.7734   24607776.9334
  21381274.616   -22710716.26449 -17685780.03249  21381274.2824   21381276.7424
  20395294.051   -26701495.11349 -20787760.44449  20395293.8524   20395297.1784
  24479005.208    -5585566.07149  -3086985.74349  24479005.2274   24479007.4624
 98  1 28  2  4  0.0000000  0  8  4  7  9  8 10  5 24 30
  21148345.849   -22539560.94049 -14728154.87949  21148346.2154   21148348.4894
  23686053.616   -11495087.51449  -4988388.43249  23686052.1674   23686056.7044
  21680763.621   -21527043.46849 -12966715.91649  21680763.3204   21680765.9974
  21880762.241   -18698506.12849 -14267667.59749  21880761.8844   21880764.4974
  24589190.163    -3619539.52749  -2802830.75149  24589188.8794   24589193.6104
  21368466.303   -22778024.40049 -17738227.92049  21368465.7994   21368468.4164
  20388974.792   -26734702.88849 -20813636.61749  20388974.7074   20388978.0644
  24459487.605    -5688133.03749  -3166908.01849  24459488.3494   24459490.2704
 98  1 28  2  4 30.0000000  0  8  4  7  9  8 10  5 24 30
  21158050.915   -22488560.60849 -14688414.36149  21158051.1864   21158053.1184
  23698633.705   -11428978.87949  -4936875.20349  23698632.7184   23698635.9414
  21689316.021   -21482100.25949 -12931695.23949  21689316.0394   21689318.9304
  21874357.190   -18732165.25149 -14293895.48249  21874357.1484   21874359.8564
  24570590.192    -3717283.04449  -2878994.43049  24570589.0354   24570593.9184
  21355702.815   -22845096.84249 -17790492.15749  21355702.5254   21355704.8314
  20382759.669   -26767363.53449 -20839086.45949  20382759.4694   20382762.7594
  24439971.006    -5790693.18749  -3246824.99349  24439970.7504   24439973.6994
 98  1 28  2  5  0.0000000  0  8  4  7  9  8 10  5 24 30
  21167836.452   -22437137.24049 -14648344.20149  21167836.3224   21167838.6164
  23711211.877   -11362879.29349  -4885369.07049  23711212.7294   23711213.7434
  21697952.576   -21436714.99949 -12896330.11049  21697952.8204   21697955.1724
  21868069.228   -18765208.77149 -14319643.67549  21868069.0314   21868071.2694
  24551967.286    -3815147.15249  -2955252.05649  24551966.1384   24551970.0104
  21342981.376   -22911948.41049 -17842584.27749  21342980.7724   21342983.5224
  20376640.325   -26799520.60249 -20864143.89949  20376640.3154   20376643.5714
  24420449.407    -5893278.74249  -3326761.73849  24420448.6254   24420451.1014
 98  1 28  2  5 30.0000000  0  8  4  7  9  8 10  5 24 30
  21177701.707   -22385294.81049 -14607947.56349  21177701.8024   21177704.0294
  23723788.800   -11296787.94549  -4833869.38649  23723787.7934   23723791.1414
  21706674.249   -21390882.50349 -12860616.54249  21706674.2024   21706676.8864
  21861895.717   -18797650.76649 -14344923.21649  21861895.2554   21861898.0104
  24533321.932    -3913128.45349  -3031601.11849  24533321.4454   24533325.3104
  21330306.234   -22978556.87849 -17894487.03649  21330305.6974   21330308.3794
  20370615.204   -26831183.00549 -20888815.95349  20370614.8174   20370618.1444
  24400922.393    -5995893.28149  -3406721.18949  24400921.5244   24400925.0504
 98  1 28  2  6  0.0000000  0  8  4  7  9  8 10  5 24 30
  21187652.078   -22333005.40549 -14567202.59349  21187652.2144   21187654.4864
  23736372.265   -11230660.75049  -4782341.72149  23736371.7624   23736374.4934
  21715488.268   -21344564.86149 -12824524.90449  21715488.0104   21715490.7074
  21855838.655   -18829481.07449 -14369726.07449  21855838.0984   21855841.6334
  24514664.775    -4011172.63249  -3107999.09549  24514662.8424   24514666.6454
  21317685.992   -23044876.75649 -17946164.87849  21317685.5134   21317687.7444
  20364689.079   -26862324.95149 -20913082.41349  20364688.9694   20364692.0644
  24381396.470    -6098502.82849  -3486676.64949  24381397.4204   24381399.2644
 98  1 28  2  6 30.0000000  0  8  4  7  9  8 10  5 24 30
  21197685.550   -22280279.17049 -14526117.21549  21197685.7284   21197687.4934
  23748956.503   -11164529.51749  -4730810.88749  23748955.7604   23748958.7574
  21724389.445   -21297788.38049 -12788075.70749  21724388.6994   21724391.6694
  21849892.683   -18860727.31049 -14394073.78649  21849892.3744   21849895.1334
  24495994.786    -4109282.81049  -3184448.45449  24495994.1364   24495997.2964
  21305119.414   -23110914.67749 -17997622.99449  21305118.9334   21305120.9134
  20358860.371   -26892955.16749 -20936950.10249  20358860.1344   20358863.2774
  24361869.193    -6201119.35949  -3566637.54249  24361869.0894   24361870.8454
 98  1 28  2  7  0.0000000  0  8  4  7  9  8 10  5 24 30
  21207800.470   -22227124.87749 -14484698.23649  21207800.3954   21207802.7684
  23761538.105   -11098413.06749  -4679291.54249  23761538.2594   23761540.4694
  21733376.998   -21250558.22549 -12751272.94749  21733376.7164   21733379.6524
  21844054.650   -18891405.89149 -14417979.13049  21844054.0664   21844056.9684
  24477312.741    -4207457.03449  -3260947.73449  24477312.1194   24477316.3954
  21292604.523   -23176681.04949 -18048869.46249  21292603.9174   21292606.4964
  20353125.735   -26923090.96549 -20960432.48349  20353125.4644   20353128.7264
  24342338.840    -6303751.46749  -3646610.52049  24342339.1394   24342340.7054
 98  1 28  2  7 30.0000000  0  8  4  7  9  8 10  5 24 30
  21217998.553   -22173533.39649 -14442938.60749  21217998.6154   21218000.7124
  23774120.420   -11032291.92549  -4627768.56949  23774119.1404   23774123.1394
  21742453.306   -21202862.07849 -12714107.09549  21742453.2034   21742455.9544
  21838327.685   -18921501.09149 -14441429.89849  21838327.6404   21838330.4494
  24458623.156    -4305671.32849  -3337478.23649  24458622.5484   24458626.7654
  21280140.736   -23242178.59449 -18099906.47049  21280140.1664   21280142.4684
  20347488.230   -26952716.06349 -20983516.93149  20347488.1074   20347491.3884
  24322810.346    -6406373.62449  -3726575.82549  24322810.9584   24322812.7204
 98  1 28  2  8  0.0000000  0  8  4  7  9  8 10  5 24 30
  21228282.838   -22119488.89149 -14400826.01549  21228282.9064   21228285.1104
  23786705.344   -10966157.41849  -4576235.21849  23786704.5774   23786707.3754
  21751617.875   -21154701.90149 -12676579.70149  21751617.7684   21751620.8014
  21832717.505   -18950983.02149 -14464402.84549  21832717.2644   21832720.1404
  24439928.496    -4403911.49649  -3414028.92449  24439926.9514   24439932.4534
  21267728.011   -23307407.69049 -18150734.33949  21267727.5894   21267729.7924
  20341951.972   -26981809.02349 -21006186.76749  20341951.9304   20341955.0964
  24303287.648    -6508965.88249  -3806517.81749  24303287.4544   24303290.0004
 98  1 28  2  8 30.0000000  0  8  4  7  9  8 10  5 24 30
  21238656.751   -22064973.61249 -14358346.56749  21238657.1044   21238659.1044
  23799299.176   -10899976.72149  -4524665.82349  23799298.6784   23799301.5514
  21760873.397   -21106063.97049 -12638680.01549  21760873.3214   21760876.1214
  21827228.747   -18979826.92549 -14486878.60249  21827228.4844   21827231.2384
  24421233.624    -4502152.97049  -3490580.64049  24421233.1524   24421235.9154
  21255370.128   -23372348.76049 -18201337.75549  21255369.6944   21255372.2344
  20336524.015   -27010333.22549 -21028413.40249  20336524.0674   20336527.1834
  24283774.818    -6611505.82149  -3886418.99649  24283775.1024   24283778.3154
 98  1 28  2  9  0.0000000  0  8  4  7  9  8 10  5 24 30
  21249108.499   -22010049.33949 -14315548.42249  21249108.4684   21249111.0774
  23811896.507   -10833777.54749  -4473082.05749  23811897.0374   23811899.2014
  21770210.726   -21056996.04949 -12600445.26849  21770210.4174   21770213.4364
  21821851.706   -19008083.26049 -14508896.51549  21821851.3174   21821854.1314
  24402528.670    -4600447.61149  -3567173.76749  24402526.9424   24402531.8434
  21243056.142   -23437059.02849 -18251761.32349  21243055.5094   21243058.0494
  20331195.264   -27038335.97549 -21050233.70649  20331195.1074   20331198.4144
  24264262.897    -6714042.21349  -3966317.46249  24264264.1294   24264265.7224
 98  1 28  2  9 30.0000000  0  8  4  7  9  8 10  5 24 30
  21259641.166   -21954699.65549 -14272418.80449  21259641.4664   21259643.6264
  23824500.909   -10767541.21249  -4421469.33349  23824500.7614   23824503.2824
  21779631.518   -21007489.38549 -12561868.65849  21779631.3954   21779634.2204
  21816591.298   -19035726.88749 -14530437.01049  21816590.8884   21816593.5714
  24383818.179    -4698771.89149  -3643790.02749  24383816.4454   24383820.8814
  21230788.616   -23501525.25649 -18301994.74549  21230788.0314   21230790.7064
  20325969.992   -27065795.10949 -21071630.42749  20325969.7844   20325972.9884
  24244756.038    -6816550.98149  -4046194.37549  24244754.9554   24244758.8214
 98  1 28  2 10  0.0000000  0  8  4  7  9  8 10  5 24 30
  21270254.037   -21898928.54349 -14228960.78349  21270254.1494   21270256.4474
  23837109.740   -10701281.54849  -4369838.43049  23837110.3324   23837111.3574
  21789135.253   -20957546.44449 -12522952.07849  21789134.6064   21789137.9174
  21811443.709   -19062777.50849 -14551515.41349  21811442.7324   21811445.6644
  24365099.229    -4797139.57249  -3720440.08749  24365097.9744   24365101.8164
  21218570.553   -23565731.59549 -18352025.64449  21218569.9304   21218572.5564
  20320846.697   -27092718.08949 -21092609.35249  20320846.3614   20320849.7454
  24225251.397    -6919049.06749  -4126062.97849  24225250.5184   24225253.7414
 98  1 28  2 10 30.0000000  0  8  4  7  9  8 10  5 24 30
  21280960.867   -21842663.62749 -14185117.99149  21280960.9074   21280963.2934
  23849737.830   -10634920.45949  -4318128.51849  23849738.0104   23849740.8604
  21798736.459   -20907091.66449 -12483636.67549  21798736.4194   21798738.8044
  21806422.839   -19089162.05649 -14572074.78749  21806422.8884   21806425.4064
  24346385.757    -4895479.37849  -3797068.43649  24346385.1684   24346389.4564
  21206417.530   -23629596.15949 -18401790.23749  21206416.7934   21206419.2094
  20315837.421   -27119041.86749 -21113121.38149  20315837.0394   20315840.5114
  24205763.745    -7021456.25949  -4205860.73949  24205763.4094   24205766.4094
 98  1 28  2 11  0.0000000  0  8  4  7  9  8 10  5 24 30
  21291750.221   -21785965.30249 -14140937.52049  21291750.3484   21291752.5984
  23862365.561   -10568562.28249  -4266420.83449  23862364.8794   23862368.1244
  21808421.677   -20856195.32549 -12443977.23949  21808421.3044   21808423.9014
  21801520.791   -19114922.29949 -14592147.76449  21801520.7414   21801522.8684
  24327663.475    -4993865.84949  -3873733.14649  24327662.0504   24327667.0004
  21194315.286   -23693193.81049 -18451346.88549  21194314.7714   21194317.3274
  20310926.576   -27144848.55449 -21133230.51749  20310926.2284   20310929.5264
  24186280.835    -7123839.08349  -4285639.54249  24186280.3774   24186283.7924
 98  1 28  2 11 30.0000000  0  8  4  7  9  8 10  5 24 30
  21302626.426   -21728810.41549 -14096401.21249  21302626.6984   21302628.7854
  23874992.839   -10502205.47949  -4214714.23249  23874992.4374   23874994.8114
  21818193.135   -20804845.83649 -12403964.62549  21818193.2494   21818195.6774
  21796742.835   -19140030.67849 -14611712.70849  21796742.5294   21796745.2054
  24308933.793    -5092290.57849  -3950427.65249  24308932.8464   24308936.0044
  21182269.064   -23756497.02749 -18500674.02749  21182268.4814   21182270.9324
  20306114.108   -27170138.25349 -21152936.73649  20306113.8404   20306117.1084
  24166804.057    -7226190.55949  -4365393.88949  24166804.5994   24166805.8654
 98  1 28  2 12  0.0000000  0  8  4  7  9  8 10  5 24 30
  21313584.313   -21671226.26949 -14051530.46749  21313584.6824   21313586.9644
  23887618.609   -10435856.59449  -4163013.83849  23887618.2564   23887621.4164
  21828045.962   -20753068.84549 -12363618.94349  21828045.9584   21828048.5064
  21792085.363   -19164505.95349 -14630784.37049  21792085.2234   21792087.2234
  24290191.361    -5190782.54849  -4027174.58449  24290190.3314   24290194.0624
  21170279.071   -23819504.70549 -18549770.92849  21170278.4314   21170281.0974
  20301395.176   -27194936.30149 -21172259.89849  20301394.9874   20301398.1874
  24147327.435    -7328540.04049  -4445146.71949  24147327.8634   24147329.7404
 98  1 28  2 12 30.0000000  0  8  4  7  9  8 10  5 24 30
  21324629.047   -21613185.90949 -14006304.20749  21324629.4564   21324630.7324
  23900250.141   -10369477.05649  -4111289.52749  23900251.4804   23900252.8244
  21837985.381   -20700837.05149 -12322918.84849  21837985.5774   21837987.7134
  21787557.543   -19188299.73149 -14649324.97749  21787556.6184   21787559.0274
  24271444.848    -5289295.55949  -4103937.84849  24271443.8894   24271448.1984
  21158348.955   -23882197.74449 -18598622.63749  21158348.3704   21158350.5874
  20296775.112   -27219214.84949 -21191178.23149  20296774.8854   20296777.5944
  24127857.096    -7430857.06949  -4524874.19649  24127856.8224   24127858.9944
 98  1 28  2 13  0.0000000  0  8  4  7  9  8 10  5 24 30
  21335752.884   -21554729.69849 -13960753.89949  21335753.1954   21335754.9894
  23912879.546   -10303109.50049  -4059574.53049  23912878.5894   23912882.9894
  21848003.687   -20648190.26649 -12281895.37149  21848003.4424   21848006.1544
  21783149.068   -19211466.42649 -14667376.93849  21783148.5904   21783151.4044
  24252687.452    -5387866.24149  -4180746.06949  24252686.5644   24252690.4454
  21146472.711   -23944607.61349 -18647253.68549  21146472.2724   21146474.6614
  20292247.062   -27243009.67149 -21209719.63349  20292246.8204   20292249.8194
  24108383.047    -7533194.08949  -4604617.28249  24108382.8444   24108386.2564
 98  1 28  2 13 30.0000000  0  8  4  7  9  8 10  5 24 30
  21346968.813   -21495789.65149 -13914826.59049  21346969.1214   21346971.2074
  23925528.445   -10236638.93549  -4007779.31749  23925528.5114   23925530.4464
  21858116.669   -20595046.24049 -12240484.45049  21858116.3714   21858119.9894
  21778870.764   -19233948.98649 -14684895.82549  21778870.0124   21778873.2854
  24233935.525    -5486408.48049  -4257532.15149  24233934.0074   24233938.5744
  21134668.960   -24006636.74149 -18695588.06349  21134668.2144   21134671.1544
  20287830.126   -27266220.74549 -21227806.17449  20287830.0084   20287833.3424
  24088921.051    -7635466.88749  -4684310.33249  24088921.3374   24088924.3834
 98  1 28  2 14  0.0000000  0  8  4  7  9  8 10  5 24 30
  21358262.549   -21436440.82749 -13868580.73449  21358262.9924   21358264.9484
  23938185.119   -10170127.69649  -3955952.33649  23938182.9914   23938187.9784
  21868312.566   -20541466.72949 -12198734.16649  21868312.3724   21868315.5144
  21774708.980   -19255819.18149 -14701937.52049  21774709.0134   21774711.8054
  24215180.339    -5584966.89149  -4334330.82149  24215179.5004   24215183.4264
  21122922.161   -24068366.38749 -18743689.05849  21122921.4164   21122924.2984
  20283516.428   -27288889.43749 -21245470.06249  20283516.3244   20283519.5694
  24069460.677    -7737731.37249  -4763996.86349  24069460.8494   24069463.4634
 98  1 28  2 14 30.0000000  0  8  4  7  9  8 10  5 24 30
  21369628.548   -21376712.23649 -13822038.96949  21369628.6644   21369630.7414
  23950840.860   -10103621.17849  -3904129.09749  23950840.1984   23950843.4724
  21878587.497   -20487471.53649 -12156659.99149  21878587.2794   21878590.0484
  21770658.752   -19277103.13349 -14718522.41949  21770658.8464   21770661.2744
  24196420.101    -5683552.71849  -4411150.86649  24196418.6684   24196423.3954
  21111224.645   -24129837.04449 -18791588.26149  21111224.0244   21111226.7874
  20279303.917   -27311026.25949 -21262719.52049  20279303.7004   20279307.0044
  24050000.415    -7839996.10449  -4843683.62649  24049999.5224   24050002.8734
 98  1 28  2 15  0.0000000  0  8  4  7  9  8 10  5 24 30
  21381080.158   -21316533.54049 -13775146.48549  21381080.2864   21381082.2744
  23963508.003   -10037054.87749  -3852259.26649  23963507.8394   23963511.0534
  21888956.309   -20432983.21449 -12114201.57249  21888956.2314   21888958.8454
  21766732.899   -19297734.00949 -14734598.43649  21766732.3754   21766735.4194
  24177669.151    -5782088.92949  -4487932.27749  24177667.6994   24177671.8954
  21099591.829   -24190968.01449 -18839222.78349  21099591.4474   21099594.0844
  20275209.236   -27332543.81949 -21279486.44549  20275209.1054   20275212.2124
  24030557.235    -7942169.81349  -4923299.45349  24030557.2914   24030560.1054
 98  1 28  2 15 30.0000000  0  8  4  7  9  8 10  5 24 30
  21392611.648   -21255934.98349 -13727926.82949  21392611.7434   21392613.9504
  23976182.143    -9970451.47549  -3800360.52749  23976180.6364   23976185.7014
  21899413.466   -20378030.54749 -12071381.32049  21899412.9624   21899416.0004
  21762930.147   -19317717.46049 -14750169.96749  21762929.9274   21762932.5824
  24158925.212    -5880588.34549  -4564684.99049  24158924.6744   24158928.4034
  21088017.555   -24251791.11349 -18886617.39849  21088017.1504   21088019.7574
  20271227.970   -27353465.57949 -21295789.10249  20271227.8614   20271230.7964
  24011130.681    -8044257.47149  -5002848.22049  24011130.8604   24011134.2094
 98  1 28  2 16  0.0000000  0  8  4  7  9  8 10  5 24 30
  21404210.585   -21194982.31649 -13680431.24549  21404210.9834   21404212.8824
  23988848.847    -9903887.47449  -3748492.47949  23988848.9654   23988851.7054
  21909944.339   -20322690.26049 -12028259.02249  21909944.4914   21909947.2854
  21759239.227   -19337113.23349 -14765283.55549  21759238.9124   21759241.8714
  24140176.343    -5979114.02249  -4641458.18949  24140175.4744   24140179.9264
  21076489.248   -24312372.92049 -18933823.99649  21076488.9604   21076491.2654
  20267341.804   -27373887.62349 -21311702.37349  20267341.9814   20267344.9514
  23991708.844    -8146319.82649  -5082377.27649  23991709.2554   23991711.8184
 98  1 28  2 16 30.0000000  0  8  4  7  9  8 10  5 24 30
  21415886.847   -21133623.50949 -13632619.18949  21415887.2404   21415889.2104
  24001517.940    -9837311.48249  -3696615.09849  24001517.3554   24001521.4494
  21920557.460   -20266918.54349 -11984800.55349  21920557.8044   21920560.2334
  21755669.375   -19355873.12949 -14779901.66649  21755669.0144   21755671.7034
  24121431.705    -6077618.07949  -4718214.56249  24121430.4114   24121434.3954
  21065021.923   -24372634.58949 -18980781.13949  21065021.6594   21065024.0474
  20263558.871   -27393767.46449 -21327193.15149  20263558.9304   20263561.8194
  23972301.802    -8248304.08849  -5161845.49249  23972301.8314   23972304.1474
 98  1 28  2 17  0.0000000  0  8  4  7  9  8 10  5 24 30
  21427638.817   -21071866.49349 -13584496.83749  21427639.1944   21427641.0684
  24014190.368    -9770717.71249  -3644723.87649  24014190.4824   24014193.1444
  21931249.074   -20210734.33549 -11941020.64849  21931248.9424   21931251.9824
  21752218.753   -19374006.59849 -14794031.64049  21752218.6124   21752221.2714
  24102687.687    -6176118.90649  -4794968.39749  24102686.6974   24102691.0884
  21053614.950   -24432578.95149 -19027491.02149  21053614.5864   21053617.0074
  20259874.278   -27413130.26249 -21342281.02449  20259874.2114   20259877.3294
  23952905.596    -8350232.25749  -5241269.97449  23952905.3794   23952907.8704
 98  1 28  2 17 30.0000000  0  8  4  7  9  8 10  5 24 30
  21439472.449   -21009680.54049 -13536040.24949  21439472.6624   21439474.7494
  24026876.570    -9704051.74749  -3592776.36749  24026875.9904   24026879.0084
  21942020.805   -20154128.57549 -11896912.26949  21942020.2454   21942023.5054
  21748893.639   -19391480.64449 -14807647.78049  21748893.7644   21748896.0394
  24083949.250    -6274589.57449  -4871698.73849  24083948.0204   24083952.4934
  21042275.207   -24492169.90149 -19073925.51949  21042274.7864   21042277.2454
  20256291.029   -27431960.50549 -21356953.92949  20256290.9124   20256293.8924
  23933524.033    -8452082.84049  -5320634.01149  23933523.4964   23933526.0854
 98  1 28  2 18  0.0000000  0  8  4  7  9  8 10  5 24 30
  21451382.642   -20947092.28049 -13487270.17549  21451382.9974   21451385.1064
  24039572.487    -9637334.17349  -3540788.65149  24039573.1304   24039575.3914
  21952868.633   -20097122.90249 -11852492.27049  21952868.4154   21952871.3264
  21745687.499   -19408329.31549 -14820776.61649  21745687.0344   21745690.2574
  24065211.592    -6373056.48449  -4948426.17449  24065210.7514   24065214.5774
  21030999.763   -24551422.93849 -19120096.71149  21030999.3224   21031001.6844
  20252805.270   -27450278.37849 -21371227.58249  20252805.1354   20252808.2864
  23914150.356    -8553892.12149  -5399965.87149  23914150.6384   23914153.6194
 98  1 28  2 18 30.0000000  0  8  4  7  9  8 10  5 24 30
  21463362.143   -20884139.62749 -13438216.15849  21463362.2834   21463364.3184
  24052270.486    -9570605.57749  -3488792.36449  24052269.2804   24052274.8354
  21963785.967   -20039752.09749 -11807787.74749  21963785.9274   21963788.7164
  21742595.253   -19424579.30149 -14833438.94349  21742594.5854   21742597.3114
  24046468.895    -6471550.08149  -5025174.38949  24046468.5064   24046471.5374
  21019779.523   -24610385.76949 -19166041.76949  21019779.0204   21019781.5134
  20249412.273   -27468108.79549 -21385121.39949  20249412.1744   20249415.3284
  23894776.955    -8655699.81549  -5479296.46749  23894777.8994   23894779.7494
 98  1 28  2 19  0.0000000  0  8  4  7  9  8 10  5 24 30
  21475411.218   -20820821.54649 -13388877.39749  21475411.3924   21475413.4234
  24064971.060    -9503863.70949  -3436785.74149  24064971.2474   24064973.6644
  21974772.822   -19982015.91649 -11762798.52049  21974772.9014   21974775.4764
  21739619.712   -19440215.66749 -14845623.12949  21739619.5054   21739621.9964
  24027721.946    -6570065.99749  -5101940.00949  24027720.8354   24027724.5034
  21008612.586   -24669068.36749 -19211768.46249  21008612.0214   21008614.5514
  20246110.234   -27485461.26749 -21398642.79249  20246110.1104   20246113.1254
  23875406.373    -8757492.94449  -5558615.75749  23875406.8104   23875408.6244
 98  1 28  2 19 30.0000000  0  8  4  7  9  8 10  5 24 30
  21487526.180   -20757157.12749 -13339268.76149  21487526.3054   21487528.6104
  24077668.321    -9437139.56849  -3384792.91749  24077668.6274   24077671.3444
  21985826.809   -19923926.77149 -11717534.26249  21985826.6094   21985829.6354
  21736756.255   -19455263.58049 -14857348.78249  21736755.7974   21736758.7844
  24008969.085    -6668612.63949  -5178729.56549  24008968.0974   24008971.6164
  20997496.734   -24727482.47949 -19257285.95149  20997496.2264   20997498.7684
  20242896.497   -27502349.44349 -21411802.40249  20242896.4544   20242899.3564
  23856036.554    -8859282.03249  -5637931.86349  23856036.8594   23856038.5774
 98  1 28  2 20  0.0000000  0  8  4  7  9  8 10  5 24 30
  21499719.898   -20693078.76649 -13289337.56849  21499720.1834   21499722.3434
  24090369.293    -9370395.20149  -3332784.33449  24090369.0654   24090371.8884
  21996966.145   -19865388.95749 -11671920.38449  21996966.1174   21996968.8934
  21734016.532   -19469660.62049 -14868567.25749  21734016.0244   21734018.7444
  23990226.708    -6767104.54949  -5255476.48749  23990225.3134   23990228.9134
  20986446.297   -24785552.89549 -19302535.61949  20986445.9664   20986448.2444
  20239784.845   -27518701.21849 -21424544.03049  20239784.6694   20239787.6094
  23836683.938    -8960980.38949  -5717177.28449  23836684.2374   23836686.2404
 98  1 28  2 20 30.0000000  0  8  4  7  9  8 10  5 24 30
  21512009.644   -20628495.56949 -13239013.00449  21512009.7564   21512011.6724
  24103091.962    -9303537.04549  -3280687.09849  24103091.5374   24103095.1194
  22008209.082   -19806307.16549 -11625882.63649  22008209.3544   22008211.9644
  21731418.360   -19483313.91649 -14879206.18649  21731418.0824   21731421.0454
  23971513.495    -6865442.63749  -5332103.52049  23971512.7174   23971516.2874
  20975480.791   -24843177.11649 -19347437.60949  20975480.3074   20975482.6714
  20236792.990   -27534423.55349 -21436795.19049  20236792.9204   20236795.9424
  23817369.116    -9062480.25249  -5796268.04149  23817369.2084   23817372.2214
 98  1 28  2 21  0.0000000  0  8  4  7  9  8 10  5 24 30
  21524390.441   -20563434.19649 -13188315.82949  21524390.6744   21524392.6854
  24115831.139    -9236592.04449  -3228522.18349  24115831.0084   24115833.9174
  22019547.287   -19746724.49949 -11579454.58949  22019546.9954   22019549.6674
  21728951.364   -19496278.29749 -14889308.30749  21728951.1804   21728953.7974
  23952821.649    -6963668.56049  -5408643.19249  23952820.4174   23952824.2494
  20964596.814   -24900372.83449 -19392005.69649  20964596.1624   20964598.7964
  20233916.924   -27549537.22849 -21448572.06749  20233916.4714   20233919.4854
  23798086.633    -9163809.79149  -5875226.07249  23798086.3184   23798088.7624
 98  1 28  2 21 30.0000000  0  8  4  7  9  8 10  5 24 30
  21536845.754   -20497980.88049 -13137313.24749  21536845.8824   21536847.7444
  24128574.295    -9169626.59049  -3176341.28549  24128573.2364   24128577.1024
  22030966.055   -19686718.37749 -11532696.57849  22030965.6404   22030968.2924
  21726599.352   -19508638.41349 -14898939.57349  21726599.0384   21726601.5484
  23934138.303    -7061850.36349  -5485148.46449  23934137.5314   23934141.5584
  20953781.513   -24957207.54149 -19436292.48149  20953781.0294   20953783.3414
  20231145.159   -27564102.95149 -21459921.97549  20231144.8604   20231147.7924
  23778821.810    -9265047.07549  -5954112.23349  23778822.1344   23778825.2834
 98  1 28  2 22  0.0000000  0  8  4  7  9  8 10  5 24 30
  21549378.944   -20432118.40249 -13085991.83349  21549379.4554   21549381.3794
  24141330.802    -9102590.63449  -3124105.51249  24141330.9644   24141332.7314
  22042468.189   -19626274.17749 -11485597.20549  22042468.1374   22042471.0404
  21724370.604   -19520350.55049 -14908065.91449  21724370.2614   21724372.9954
  23915468.147    -7159962.43449  -5561599.40049  23915466.8174   23915471.3904
  20943040.630   -25013651.12249 -19480274.48849  20943040.0354   20943042.6634
  20228484.212   -27578086.29749 -21470818.07649  20228484.1124   20228487.1324
  23759578.852    -9366169.15849  -6032908.61049  23759578.7864   23759581.3044
 98  1 28  2 22 30.0000000  0  8  4  7  9  8 10  5 24 30
  21561991.998   -20365836.24749 -13034343.40449  21561992.2334   21561994.2974
  24154108.460    -9035443.95149  -3071783.41549  24154106.5004   24154112.3794
  22054051.113   -19565405.44149 -11438167.03449  22054051.1584   22054053.7904
  21722271.884   -19531379.56149 -14916659.95549  21722271.5044   21722274.1714
  23896812.279    -7257999.15149  -5637991.64149  23896811.6924   23896815.2114
  20932375.559   -25069696.26649 -19523946.02749  20932375.0384   20932377.6954
  20225939.720   -27591457.57649 -21481237.24649  20225939.4734   20225942.5194
  23740356.324    -9467183.75449  -6111621.25449  23740356.9334   23740358.7434
 98  1 28  2 23  0.0000000  0  8  4  7  9  8 10  5 24 30
  21574675.958   -20299181.82149 -12982404.88849  21574676.3024   21574677.9794
  24166898.725    -8968230.45549  -3019409.30349  24166898.5244   24166900.5014
  22065705.399   -19504161.92349 -11390444.81749  22065705.2004   22065708.0704
  21720295.978   -19541762.91849 -14924750.88749  21720295.5424   21720298.3854
  23878164.817    -7355992.24149  -5714349.87449  23878164.4514   23878167.1324
  20921776.331   -25125395.46249 -19567347.99249  20921775.7264   20921778.2544
  20223503.751   -27604258.49649 -21491211.98049  20223503.5104   20223506.6124
  23721144.932    -9568140.18049  -6190288.55549  23721144.5234   23721147.7814
 98  1 28  2 23 30.0000000  0  8  4  7  9  8 10  5 24 30
  21587441.374   -20232099.00849 -12930132.56949  21587441.3454   21587443.2904
  24179716.466    -8900872.88249  -2966922.86049  24179714.6524   24179719.5944
  22077448.644   -19442450.74249 -11342358.19349  22077448.5504   22077451.4134
  21718460.057   -19551410.70649 -14932268.65849  21718459.4934   21718462.5334
  23859542.896    -7453851.11349  -5790603.53749  23859542.9024   23859545.3974
  20911256.337   -25180678.34949 -19610425.56349  20911255.7094   20911258.3914
  20221189.251   -27616421.12449 -21500689.34549  20221189.1124   20221192.1124
  23701958.358    -9668965.98449  -6268854.10049  23701958.9754   23701961.1224
 98  1 28  2 24  0.0000000  0  8  4  7  9  8 10  5 24 30
  21600290.519   -20164576.31249 -12877517.48149  21600290.6904   21600292.8274
  24192557.352    -8833393.54049  -2914341.58349  24192556.8014   24192560.8574
  22089279.847   -19380277.21649 -11293911.30449  22089279.6804   22089282.4494
  21716762.914   -19560329.50549 -14939218.37949  21716762.5184   21716765.3134
  23840945.621    -7551580.03149  -5866755.92849  23840943.8684   23840948.8014
  20900813.335   -25235556.62049 -19653187.84949  20900813.0084   20900815.4524
  20218993.636   -27627959.17949 -21509680.03049  20218993.4624   20218996.5324
  23682795.053    -9769669.67549  -6347324.48749  23682795.1324   23682797.3534
 98  1 28  2 24 30.0000000  0  8  4  7  9  8 10  5 24 30
  21613220.477   -20096629.07349 -12824571.58249  21613220.7994   21613222.8694
  24205413.071    -8765836.40949  -2861699.69649  24205413.0714   24205416.0104
  22101198.729   -19317643.11449 -11245105.51949  22101198.3794   22101201.1774
  21715197.047   -19568558.32149 -14945630.45349  21715196.7624   21715199.4294
  23822371.379    -7649188.66149  -5942814.57249  23822370.1064   23822373.7434
  20890441.964   -25290058.67449 -19695656.97949  20890441.5984   20890444.0544
  20216911.163   -27638902.56549 -21518207.33749  20216911.1044   20216914.2044
  23663656.007    -9870246.07049  -6425695.66949  23663657.0414   23663659.4014
 98  1 28  2 25  0.0000000  0  8  4  7  9  8 10  5 24 30
  21626233.084   -20028247.35849 -12771287.12349  21626233.1704   21626235.2974
  24218284.344    -8698197.42549  -2808993.95749  24218284.0614   24218286.6804
  22113210.292   -19254521.95449 -11195920.20349  22113210.4034   22113212.9964
  21713762.732   -19576095.81149 -14951503.82749  21713762.1354   21713765.0494
  23803823.416    -7746658.79649  -6018765.31549  23803822.0974   23803826.4434
  20880145.664   -25344166.25849 -19737818.72349  20880144.9264   20880147.4914
  20214940.285   -27649259.52149 -21526277.68149  20214939.8484   20214942.9724
  23644548.691    -9970655.62749  -6503936.87049  23644549.0794   23644551.2464
 98  1 28  2 25 30.0000000  0  8  4  7  9  8 10  5 24 30
  21639322.771   -19959460.78549 -12717687.19649  21639322.8594   21639324.9694
  24231161.818    -8630526.50949  -2756263.39349  24231160.5074   24231165.2944
  22125307.272   -19190952.23549 -11146385.37249  22125307.1194   22125309.5574
  21712454.734   -19582969.10949 -14956859.65849  21712454.2014   21712457.0684
  23785293.981    -7844031.40049  -6094640.04649  23785292.8544   23785296.5494
  20869919.351   -25397905.70749 -19779693.61749  20869918.7664   20869921.1504
  20213072.753   -27659073.37249 -21533924.83449  20213072.6514   20213075.8564
  23625468.750   -10070921.19649  -6582065.86549  23625469.5384   23625471.6494
 98  1 28  2 26  0.0000000  0  8  4  7  9  8 10  5 24 30
  21652487.082   -19890281.70749 -12663781.41649  21652487.2554   21652489.3044
  24244039.841    -8562851.61449  -2703529.78349  24244039.3214   24244041.7284
  22137483.284   -19126967.09749 -11096526.83049  22137483.3394   22137485.9004
  21711269.849   -19589195.51949 -14961711.40949  21711269.6014   21711272.3694
  23766780.135    -7941322.04149  -6170450.90749  23766779.4114   23766783.3214
  20859760.857   -25451288.85449 -19821290.86549  20859760.3284   20859762.6804
  20211302.681   -27668375.00649 -21541172.85049  20211302.4964   20211305.4554
  23606413.416   -10171057.63049  -6660094.23949  23606413.5604   23606416.2134
 98  1 28  2 26 30.0000000  0  8  4  7  9  8 10  5 24 30
  21665727.110   -19820704.64849 -12609565.52749  21665727.2294   21665729.4584
  24256927.846    -8495124.87349  -2650755.65549  24256926.3494   24256930.8214
  22149741.190   -19062551.31049 -11046332.72449  22149741.0734   22149743.2994
  21710215.247   -19594737.55949 -14966029.89349  21710214.6614   21710217.5294
  23748288.781    -8038494.48649  -6246169.66249  23748288.6624   23748292.0104
  20849677.878   -25504275.29749 -19862579.00149  20849677.3194   20849679.7734
  20209635.263   -27677137.17249 -21548000.50649  20209635.0814   20209638.1444
  23587388.999   -10271031.93449  -6737996.28749  23587388.8804   23587391.1304
 98  1 28  2 27  0.0000000  0  8  4  7  9  8 10  5 24 30
  21679039.383   -19750748.14249 -12555053.96649  21679039.4834   21679041.6244
  24269823.590    -8427357.11049  -2597949.67249  24269822.4324   24269825.0964
  22162074.188   -18997741.08449 -10995831.26349  22162074.2654   22162076.6734
  21709290.787   -19599595.92349 -14969815.64849  21709290.7014   21709293.2424
  23729817.448    -8135561.99149  -6321806.65149  23729816.7404   23729820.4574
  20839670.748   -25556863.14849 -19903556.54349  20839670.2174   20839672.7024
  20208069.845   -27685363.52549 -21554410.64449  20208069.5954   20208072.6854
  23568387.946   -10370883.13749  -6815802.41349  23568387.6454   23568390.2184
 98  1 28  2 27 30.0000000  0  8  4  7  9  8 10  5 24 30
  21692415.797   -19680454.41649 -12500279.62849  21692415.8634   21692417.8184
  24282720.071    -8359585.10249  -2545140.27449  24282719.1134   24282722.7024
  22174473.340   -18932583.00249 -10945058.73449  22174473.0824   22174476.0404
  21708486.750   -19603821.25849 -14973108.12549  21708486.4484   21708489.1834
  23711359.115    -8232561.35349  -6397390.52549  23711358.3384   23711361.9584
  20829733.092   -25609085.84449 -19944249.54549  20829732.4564   20829734.8974
  20206601.542   -27693079.38749 -21560422.99549  20206601.2114   20206604.3044
  23549398.803   -10470671.96549  -6893559.91849  23549398.5814   23549400.3604
 98  1 28  2 28  0.0000000  0  8  4  7  9  8 10  5 24 30
  21705863.428   -19609786.56949 -12445213.77749  21705863.4134   21705865.7894
  24295630.404    -8291739.67949  -2492273.75549  24295629.9454   24295633.5954
  22186945.612   -18867040.42049 -10893986.61249  22186945.6174   22186948.2374
  21707808.707   -19607384.29449 -14975884.53349  21707807.9574   21707811.3384
  23692922.687    -8329444.97249  -6472884.23449  23692921.6124   23692925.8324
  20819873.737   -25660897.01449 -19984621.88349  20819873.2724   20819875.6174
  20205241.451   -27700226.64849 -21565992.28849  20205241.1734   20205244.2424
  23530428.800   -10570359.86449  -6971238.80149  23530428.4334   23530431.5804
 98  1 28  2 28 30.0000000  0  8  4  7  9  8 10  5 24 30
  21719374.933   -19538783.19249 -12389886.45849  21719374.9704   21719377.2954
  24308548.718    -8223853.27249  -2439375.26049  24308549.2024   24308551.5894
  22199483.405   -18801153.91649 -10842646.48049  22199482.8784   22199485.8714
  21707248.930   -19610325.79049 -14978176.62249  21707248.3654   21707251.0924
  23674499.451    -8426259.45549  -6548324.04949  23674498.7364   23674501.7024
  20810083.046   -25712347.50249 -20024713.16249  20810082.5304   20810084.9954
  20203985.606   -27706826.28549 -21571134.85049  20203985.5224   20203988.4214
  23511470.918   -10669984.05749  -7048868.02749  23511471.3574   23511473.0264
 98  1 28  2 29  0.0000000  0  8  4  7  9  8 10  5 24 30
  21732961.983   -19467382.66849 -12334249.69049  21732962.1034   21732964.2044
  24321481.434    -8155892.34049  -2386418.71149  24321481.4094   24321484.5774
  22212097.994   -18734864.10249 -10790992.09449  22212097.9054   22212100.6634
  21706816.285   -19612599.41849 -14979948.29649  21706816.3944   21706818.7804
  23656097.663    -8522960.28249  -6623675.33449  23656096.3654   23656100.0594
  20800368.709   -25763396.87949 -20064491.89549  20800368.2054   20800370.6204
  20202844.330   -27712823.65349 -21575808.12049  20202844.1524   20202847.2664
  23492535.055   -10769492.58749  -7126407.14749  23492535.8664   23492538.3334
 98  1 28  2 29 30.0000000  0  8  4  7  9  8 10  5 24 30
  21746624.162   -19395587.52549 -12278305.42349  21746624.2454   21746626.5324
  24334429.466    -8087849.85449  -2333398.66749  24334430.0454   24334432.1034
  22224789.147   -18668171.36349 -10739023.73649  22224788.9594   22224791.8454
  21706509.206   -19614213.17049 -14981205.78449  21706508.6574   21706511.5094
  23637717.910    -8619546.87249  -6698937.58949  23637717.4694   23637720.8094
  20790728.191   -25814058.04549 -20103968.12249  20790727.6294   20790730.0704
  20201813.222   -27718242.04749 -21580030.24049  20201812.9864   20201816.0104
  23473624.464   -10868868.39749  -7203842.83449  23473624.3584   23473627.1574
 98  1 28  2 30  0.0000000  0  8  4  7  9  8 10  5 24 30
  21760361.203   -19323398.91049 -12222054.55349  21760361.2754   21760363.7164
  24347392.497    -8019729.82749  -2280318.10349  24347392.1414   24347395.5024
  22237555.787   -18601082.39949 -10686746.63649  22237555.9204   22237558.3884
  21706330.631   -19615151.69649 -14981937.11549  21706330.5204   21706333.2474
  23619360.007    -8716018.70549  -6774110.42549  23619359.1084   23619363.2914
  20781160.426   -25864336.84849 -20143146.40849  20781159.8424   20781162.2974
  20200889.118   -27723098.28349 -21583814.31249  20200888.9964   20200891.8604
  23454742.191   -10968095.87349  -7281162.94649  23454743.0994   23454745.3214
 98  1 28  2 30 30.0000000  0  8  4  7  9  8 10  5 24 30
  21774175.892   -19250802.18049 -12165485.67249  21774175.9824   21774178.1704
  24360369.707    -7951534.31449  -2227178.80349  24360369.3174   24360373.4794
  22250401.042   -18533580.18149 -10634147.51849  22250400.3784   22250403.6344
  21706284.540   -19615393.85549 -14982125.82249  21706283.9924   21706287.4594
  23601027.474    -8812356.83149  -6849179.09049  23601026.6794   23601030.6934
  20771669.711   -25914210.75449 -20182009.18449  20771669.1334   20771671.6964
  20200071.468   -27727394.99449 -21587162.39149  20200070.9524   20200074.1014
  23435890.971   -11067159.52249  -7358355.40049  23435891.7304   23435892.9874
 98  1 28  2 31  0.0000000  0  8  4  7  9  8 10  5 24 30
  21788068.653   -19177794.97849 -12108596.94349  21788068.8144   21788070.8814
  24373362.335    -7883257.34649  -2173975.99149  24373361.3634   24373365.1894
  22263326.442   -18465656.99449 -10581220.37149  22263326.4404   22263329.1094
  21706370.306   -19614943.30849 -14981774.76349  21706370.0034   21706372.7204
  23582723.610    -8908544.40849  -6924130.44449  23582723.2704   23582725.2394
  20762263.124   -25963642.64849 -20220527.54149  20762262.5454   20762265.0494
  20199357.894   -27731144.77749 -21590084.29549  20199357.6864   20199360.8284
  23417073.442   -11166046.25249  -7435409.98049  23417073.6674   23417076.4484
 98  1 28  2 31 30.0000000  0  8  4  7  9  8 10  5 24 30
  21802026.087   -19104448.12449 -12051443.54949  21802026.3714   21802028.8264
  24386360.495    -7814951.53049  -2120750.68249  24386360.2444   24386363.1144
  22276319.172   -18397379.77449 -10528017.36249  22276318.9954   22276321.8544
  21706575.235   -19613866.56549 -14980935.75349  21706574.7014   21706577.6384
  23564438.036    -9004636.00649  -6999006.99049  23564437.3394   23564440.7574
  20752932.552   -26012675.20949 -20258734.72749  20752931.9544   20752934.4524
  20198735.990   -27734412.98649 -21592630.95049  20198735.7364   20198738.7444
  23398278.163   -11264815.97449  -7512373.39449  23398277.6994   23398279.9954
 98  1 28  2 32  0.0000000  0  8  4  7  9  8 10  5 24 30
  21816053.929   -19030731.32649 -11994001.88849  21816053.9904   21816056.3214
  24399370.469    -7746583.84949  -2067477.14149  24399370.3974   24399373.5444
  22289386.691   -18328709.51049 -10474508.06949  22289386.4094   22289389.7214
  21706905.674   -19612129.78649 -14979582.43349  21706905.0124   21706908.1414
  23546177.633    -9100594.88949  -7073780.14549  23546176.6214   23546180.6334
  20743687.235   -26061259.59749 -20296592.68749  20743686.8044   20743689.2324
  20198215.457   -27737148.37949 -21594762.41549  20198215.2074   20198218.1194
  23379510.868   -11363439.03949  -7589222.52249  23379510.6324   23379513.6664
 98  1 28  2 32 30.0000000  0  8  4  7  9  8 10  5 24 30
  21830150.613   -18956652.51949 -11936278.14749  21830150.8314   21830152.9874
  24412391.479    -7678158.01849  -2014158.34449  24412390.2344   24412394.4384
  22302527.940   -18259651.81549 -10420696.89149  22302527.8714   22302530.6294
  21707357.892   -19609753.28049 -14977730.62649  21707357.5494   21707360.2444
  23527944.371    -9196411.15949  -7148442.15549  23527943.9034   23527946.8634
  20734527.495   -26109394.44449 -20334100.35849  20734527.0364   20734529.4804
  20197796.896   -27739347.75849 -21596476.21249  20197796.4564   20197799.5814
  23360770.025   -11461922.80249  -7665963.11149  23360770.2754   23360772.2004
 98  1 28  2 33  0.0000000  0  8  4  7  9  8 10  5 24 30
  21844311.114   -18882238.60649 -11878293.27849  21844311.2284   21844313.4914
  24425421.599    -7609683.93049  -1960801.94849  24425420.7734   24425424.7884
  22315738.369   -18190230.56749 -10366602.42749  22315738.1064   22315741.1934
  21707928.852   -19606753.24049 -14975392.94349  21707928.3844   21707931.4394
  23509737.465    -9292088.83349  -7222996.16049  23509736.6384   23509739.9814
  20725446.718   -26157114.15149 -20371284.54149  20725446.2024   20725448.6644
  20197477.779   -27741024.79149 -21597782.98349  20197477.5374   20197480.6284
  23342054.580   -11560272.85149  -7742599.49049  23342054.3224   23342057.2574
 98  1 28  2 33 30.0000000  0  8  4  7  9  8 10  5 24 30
  21858547.868   -18807423.87149 -11819996.08049  21858548.0724   21858550.3904
  24438475.084    -7541087.32649  -1907350.11649  24438474.6364   24438478.1054
  22329030.168   -18120381.92649 -10312174.93049  22329029.8244   22329032.6184
  21708634.637   -19603044.40249 -14972502.95349  21708634.1554   21708637.0344
  23491572.736    -9387545.09449  -7297377.64549  23491572.2734   23491575.7524
  20716453.381   -26204374.43849 -20408110.73449  20716452.7884   20716455.1884
  20197274.375   -27742093.43749 -21598615.68849  20197274.1284   20197277.2514
  23323378.171   -11658417.85249  -7819076.09449  23323378.5714   23323380.6574
 98  1 28  2 34  0.0000000  0  8  4  7  9  8 10  5 24 30
  21872854.496   -18732241.84549 -11761412.68849  21872854.4384   21872856.9274
  24451544.993    -7472404.30449  -1853830.89849  24451545.0484   24451546.7684
  22342394.641   -18050151.26449 -10257449.74249  22342395.2024   22342396.9494
  21709467.953   -19598665.30549 -14969090.68149  21709467.6084   21709470.2644
  23473443.850    -9482813.18649  -7371612.49649  23473442.5944   23473446.5124
  20707538.489   -26251222.46249 -20444615.68349  20707537.8904   20707540.3904
  20197181.123   -27742583.43349 -21598997.49549  20197180.8334   20197183.9674
  23304734.952   -11756388.46949  -7895416.80349  23304735.0784   23304737.9304
 98  1 28  2 34 30.0000000  0  8  4  7  9  8 10  5 24 30
  21887229.149   -18656702.71349 -11702551.02649  21887229.4264   21887231.3284
  24464629.655    -7403644.44949  -1800251.74249  24464629.2804   24464632.2784
  22355828.537   -17979555.96749 -10202440.43349  22355828.3924   22355831.1174
  21710429.235   -19593614.07649 -14965154.67149  21710428.8034   21710431.5944
  23455350.025    -9577896.79049  -7445703.59849  23455349.0704   23455353.2124
  20698699.363   -26297672.31249 -20480810.36949  20698698.7494   20698701.3244
  20197196.686   -27742501.62049 -21598933.74149  20197196.3924   20197199.3874
  23286124.797   -11854185.26849  -7971622.07349  23286124.8014   23286127.5464
 98  1 28  2 35  0.0000000  0  7  4  9  8 10  5 24 30
  21901675.371   -18580787.30249 -11643396.16049  21901675.5854   21901677.9594
  22369337.271   -17908567.25549 -10147124.56749  22369337.3704   22369340.0914
  21711527.217   -19587843.91349 -14960658.44749  21711526.8834   21711529.7924
  23437293.663    -9672783.12749  -7519640.97049  23437293.2304   23437296.3684
  20689941.099   -26343697.22949 -20516673.93849  20689940.5524   20689943.0124
  20197327.094   -27741816.33249 -21598399.74349  20197327.0114   20197330.1074
  23267552.988   -11951780.93149  -8047670.61849  23267552.4194   23267555.2064
 98  1 28  2 35 30.0000000  0  7  4  9  8 10  5 24 30
  21916189.261   -18504516.43749 -11583964.31749  21916189.3484   21916191.2194
  22382917.201   -17837204.33449 -10091517.10749  22382916.9794   22382919.9924
  21712756.241   -19581385.21349 -14955625.70549  21712755.7624   21712758.6844
  23419266.671    -9767515.78649  -7593458.60349  23419265.9904   23419268.9584
  20681263.114   -26389300.27549 -20552208.77649  20681262.4604   20681265.0094
  20197567.631   -27740552.28149 -21597414.76049  20197567.4154   20197570.4874
  23249011.786   -12049215.27749  -8123593.44749  23249011.6344   23249014.5824
 98  1 28  2 36  0.0000000  0  7  4  9  8 10  5 24 30
  21930772.359   -18427881.98949 -11524249.16149  21930772.7824   21930775.0004
  22396571.841   -17765448.55249 -10035603.51949  22396571.8364   22396574.4664
  21714118.224   -19574227.99949 -14950048.66549  21714117.2394   21714120.7834
  23401269.923    -9862088.84849  -7667151.87849  23401269.1784   23401273.2384
  20672672.967   -26434441.74949 -20587383.94649  20672672.3874   20672674.8684
  20197921.478   -27738692.76249 -21595965.77549  20197921.2304   20197924.3844
  23230504.330   -12146472.64549  -8199378.37949  23230503.5274   23230506.2554
 98  1 28  2 36 30.0000000  0  7  4  9  8 10  5 24 30
  21945416.267   -18350927.79849 -11464284.86049  21945416.6844   21945418.6304
  22410296.038   -17693327.20249  -9979405.08049  22410295.5554   22410298.8904
  21715608.806   -19566394.74949 -14943944.84449  21715608.4974   21715611.4694
  23383298.948    -9956526.76449  -7740739.83849  23383297.6104   23383301.5254
  20664165.127   -26479150.63549 -20622222.04549  20664164.6664   20664167.1784
  20198380.632   -27736279.82649 -21594085.56349  20198380.4524   20198383.5114
  23212024.259   -12243585.75949  -8275050.91949  23212024.3204   23212026.1044
 98  1 28  2 37  0.0000000  0  8  4  9  8 10  5  6 24 30
  21960127.881   -18273617.92549 -11404043.39649  21960127.8904   21960130.0544
  22424095.913   -17620808.30649  -9922896.85849  22424095.9014   22424098.3934
  21717231.191   -19557869.19749 -14937301.56549  21717231.0344   21717233.6744
  23365361.125   -10050790.51849  -7814192.07949  23365360.3984   23365364.3834
  20655748.893   -26523378.19649 -20656685.07449  20655748.4134   20655750.8294
  24924657.132    -4229379.27349  -2477763.00649  24924657.5694   24924661.0644
  20198950.948   -27733282.74749 -21591750.16849  20198950.4484   20198953.7234
  23193578.622   -12340517.83649  -8350582.37349  23193578.6004   23193581.6404
 98  1 28  2 37 30.0000000  0  8  4  9  8 10  5  6 24 30
  21974897.100   -18196005.04849 -11343565.83049  21974897.1654   21974899.6214
  22437957.365   -17547965.77349  -9866136.45849  22437956.9264   22437959.9814
  21718971.463   -19548724.03249 -14930175.46649  21718970.6394   21718973.3544
  23347449.648   -10144915.52949  -7887536.21949  23347448.8184   23347452.6184
  20647414.399   -26567176.34349 -20690813.49849  20647413.8834   20647416.2794
  24910816.145    -4302114.24149  -2534439.55849  24910815.3414   24910819.2744
  20199621.640   -27729757.95049 -21589003.56649  20199621.3534   20199624.4164
  23175159.971   -12437308.25149  -8426003.45549  23175160.1014   23175162.2624
 98  1 28  2 38  0.0000000  0  8  4  9  8 10  5  6 24 30
  21989728.517   -18118065.32349 -11282833.57349  21989728.4084   21989730.8474
  22451880.533   -17474799.01749  -9809123.41049  22451880.3374   22451883.4834
  21720834.853   -19538931.81549 -14922545.18349  21720834.1794   21720837.1654
  23329571.106   -10238867.88149  -7960745.82749  23329570.6644   23329573.7954
  20639163.068   -26610537.40549 -20724601.33849  20639162.4854   20639165.0144
  24896992.252    -4374758.64949  -2591045.53949  24896991.5214   24896995.4154
  20200395.400   -27725691.79949 -21585835.13549  20200395.2074   20200398.1664
  23156775.919   -12533916.71549  -8501282.75849  23156776.1974   23156778.5804
 98  1 28  2 38 30.0000000  0  8  4  9  8 10  5  6 24 30
  22004628.812   -18039763.54749 -11221819.20249  22004628.7824   22004630.9774
  22465867.084   -17401299.10149  -9751850.76549  22465866.8844   22465869.7964
  21722825.476   -19528471.00649 -14914393.90949  21722825.1614   21722827.5264
  23311732.435   -10332611.42749  -8033792.71749  23311731.3344   23311735.0754
  20630995.809   -26653456.60249 -20758044.86949  20630995.3894   20630997.7394
  24883189.378    -4447293.03949  -2647565.80849  24883189.5864   24883192.9524
  20201271.012   -27721090.43349 -21582249.64749  20201270.7814   20201273.9024
  23138429.782   -12630326.26149  -8576407.04449  23138430.1884   23138432.4994
 98  1 28  2 39  0.0000000  0  8  4  9  8 10  5  6 24 30
  22019589.922   -17961142.35949 -11160555.93949  22019590.0454   22019592.3724
  22479907.515   -17327515.99349  -9694357.45049  22479907.0944   22479910.4164
  21724933.574   -19517392.91849 -14905761.64549  21724933.0324   21724936.0054
  23293924.349   -10426193.13849  -8106713.51749  23293923.3324   23293926.9494
  20622904.819   -26695974.98249 -20791176.07349  20622904.2604   20622906.7814
  24869397.848    -4519768.33749  -2704040.05449  24869396.6454   24869401.5834
  20202239.218   -27716002.53949 -21578285.04949  20202238.8714   20202242.0164
  23120112.575   -12726583.49549  -8651412.65149  23120112.3894   23120115.3864
 98  1 28  2 39 30.0000000  0  8  4  9  8 10  5  6 24 30
  22034623.746   -17882139.03849 -11098994.89649  22034623.6474   22034625.9594
  22494016.375   -17253373.45249  -9636584.05149  22494016.4664   22494018.9394
  21727174.915   -19505614.57049 -14896583.71749  21727174.4904   21727177.4784
  23276160.242   -10519544.12149  -8179454.51249  23276158.9504   23276162.9294
  20614901.056   -26738035.00149 -20823950.11049  20614900.5514   20614903.0134
  24855629.127    -4592123.44049  -2760420.60149  24855629.5764   24855632.5124
  20203311.859   -27710365.76949 -21573892.75349  20203311.5884   20203314.6184
  23101837.444   -12822619.81449  -8726246.12549  23101837.1614   23101840.1174
 98  1 28  2 40  0.0000000  0  8  4  9  8 10  5  6 24 30
  22049728.299   -17802763.98949 -11037144.21249  22049728.6014   22049730.5354
  22508196.195   -17178858.15049  -9578520.19849  22508196.1704   22508199.0164
  21729546.320   -19493153.08249 -14886873.47949  21729546.1784   21729548.5954
  23258436.718   -10612681.24749  -8252028.87949  23258436.0904   23258439.3844
  20606983.265   -26779643.48749 -20856372.31049  20606982.7634   20606985.0544
  24841877.921    -4664386.86049  -2816729.72749  24841877.7064   24841880.8464
  20204485.846   -27704196.29549 -21569085.37049  20204485.6964   20204488.7494
  23083599.362   -12918461.72749  -8800928.11649  23083599.7364   23083601.7784
 98  1 28  2 40 30.0000000  0  8  4  9  8 10  5  6 24 30
  22064895.874   -17723057.74749 -10975035.45349  22064896.0304   22064898.5444
  22522447.261   -17103968.45049  -9520164.60049  22522446.9544   22522450.1834
  21732040.959   -19480043.68849 -14876658.37649  21732040.6914   21732043.2874
  23240750.713   -10705621.71149  -8324449.99149  23240749.7144   23240753.5654
  20599151.401   -26820800.26249 -20888442.52749  20599150.9854   20599153.3294
  24828139.954    -4736580.17749  -2872984.23149  24828139.3874   24828142.7404
  20205761.476   -27697492.75549 -21563861.82949  20205761.1934   20205764.2264
  23065393.872   -13014132.09849  -8875476.43049  23065394.0304   23065396.1734
 98  1 28  2 41  0.0000000  0  8  4  9  8 10  5  6 24 30
  22080129.553   -17643004.04749 -10912655.94249  22080129.6544   22080132.1114
  22536777.232   -17028664.00849  -9461485.82649  22536777.2444   22536779.7504
  21734662.753   -19466266.10049 -14865922.60149  21734662.4364   21734665.0584
  23223106.488   -10798343.17749  -8396700.46749  23223105.9384   23223109.9634
  20591414.006   -26861460.45749 -20920125.79249  20591413.4314   20591415.8924
  24814422.878    -4808663.53949  -2929153.08749  24814422.4134   24814425.8604
  20207149.180   -27690200.18149 -21558179.29649  20207149.0524   20207152.2634
  23047229.207   -13109588.02149  -8949857.65249  23047229.8154   23047231.2874
 98  1 28  2 41 30.0000000  0  8  4  9  8 10  5  6 24 30
  22095422.094   -17562641.02349 -10850035.40249  22095422.3074   22095424.4414
  22551177.911   -16952988.05449  -9402517.56049  22551177.6554   22551180.6644
  21737401.526   -19451873.70549 -14854707.75849  21737400.9804   21737404.0294
  23205497.125   -10890881.28749  -8468808.06749  23205496.0694   23205499.4684
  20583764.170   -26901660.43349 -20951450.44949  20583763.5974   20583766.0394
  24800720.068    -4880671.75349  -2985263.32849  24800721.0884   24800723.0034
  20208640.880   -27682361.40549 -21552071.15749  20208640.6994   20208643.8194
  23029098.630   -13204865.10849  -9024099.52749  23029098.1574   23029101.7524
 98  1 28  2 42  0.0000000  0  8  4  9  8 10  5  6 24 30
  22110770.108   -17481986.66849 -10787187.85449  22110770.3624   22110772.5764
  22565645.192   -16876962.04149  -9343276.52549  22565644.7694   22565648.4384
  21740253.788   -19436885.11749 -14843028.34949  21740253.5664   21740256.2054
  23187920.187   -10983248.73749  -8540782.68249  23187919.3574   23187923.0624
  20576201.464   -26941402.64549 -20982418.40949  20576201.0624   20576203.4034
  24787030.356    -4952610.93649  -3041319.81749  24787029.5674   24787033.4174
  20210235.422   -27673981.92349 -21545541.68749  20210235.2954   20210238.2884
  23010999.578   -13299975.93449  -9098211.83849  23010999.4474   23011002.0074
 98  1 28  2 42 30.0000000  0  8  4  9  8 10  5  6 24 30
  22126177.235   -17401021.68749 -10724098.26249  22126177.4464   22126179.6524
  22580180.311   -16800579.33449  -9283757.54949  22580179.9374   22580182.8464
  21743227.698   -19421257.10249 -14830850.68249  21743227.1774   21743229.9344
  23170381.930   -11075412.50749  -8612598.60349  23170381.5294   23170384.1724
  20568729.219   -26980669.54149 -21013015.99049  20568728.5864   20568731.1514
  24773358.864    -5024455.64949  -3097302.71249  24773358.5214   24773361.9314
  20211936.889   -27665040.60049 -21538574.41849  20211936.7074   20211939.7974
  22992939.282   -13394883.48149  -9172165.75949  22992938.8704   22992942.3824
 98  1 28  2 43  0.0000000  0  8  4  9  8 10  5  6 24 30
  22141647.370   -17319725.56249 -10660750.63549  22141647.5464   22141649.8164
  22594780.234   -16723855.84649  -9223973.03349  22594780.1894   22594783.2894
  21746327.013   -19404969.96449 -14818159.41749  21746326.7914   21746329.2384
  23152886.301   -11167353.01549  -8684240.54549  23152885.6714   23152888.1024
  20561347.156   -27019462.75149 -21043244.47249  20561346.7364   20561349.1184
  24759705.238    -5096205.37149  -3153211.55849  24759705.8224   24759707.7084
  20213741.752   -27655555.93349 -21531183.76949  20213741.5784   20213744.5824
  22974919.892   -13489575.75549  -9245951.91949  22974919.5744   22974923.0424
 98  1 28  2 43 30.0000000  0  8  4  9  8 10  5  6 24 30
  22157170.156   -17238152.74549 -10597187.40249  22157170.2604   22157172.3244
  22609434.937   -16646844.95349  -9163964.56049  22609434.3444   22609437.9634
  21749545.259   -19388057.85549 -14804981.16149  21749544.9434   21749547.5144
  23135426.043   -11259106.94149  -8755737.09849  23135425.0394   23135428.6414
  20554045.158   -27057834.88649 -21073144.83549  20554044.7514   20554047.0104
  24746059.327    -5167914.89349  -3209089.11249  24746059.3304   24746062.3714
  20215639.712   -27645582.01049 -21523411.87749  20215639.5344   20215642.5594
  22956933.416   -13584094.93049  -9319603.20349  22956933.6764   22956935.7574
 98  1 28  2 44  0.0000000  0  8  4  9  8 10  5  6 24 30
  22172745.221   -17156305.23249 -10533410.11749  22172745.4084   22172747.4354
  22624145.681   -16569539.48649  -9103726.55249  22624145.5504   22624148.1214
  21752886.984   -19370496.81049 -14791297.23649  21752886.7904   21752889.5824
  23118006.397   -11350647.66349  -8827067.51549  23118005.5384   23118008.4884
  20546823.925   -27095782.60349 -21102714.48649  20546823.3204   20546825.8664
  24732423.920    -5239568.32549  -3264922.91449  24732423.5394   24732426.3394
  20217634.932   -27635097.23449 -21515241.91349  20217634.5634   20217637.7544
  22938983.693   -13678421.26449  -9393104.22049  22938983.5724   22938986.5964
 98  1 28  2 44 30.0000000  0  8  4  9  8 10  5  6 24 30
  22188374.790   -17074171.55849 -10469409.85249  22188374.9384   22188376.8754
  22638912.802   -16491938.02049  -9043257.89649  22638912.5174   22638915.5504
  21756354.023   -19352277.53149 -14777100.40549  21756353.6504   21756356.8364
  23100633.955   -11441940.68249  -8898204.92149  23100632.5954   23100636.5124
  20539686.428   -27133290.33049 -21131941.29149  20539685.9514   20539688.4154
  24718801.527    -5311155.10349  -3320704.83949  24718802.1694   24718803.6714
  20219727.247   -27624102.01049 -21506674.20649  20219726.9644   20219729.9904
  22921074.139   -13772536.51649  -9466440.75849  22921074.3604   22921076.5424
 98  1 28  2 45  0.0000000  0  8  4  9  8 10  5  6 24 30
  22204061.031   -16991739.57249 -10405177.13749  22204061.3984   22204063.7274
  22653740.193   -16414019.23349  -8982541.96849  22653739.6524   22653742.8804
  21759946.740   -19333397.82149 -14762388.95449  21759946.1834   21759949.7094
  23083313.218   -11532961.25049  -8969130.01849  23083312.1464   23083315.9184
  20532640.325   -27170317.91449 -21160793.95749  20532639.7794   20532642.2294
  24705198.036    -5382641.45749  -3376408.46849  24705197.3184   24705201.6364
  20221920.948   -27612573.91049 -21497691.26649  20221920.5764   20221923.7824
  22903209.017   -13866417.86049  -9539595.02649  22903209.2184   22903212.1344
 98  1 28  2 45 30.0000000  0  8  4  9  8 10  5  6 24 30
  22219804.127   -16909009.11149 -10340711.83949  22219804.1904   22219806.6894
  22668628.841   -16335778.97149  -8921575.54549  22668628.8154   22668631.5154
  21763662.580   -19313870.79349 -14747173.09349  21763662.1704   21763665.4494
  23066043.797   -11623712.25449  -9039845.05949  23066042.6314   23066047.0994
  20525683.781   -27206874.69849 -21189279.76249  20525683.4554   20525685.7934
  24691616.211    -5454015.14149  -3432024.32749  24691615.7604   24691619.5344
  20224219.809   -27600493.34149 -21488277.83249  20224219.6844   20224222.7494
  22885387.233   -13960072.16949  -9612572.38849  22885388.0564   22885389.2664
 98  1 28  2 46  0.0000000  0  8  4  9  8 10  5  6 24 30
  22235598.178   -16826010.63049 -10276037.70649  22235598.6054   22235600.5084
  22683567.909   -16257273.70849  -8860402.62049  22683567.4434   22683571.3024
  21767491.553   -19293749.45949 -14731494.14349  21767491.1494   21767494.0564
  23048817.558   -11714236.80049  -9110383.64449  23048816.6764   23048820.0474
  20518810.402   -27242994.47749 -21217425.04749  20518809.9634   20518812.4454
  24678046.755    -5525323.03249  -3487588.89349  24678046.4044   24678049.9834
  20226616.339   -27587899.51249 -21478464.45349  20226616.1654   20226619.2334
  22867600.101   -14053544.28749  -9685407.77149  22867600.3204   22867602.6144
 98  1 28  2 46 30.0000000  0  8  4  9  8 10  5  6 24 30
  22251453.544   -16742690.10749 -10211112.62149  22251453.5194   22251455.4834
  22698565.231   -16178462.21749  -8798991.08249  22698565.1304   22698568.3314
  21771442.264   -19272988.60949 -14715316.87049  21771441.7254   21771444.7354
  23031639.706   -11804506.71949  -9180723.81849  23031638.9584   23031642.4214
  20512031.867   -27278615.92249 -21245182.02249  20512031.4164   20512033.7624
  24664495.211    -5596537.29649  -3543080.51549  24664494.4664   24664497.8284
  20229119.394   -27574745.94449 -21468214.91849  20229119.1324   20229122.2254
  22849855.194   -14146794.38749  -9758070.16349  22849855.3644   22849857.1434
 98  1 28  2 47  0.0000000  0  8  4  9  8 10  5  6 24 30
  22267377.769   -16659007.68249 -10145905.53749  22267377.7754   22267380.1694
  22713627.650   -16099308.91849  -8737313.20949  22713626.9734   22713631.0334
  21775521.923   -19251550.13149 -14698611.58149  21775521.5704   21775524.5584
  23014512.518   -11894511.15049  -9250857.12649  23014512.3854   23014515.1534
  20505351.599   -27313720.96849 -21272536.60949  20505351.1114   20505353.6884
  24650966.349    -5667631.74749  -3598478.78649  24650965.8814   24650969.5974
  20231736.327   -27560993.75149 -21457498.92149  20231736.3204   20231739.3274
  22832158.100   -14239793.34349  -9830536.86449  22832157.8064   22832160.8604
 98  1 28  2 47 30.0000000  0  8  4  9  8 10  5  6 24 30
  22283361.579   -16575012.21449 -10080454.52349  22283361.9604   22283363.7844
  22728743.252   -16019875.88649  -8675417.34949  22728743.0494   22728746.0824
  21779720.450   -19229486.77349 -14681419.36549  21779720.0744   21779723.0614
  22997422.154   -11984321.63949  -9320839.30149  22997420.8874   22997424.7884
  20498757.182   -27348374.95549 -21299539.72049  20498756.5464   20498759.3194
  24637445.333    -5738684.91249  -3653844.88349  24637445.9614   24637447.6204
  20234454.029   -27546712.19849 -21446370.43349  20234453.7894   20234456.9514
  22814498.219   -14332596.43649  -9902850.94249  22814498.6814   22814500.6554
 98  1 28  2 48  0.0000000  0  8  4  9  8 10  5  6 24 30
  22299411.945   -16490666.90949 -10014730.91249  22299411.9784   22299414.2974
  22743923.701   -15940102.10349  -8613255.97449  22743923.3104   22743926.2984
  21784052.412   -19206722.03249 -14663680.61749  21784052.0454   21784054.7764
  22980379.310   -12073882.12049  -9390626.67749  22980378.5854   22980381.8104
  20492263.476   -27382499.56749 -21326130.33449  20492263.0414   20492265.5504
  24623939.815    -5809657.18349  -3709147.96049  24623939.4714   24623943.7144
  20237277.524   -27531874.40849 -21434808.51649  20237277.2344   20237280.4294
  22796888.303   -14425137.13649  -9974960.55949  22796888.2734   22796890.0574
 98  1 28  2 48 30.0000000  0  8  4  9  8 10  5  6 24 30
  22315526.292   -16405985.52249  -9948745.41049  22315526.5424   22315528.4484
  22759172.287   -15859970.04349  -8550815.41949  22759171.7734   22759175.1624
  21788518.602   -19183251.74749 -14645392.09449  21788518.2634   21788521.2964
  22963385.250   -12163186.19049  -9460214.23949  22963384.6704   22963388.1954
  20485870.890   -27416092.67249 -21352306.78249  20485870.4774   20485872.8954
  24610452.748    -5880532.38649  -3764375.39949  24610452.5284   24610456.0064
  20240203.478   -27516498.53649 -21422827.30949  20240203.4194   20240206.3654
  22779328.876   -14517412.67049 -10046863.55649  22779328.9494   22779331.3224
 98  1 28  2 49  0.0000000  0  8  4  9  8 10  5  6 24 30
  22331702.245   -16320980.39749  -9882507.65549  22331702.4444   22331704.2324
  22774489.214   -15779479.06149  -8488095.19249  22774488.5604   22774491.8294
  21793114.603   -19159099.84749 -14626572.44249  21793114.1414   21793117.1854
  22946442.431   -12252221.35149  -9529592.27049  22946441.7494   22946444.7614
  20479579.098   -27449156.40449 -21378070.73649  20479578.6434   20479581.0294
  24596985.691    -5951301.66549  -3819520.28349  24596984.9824   24596988.1164
  20243228.273   -27500603.14849 -21410441.29049  20243228.1454   20243231.0934
  22761818.705   -14609429.41149 -10118564.90249  22761819.0314   22761821.0964
 98  1 28  2 49 30.0000000  0  8  4  9  8 10  5  6 24 30
  22347946.506   -16235616.20749  -9815990.11149  22347946.4894   22347948.5414
  22789884.447   -15698576.55949  -8425054.30749  22789884.1914   22789887.6094
  21797849.177   -19134219.68549 -14607185.31949  21797849.0334   21797851.9034
  22929565.950   -12340908.02949  -9598698.75749  22929564.8134   22929568.6754
  20473402.456   -27481615.10049 -21403363.23749  20473401.9294   20473404.5704
  24583552.296    -6021895.10949  -3874528.18049  24583551.6114   24583555.5134
  20246362.555   -27484132.37849 -21397606.92649  20246362.3854   20246365.4634
  22744369.638   -14701124.90749 -10190015.93549  22744370.1804   22744371.9544
 98  1 28  2 50  0.0000000  0  8  4  9  8 10  5  6 24 30
  22364242.751   -16149978.75449  -9749259.62649  22364242.6074   22364245.0894
  22805341.781   -15617347.79849  -8361759.17649  22805341.6114   22805344.5324
  21802709.020   -19108680.87249 -14587284.95249  21802708.5194   21802711.4974
  22912745.314   -12429300.96249  -9667576.33949  22912744.1174   22912747.7724
  20467327.141   -27513541.05649 -21428240.60649  20467326.6954   20467329.2334
  24570142.831    -6092362.15449  -3929437.55649  24570142.5244   24570145.5724
  20249596.097   -27467139.83849 -21384365.97649  20249595.9764   20249599.0444
  22726966.756   -14792577.76649 -10261277.88949  22726966.7784   22726969.2354
 98  1 28  2 50 30.0000000  0  8  4  9  8 10  5  6 24 30
  22380602.126   -16064009.64349  -9682270.70849  22380602.2214   22380604.6604
  22820867.437   -15535760.30849  -8298184.52149  22820867.4724   22820869.8744
  21807698.244   -19082462.24449 -14566854.86849  21807697.8154   21807700.5654
  22895990.469   -12517347.85949  -9736184.28849  22895989.7064   22895993.5474
  20461360.046   -27544898.24249 -21452674.78549  20461359.5364   20461362.1784
  24556769.348    -6162639.90149  -3984199.45849  24556769.4424   24556772.5124
  20252941.683   -27449558.66149 -21370666.35649  20252941.6004   20252944.7044
  22709617.928   -14883746.36849 -10332318.35049  22709618.4784   22709619.9294
 98  1 28  2 51  0.0000000  0  8  4  9  8 10  5  6 24 30
  22397017.780   -15977745.00049  -9615051.50449  22397017.9274   22397019.9864
  22836449.557   -15453876.13249  -8234378.67949  22836449.5454   22836451.9594
  21812808.150   -19055609.41649 -14545930.59949  21812807.7774   21812810.6244
  22879294.838   -12605084.09749  -9804550.16549  22879294.2044   22879297.2154
  20455491.203   -27575739.19549 -21476706.70249  20455490.7684   20455493.3404
  24543422.234    -6232779.55649  -4038853.74049  24543422.6224   24543425.8344
  20256393.029   -27431421.66649 -21356533.62649  20256392.7214   20256395.8134
  22692318.026   -14974657.89949 -10403158.48949  22692317.9654   22692319.4644
 98  1 28  2 51 30.0000000  0  8  4  9  8 10  5  6 24 30
  22413490.651   -15891179.33149  -9547597.73449  22413491.4034   22413492.8984
  22852086.831   -15371701.94849  -8170346.86049  22852086.0304   22852089.9194
  21818045.629   -19028086.40249 -14524484.10749  21818045.0324   21818048.3374
  22862658.572   -12692508.15849  -9872672.79249  22862657.5524   22862661.6184
  20449720.687   -27606063.55449 -21500336.08049  20449720.1534   20449722.6434
  24530102.903    -6302772.69849  -4093393.83349  24530101.8544   24530105.8554
  20259951.998   -27412718.93349 -21341960.06549  20259951.8574   20259955.0474
  22675072.489   -15065283.65749 -10473775.96249  22675072.8844   22675074.3584
 98  1 28  2 52  0.0000000  0  8  4  9  8 10  5  6 24 30
  22430013.906   -15804349.17049  -9479937.86549  22430013.5654   22430016.5564
  22867766.908   -15289302.46149  -8106139.48149  22867766.7354   22867769.7514
  21823399.695   -18999950.49049 -14502560.02549  21823399.4454   21823401.9224
  22846070.341   -12779680.11849  -9940598.97949  22846069.1054   22846072.8874
  20444036.682   -27635933.20349 -21523611.13449  20444036.2084   20444038.8404
  24516797.718    -6372692.16849  -4147876.53549  24516797.1844   24516801.0514
  20263607.368   -27393509.71249 -21326991.83549  20263607.1674   20263610.2044
  22657870.984   -15155678.09349 -10544213.17549  22657871.0324   22657873.4424
 98  1 28  2 52 30.0000000  0  8  4  9  8 10  5  6 24 30
  22446604.485   -15717165.42249  -9412002.48049  22446604.6494   22446606.9854
  22883507.892   -15206582.92949  -8041682.71949  22883508.1474   22883510.9944
  21828883.415   -18971133.26649 -14480105.06349  21828882.8594   21828885.8564
  22829547.382   -12866508.61149 -10008257.52949  22829546.1944   22829549.7024
  20438455.740   -27665261.35249 -21546464.24249  20438455.2124   20438457.6224
  24503516.552    -6442485.35449  -4202260.81049  24503515.8094   24503519.1294
  20267373.017   -27373721.12449 -21311572.15349  20267372.9504   20267375.8164
  22640730.873   -15245749.90149 -10614398.99949  22640731.3584   22640733.7964
 98  1 28  2 53  0.0000000  0  8  4  9  8 10  5  6 24 30
  22463259.855   -15629640.67549  -9343801.37149  22463260.3084   22463261.8774
  22899309.212   -15123546.17049  -7976978.77049  22899308.6784   22899311.6904
  21834497.907   -18941628.77449 -14457114.56249  21834497.8524   21834500.4114
  22813088.988   -12952997.97449 -10075651.82749  22813087.8584   22813091.7314
  20432977.699   -27694048.52749 -21568895.81249  20432977.2244   20432979.7874
  24490254.620    -6512176.67649  -4256565.68949  24490254.6694   24490257.9594
  20271248.600   -27353354.59149 -21295702.12449  20271248.3974   20271251.4414
  22623652.616   -15335496.45749 -10684331.37349  22623653.1414   22623654.7014
 98  1 28  2 53 30.0000000  0  8  4  9  8 10  5  6 24 30
  22479979.945   -15541776.24249  -9275335.57849  22479979.9744   22479982.0814
  22915173.897   -15040176.58049  -7912015.46349  22915173.9954   22915176.9924
  21840244.454   -18911430.39649 -14433583.36749  21840243.7944   21840246.8894
  22796693.388   -13039157.01849 -10142788.72549  22796692.2984   22796696.4014
  20427606.433   -27722274.68349 -21590890.22349  20427605.9034   20427608.5094
  24477010.993    -6581772.41349  -4310796.09549  24477010.8284   24477014.2384
  20275236.374   -27332398.67649 -21279372.83249  20275235.9964   20275239.3474
  22606634.079   -15424929.32749 -10754019.32349  22606634.0734   22606636.6864
 98  1 28  2 54  0.0000000  0  8  4  9  8 10  5  6 24 30
  22496757.435   -15453610.25149  -9206634.80549  22496757.1994   22496759.3404
  22931097.194   -14956498.76549  -7846811.98449  22931097.2624   22931100.9564
  21846112.702   -18880592.59349 -14409553.93049  21846112.1114   21846115.1294
  22780356.011   -13125009.97349 -10209687.12049  22780354.8094   22780358.7864
  20422336.124   -27749970.34849 -21612471.26649  20422335.7014   20422338.3164
  24463777.231    -6651315.48649  -4364985.44649  24463777.0904   24463779.9464
  20279330.086   -27310885.94649 -21262609.66349  20279329.8724   20279333.0684
  22589666.728   -15514093.46949 -10823497.87449  22589667.1994   22589668.7334
 98  1 28  2 54 30.0000000  0  8  4  9  8 10  5  6 24 30
  22513590.075   -15365153.89649  -9137707.76849  22513590.2164   22513592.4724
  22947083.337   -14872491.02049  -7781351.42749  22947083.3654   22947086.2994
  21852107.128   -18849091.73849 -14385007.81749  21852106.8514   21852109.7184
  22764079.644   -13210542.22049 -10276335.59549  22764079.1664   22764082.1224
  20417169.404   -27777121.69449 -21633628.16149  20417168.8384   20417171.5014
  24450559.637    -6720774.82149  -4419109.54749  24450559.4204   24450562.4384
  20283532.181   -27288803.69849 -21245402.71249  20283531.7034   20283534.9844
  22572756.074   -15602959.67049 -10892744.25349  22572755.4874   22572758.4164
 98  1 28  2 55  0.0000000  0  8  4  9  8 10  5  6 24 30
  22530485.095   -15276369.72649  -9068525.30549  22530485.0504   22530487.5434
  22963137.889   -14788123.97149  -7715610.88549  22963137.5514   22963141.0954
  21858238.350   -18816872.10649 -14359901.62849  21858238.1474   21858241.2114
  22747869.634   -13295726.70249 -10342713.10749  22747869.0284   22747872.7654
  20412114.669   -27803684.55449 -21654326.49749  20412114.1274   20412116.7024
  24437370.786    -6790082.49749  -4473115.45949  24437370.6804   24437374.0874
  20287848.334   -27266122.07349 -21227728.71449  20287848.1154   20287851.2154
  22555910.425   -15691483.58549 -10961723.92649  22555910.8984   22555912.0754
 98  1 28  2 55 30.0000000  0  8  4  9  8 10  5  6 24 30
  22547431.867   -15187313.77949  -8999131.05849  22547432.1974   22547434.4164
  22979249.646   -14703456.12049  -7649635.95349  22979249.7164   22979253.0804
  21864493.819   -18783999.72549 -14334286.79849  21864493.3464   21864496.2584
  22731718.411   -13380602.57649 -10408850.13449  22731717.3204   22731720.5734
  20407162.926   -27829706.32849 -21674603.20749  20407162.3654   20407164.8794
  24424202.597    -6859281.25349  -4527036.51949  24424203.0164   24424205.1104
  20292264.064   -27242917.20549 -21209646.99549  20292263.8184   20292267.0084
  22539121.596   -15779709.71149 -11030471.55649  22539121.8614   22539124.6694
 98  1 28  2 56  0.0000000  0  8  4  9  8 10  5  6 24 30
  22564428.970   -15097993.42149  -8929530.77649  22564429.1414   22564431.4784
  22995414.490   -14618509.52249  -7583443.80549  22995414.4664   22995417.3704
  21870871.257   -18750486.04749 -14308172.25249  21870870.4714   21870873.6064
  22715629.350   -13465151.22349 -10474732.18649  22715628.7774   22715632.2384
  20402314.072   -27855187.03049 -21694458.29749  20402313.3424   20402316.0114
  24411057.263    -6928360.15349  -4580864.17849  24411056.3674   24411060.4054
  20296778.135   -27219195.55149 -21191162.58249  20296777.7634   20296781.0184
  22522391.293   -15867628.08049 -11098979.37149  22522391.1334   22522393.7194
 98  1 28  2 56 30.0000000  0  8  4  9  8 10  5  6 24 30
  22581489.666   -15008338.77149  -8859670.01349  22581489.7904   22581492.1654
  23011644.267   -14533221.41049  -7516985.55849  23011644.3304   23011647.5004
  21877383.192   -18716265.55849 -14281506.95349  21877382.4734   21877385.8124
  22699615.057   -13549306.41049 -10540307.65049  22699614.5544   22699617.1284
  20397580.933   -27880059.68949 -21713839.59849  20397580.2494   20397582.8774
  24397949.243    -6997242.92849  -4634539.03249  24397948.9614   24397952.1344
  20301402.146   -27194896.31549 -21172228.11249  20301402.0624   20301405.0344
  22505733.356   -15955166.13749 -11167190.84149  22505733.2254   22505735.6814
 98  1 28  2 57  0.0000000  0  8  4  9  8 10  5  6 24 30
  22598591.405   -14918468.45349  -8789641.20049  22598591.4214   22598593.5834
  23027913.244   -14447727.78049  -7450367.15849  23027913.2274   23027916.1254
  21884001.991   -18681483.62449 -14254404.15549  21884001.8614   21884004.7754
  22683653.420   -13633185.60349 -10605668.04849  22683652.6444   22683656.1354
  20392940.798   -27904443.68749 -21732840.11549  20392940.3914   20392942.7774
  24384852.058    -7066069.37849  -4688169.96949  24384852.1984   24384855.2984
  20306112.421   -27170143.55849 -21152940.24249  20306112.1614   20306115.4324
  22489120.662   -16042466.54149 -11235217.12249  22489121.2754   22489122.8954
 98  1 28  2 57 30.0000000  0  8  4  9  8 10  5  6 24 30
  22615750.287   -14828297.88149  -8719378.41449  22615750.3424   22615752.4854
  23044239.049   -14361935.14849  -7383515.77949  23044238.9354   23044241.5384
  21890743.265   -18646058.01549 -14226799.80449  21890742.9344   21890746.0194
  22667764.789   -13716681.03549 -10670729.40649  22667763.9144   22667767.0394
  20388411.667   -27928244.40749 -21751386.13749  20388411.2174   20388413.7134
  24371782.691    -7134749.22749  -4741686.71349  24371782.5064   24371785.7334
  20310929.841   -27144827.90449 -21133213.75249  20310929.7664   20310932.7444
  22472571.196   -16129434.31949 -11302984.21149  22472570.9934   22472573.3954
 98  1 28  2 58  0.0000000  0  8  4  9  8 10  5  6 24 30
  22632950.499   -14737910.10549  -8648946.38249  22632950.5444   22632952.6604
  23060607.815   -14275916.37749  -7316488.18149  23060607.7234   23060610.7554
  21897593.914   -18610057.90349 -14198747.78349  21897593.7914   21897596.4654
  22651931.233   -13799886.74349 -10735565.00849  22651930.3154   22651933.7654
  20383977.282   -27951547.24749 -21769544.19849  20383976.8964   20383979.3004
  24358727.365    -7203355.87149  -4795146.41049  24358726.9044   24358730.2964
  20315841.350   -27119017.74749 -21113101.94249  20315841.1464   20315844.1344
  22456067.772   -16216160.69449 -11370563.19749  22456067.8084   22456070.5354
 98  1 28  2 58 30.0000000  0  8  4  9  8 10  5  6 24 30
  22650202.314   -14647250.98849  -8578302.91849  22650202.5814   22650205.1764
  23077030.794   -14189612.85549  -7249238.69649  23077030.2944   23077033.4944
  21904563.345   -18573433.42449 -14170209.23449  21904562.9774   21904565.8254
  22636164.132   -13882743.39749 -10800128.62349  22636163.5404   22636166.6934
  20379646.030   -27974308.21949 -21787280.01949  20379645.6154   20379648.1544
  24345694.896    -7271841.83749  -4848512.07549  24345693.8474   24345697.9714
  20320854.164   -27092675.25849 -21092575.31949  20320853.8864   20320856.8514
  22439618.860   -16302600.24749 -11437918.67949  22439618.8254   22439620.9104
 98  1 28  2 59  0.0000000  0  8  4  9  8 10  5  6 24 30
  22667502.864   -14556336.33249  -8507460.32449  22667502.5554   22667504.9794
  23093506.283   -14103033.65049  -7181774.39849  23093506.3784   23093508.8994
  21911651.106   -18536187.20749 -14141186.22049  21911650.4004   21911653.7734
  22620464.401   -13965246.19049 -10864416.49849  22620463.3494   22620466.9384
  20375417.976   -27996526.73849 -21804593.15449  20375417.4024   20375420.1094
  24332681.236    -7340228.40349  -4901800.29849  24332681.1754   24332683.8054
  20325966.899   -27065807.56749 -21071639.45149  20325966.6364   20325969.7544
  22423224.438   -16388753.36349 -11505050.95649  22423225.2144   22423226.0744
 98  1 28  2 59 30.0000000  0  8  4  9  8 10  5  6 24 30
  22684859.918   -14465124.19549  -8436385.93249  22684860.6284   22684862.7554
  23110041.259   -14016142.03349  -7114066.65249  23110040.9224   23110044.7134
  21918864.775   -18498278.89649 -14111647.28849  21918864.5164   21918867.4554
  22604839.095   -14047357.43149 -10928399.26949  22604837.7464   22604841.6234
  20371300.500   -28018164.24549 -21821453.54749  20371299.9924   20371302.6984
  24319695.068    -7408471.55949  -4954976.77249  24319694.0164   24319698.0244
  20331183.336   -27038394.89249 -21050278.91649  20331183.1154   20331186.2284
  22406894.379   -16474568.46149 -11571919.84849  22406894.3204   22406896.4484
 98  1 28  3  0  0.0000000  0  8  4  9  8 10  5  6 24 30
  22702278.935   -14373586.55449  -8365057.90149  22702279.4094   22702281.4694
  23126637.875   -13928926.44649  -7046106.46549  23126637.6424   23126640.3744
  21926208.124   -18459689.10249 -14081577.33449  21926208.1124   21926210.6884
  22589293.831   -14129048.34349 -10992054.51149  22589292.9084   22589296.5294
  20367296.175   -28039207.11949 -21837850.59749  20367295.6354   20367298.1984
  24306738.449    -7476558.77549  -5008031.74749  24306738.9654   24306741.3514
  20336503.006   -27010439.97749 -21028495.86349  20336502.9024   20336506.0384
  22390631.822   -16560029.03949 -11638512.48649  22390631.9284   22390633.8784
 98  1 28  3  0 30.0000000  0  8  4  9  8 10  5  6 24 30
  22719751.662   -14281766.65249  -8293509.92449  22719751.2244   22719753.2334
  23143287.626   -13841431.71549  -6977928.76549  23143287.7254   23143290.5004
  21933672.467   -18420464.03849 -14051012.36349  21933672.4654   21933674.8484
  22573823.988   -14210342.75949 -11055400.79449  22573823.2874   22573826.6114
  20363397.834   -28059692.97049 -21853813.60149  20363397.3734   20363399.9284
  24293804.158    -7544528.72549  -5060995.32749  24293803.9994   24293807.3504
  20341917.425   -26981987.28049 -21006324.92449  20341917.3344   20341920.2944
  22374431.624   -16645161.54649 -11704849.48349  22374431.5034   22374434.0974
 98  1 28  3  1  0.0000000  0  8  4  9  8 10  5  6 24 30
  22737273.272   -14189689.76849  -8221761.70249  22737273.8534   22737275.6014
  23159985.323   -13753684.65549  -6909554.45349  23159984.6964   23159988.0664
  21941252.684   -18380630.01949 -14019972.88349  21941251.8774   21941254.9704
  22558422.100   -14291280.07349 -11118468.81449  22558420.8804   22558424.6354
  20359601.674   -28079642.10049 -21869358.38049  20359601.0414   20359603.6634
  24280889.119    -7612398.10649  -5113880.57149  24280889.3904   24280891.3074
  20347421.831   -26953061.22349 -20983785.13549  20347421.4934   20347424.5004
  22358290.861   -16729981.58249 -11770943.00149  22358290.8274   22358293.1624
 98  1 28  3  1 30.0000000  0  8  4  9  8 10  5  6 24 30
  22754849.801   -14097324.85449  -8149789.04249  22754849.9054   22754851.6964
  23176733.937   -13665669.78649  -6840971.45449  23176733.5314   23176736.5624
  21948953.423   -18340162.32849 -13988439.63449  21948952.8264   21948956.1534
  22543093.547   -14371832.26649 -11181236.74949  22543092.9714   22543096.2514
  20355913.102   -28099025.65749 -21884462.45349  20355912.6654   20355915.0754
  24268002.039    -7680120.44049  -5166651.22249  24268002.0924   24268005.1044
  20353021.375   -26923635.29149 -20960855.83449  20353021.1374   20353024.1554
  22342213.711   -16814467.21049 -11836775.93549  22342214.0974   22342216.0024
 98  1 28  3  2  0.0000000  0  8  4  9  8 10  5  6 24 30
  22772470.111   -14004729.49649  -8077636.81449  22772470.3574   22772472.5384
  23193525.065   -13577432.03149  -6772214.78349  23193525.0274   23193527.9104
  21956769.311   -18299089.56349 -13956434.89949  21956768.8354   21956771.8124
  22527830.586   -14452039.53949 -11243735.91249  22527829.0984   22527833.3024
  20352323.996   -28117886.61949 -21899159.30849  20352323.6704   20352326.0844
  24255134.981    -7747737.26249  -5219339.66649  24255135.0594   24255138.0754
  20358711.529   -26893733.27949 -20937555.56049  20358711.2574   20358714.3674
  22326191.194   -16898665.98049 -11902385.35249  22326191.2394   22326193.2324
 98  1 28  3  2 30.0000000  0  8  4  9  8 10  5  6 24 30
  22790140.162   -13911872.95549  -8005281.07049  22790139.5554   22790142.5124
  23210366.996   -13488927.48949  -6703250.22349  23210366.7974   23210369.6234
  21964707.790   -18257372.37449 -13923928.01349  21964707.2504   21964710.0984
  22512640.523   -14531863.72249 -11305936.56049  22512640.1444   22512643.3114
  20348845.890   -28136164.17949 -21913401.56049  20348845.4174   20348847.9674
  24242295.658    -7815207.91849  -5271914.21249  24242296.0584   24242299.6904
  20364504.186   -26863292.46249 -20913835.43649  20364503.8774   20364507.0324
  22310235.032   -16982516.14249 -11967723.11649  22310235.0864   22310236.8724
 98  1 28  3  3  0.0000000  0  8  4  9  8 10  5  6 24 30
  22807850.736   -13818802.93849  -7932758.97349  22807850.7534   22807852.5474
  23227248.301   -13400215.70149  -6634124.16149  23227248.6504   23227251.4384
  21972758.890   -18215063.25849 -13890959.88449  21972758.3564   21972761.5664
  22497514.543   -14611351.42949 -11367875.01549  22497513.7254   22497516.6434
  20345472.840   -28153889.54349 -21927213.53649  20345472.4534   20345474.8014
  24229472.210    -7882595.48649  -5324424.00449  24229472.4054   24229474.7424
  20370390.754   -26832358.35449 -20889730.93549  20370390.5124   20370393.6984
  22294336.942   -17066061.11349 -12032823.08349  22294336.8224   22294339.2124
 98  1 28  3  3 30.0000000  0  8  4  9  8 10  5  6 24 30
  22825611.316   -13725470.22749  -7860032.19249  22825611.8384   22825613.8894
  23244179.229   -13311242.89149  -6564794.72849  23244178.9204   23244181.5084
  21980934.065   -18172102.28049 -13857483.81849  21980933.6064   21980936.9924
  22482465.834   -14690432.72649 -11429496.79749  22482464.8934   22482468.3984
  20342216.336   -28171002.59349 -21940548.38449  20342215.8374   20342218.2254
  24216674.460    -7949847.15949  -5376827.88949  24216675.1354   24216677.7314
  20376385.263   -26800856.85649 -20865184.31049  20376385.2224   20376388.1764
  22278507.496   -17149245.18549 -12097641.82949  22278507.5104   22278509.7344
 98  1 28  3  4  0.0000000  0  8  4  9  8 10  5  6 24 30
  22843416.327   -13631904.47949  -7787123.80549  22843416.9624   22843418.3704
  23261158.775   -13222014.90549  -6495266.44449  23261158.4454   23261161.6124
  21989229.560   -18128509.21649 -13823515.20749  21989229.2834   21989231.8594
  22467490.144   -14769130.24149 -11490819.53149  22467489.1214   22467492.3514
  20339071.780   -28187527.21349 -21953424.71049  20339071.2844   20339073.5804
  24203896.217    -8016996.96849  -5429152.38549  24203896.5414   24203899.4274
  20382485.419   -26768800.38749 -20840205.23849  20382485.3694   20382488.3804
  22262744.057   -17232082.71749 -12162190.53949  22262744.0634   22262746.1294
 98  1 28  3  4 30.0000000  0  8  4  9  8 10  5  6 24 30
  22861274.994   -13538056.35449  -7713995.40749  22861275.4484   22861277.7394
  23278195.172   -13132488.24549  -6425505.42149  23278194.7514   23278198.2354
  21997648.390   -18084268.26249 -13789041.75749  21997648.1754   21997650.7784
  22452595.824   -14847400.43249 -11551809.28249  22452595.1924   22452598.2954
  20336048.056   -28203417.08749 -21965806.43549  20336047.5474   20336050.1214
  24191144.198    -8084010.24249  -5481370.52449  24191143.9994   24191147.7784
  20388695.999   -26736163.79149 -20814774.12649  20388695.9594   20388698.8634
  22247055.044   -17314529.00349 -12226434.39049  22247055.2944   22247056.9694
 98  1 28  3  5  0.0000000  0  8  4  9  8 10  5  6 24 30
  22879188.738   -13443918.98649  -7640641.60749  22879188.8874   22879191.2384
  23295289.268   -13042658.83249  -6355508.49349  23295288.6474   23295292.2564
  22006191.730   -18039372.80049 -13754058.29949  22006191.5114   22006194.2744
  22437784.202   -14925235.89949 -11612460.28249  22437782.7764   22437786.8594
  20333141.314   -28218692.11749 -21977709.05449  20333140.7004   20333143.2414
  24178417.962    -8150887.20349  -5533482.41649  24178418.1994   24178420.9664
  20395014.053   -26702962.06749 -20788902.64649  20395013.6364   20395016.8664
  22231438.773   -17396593.13849 -12290380.46049  22231439.1354   22231441.0484
 98  1 28  3  5 30.0000000  0  8  4  9  8 10  5  6 24 30
  22897157.032   -13349495.13649  -7567064.57549  22897156.1694   22897159.2414
  23312441.012   -12952525.79649  -6285274.97849  23312440.5834   23312444.1434
  22014861.454   -17993813.29949 -13718557.40449  22014860.8494   22014864.3104
  22423054.027   -15002643.43849 -11672777.83449  22423052.9834   22423056.5844
  20330348.109   -28233370.24049 -21989146.55449  20330347.5334   20330350.0944
  24165717.949    -8217626.01049  -5585486.65849  24165717.2524   24165720.8244
  20401439.049   -26669198.23149 -20762593.15649  20401438.7584   20401441.7914
  22215893.252   -17478284.96649 -12354036.42049  22215893.2774   22215895.5334
 98  1 28  3  6  0.0000000  0  8  4  9  8 10  5  6 24 30
  22915180.115   -13254782.79549  -7493262.75449  22915180.1414   22915182.0844
  23329647.883   -12862102.77349  -6214815.49149  23329647.6514   23329650.8914
  22023655.887   -17947598.30149 -13682545.72749  22023655.0214   22023658.8154
  22408404.112   -15079629.37849 -11732766.86049  22408402.9054   22408406.4754
  20327668.347   -28247452.61149 -22000119.83049  20327667.8384   20327670.3664
  24153041.898    -8284238.70449  -5637392.63449  24153041.5174   24153044.4744
  20407966.981   -26634893.45149 -20735862.15549  20407966.6794   20407969.9564
  22200420.329   -17559595.42749 -12417395.21249  22200420.5994   22200422.3824
 98  1 28  3  6 30.0000000  0  8  4  9  8 10  5  6 24 30
  22933266.799   -13159736.47749  -7419200.69149  22933267.0704   22933268.8814
  23346913.900   -12771369.02449  -6144113.87849  23346913.1484   23346916.7834
  22032580.193   -17900700.82649 -13646002.26349  22032579.9024   22032582.7884
  22393844.053   -15156142.81249 -11792387.71149  22393843.3354   22393846.5054
  20325109.879   -28260897.54749 -22010596.40949  20325109.5294   20325111.9514
  24140398.526    -8350679.65149  -5689164.77549  24140398.0104   24140401.7554
  20414602.786   -26600022.11349 -20708689.68549  20414602.4954   20414605.7574
  22185029.700   -17640473.61749 -12480417.17549  22185029.5544   22185031.6784
 98  1 28  3  7  0.0000000  0  8  4  9  8 10  5  6 24 30
  22951400.854   -13064441.38049  -7344944.76749  22951400.9464   22951402.6264
  23364221.353   -12680417.79349  -6073242.80549  23364221.0364   23364223.7864
  22041623.063   -17853180.10049 -13608973.14249  22041622.9024   22041625.9044
  22379359.537   -15232259.47949 -11851699.38249  22379358.2634   22379362.0404
  20322659.043   -28273776.80649 -22020632.19949  20322658.5764   20322661.1674
  24127776.327    -8417009.76049  -5740850.56249  24127776.2084   24127779.5014
  20421333.108   -26564653.85949 -20681130.00649  20421333.0454   20421336.0614
  22169707.813   -17720990.49049 -12543157.59349  22169708.1204   22169710.0984
 98  1 28  3  7 30.0000000  0  8  4  9  8 10  5  6 24 30
  22969572.081   -12968950.78449  -7270536.51449  22969572.1164   22969574.3094
  23381558.409   -12589311.32649  -6002250.75949  23381558.1844   23381561.0254
  22050774.080   -17805091.29849 -13571501.36449  22050773.9174   22050777.0564
  22364942.540   -15308020.71749 -11910734.09749  22364941.6934   22364944.9494
  20320313.090   -28286104.76249 -22030238.40049  20320312.5804   20320315.1704
  24115170.335    -8483254.80049  -5792470.06649  24115170.3254   24115173.7154
  20428151.183   -26528824.61149 -20653211.10849  20428151.0754   20428154.2084
  22154448.188   -17801180.18549 -12605643.06849  22154448.3554   22154450.3894
 98  1 28  3  8  0.0000000  0  8  4  9  8 10  5  6 24 30
  22987785.056   -12873240.87849  -7195957.36849  22987784.5384   22987786.9934
  23398930.918   -12498018.05649  -5931113.16649  23398931.0674   23398934.0574
  22060035.042   -17756424.51749 -13533579.22249  22060034.7164   22060037.6564
  22350603.167   -15383374.42249 -11969451.25949  22350602.7704   22350605.7234
  20318080.223   -28297838.60649 -22039381.66249  20318079.6364   20318082.3874
  24102588.383    -8549373.43049  -5843991.06449  24102588.7254   24102591.3124
  20435060.120   -26492517.91649 -20624920.17749  20435059.7924   20435063.0094
  22139257.851   -17881006.12149 -12667845.09449  22139258.1114   22139260.1544
 98  1 28  3  8 30.0000000  0  8  4  9  8 10  5  6 24 30
  23006034.230   -12777340.84349  -7121230.06249  23006034.6744   23006036.1584
  23416334.924   -12406559.38649  -5859846.68949  23416334.7394   23416337.7994
  22069401.426   -17707204.04749 -13495225.62349  22069400.7424   22069404.0014
  22336339.156   -15458332.23849 -12027859.92949  22336338.1954   22336342.0534
  20315956.028   -28309001.38149 -22048079.93149  20315955.5474   20315958.0334
  24090028.680    -8615375.37349  -5895421.14149  24090028.6504   24090031.8754
  20442055.130   -26455758.91349 -20596276.79349  20442054.9704   20442058.0874
  22124131.758   -17960494.39449 -12729784.00749  22124132.4124   22124134.1704
 98  1 28  3  9  0.0000000  0  8  4  9  8 10  5  6 24 30
  23024319.251   -12681252.19249  -7046355.79849  23024320.1254   23024321.5584
  23433771.583   -12314929.35449  -5788446.67749  23433770.7284   23433774.3094
  22078874.523   -17657422.69849 -13456434.97749  22078874.0944   22078876.7064
  22322150.679   -15532893.06849 -12085959.26149  22322149.6774   22322153.3664
  20313941.946   -28319585.40049 -22056327.21849  20313941.2714   20313943.8164
  24077491.550    -8681258.43449  -5946758.59649  24077490.9104   24077494.2744
  20449137.849   -26418538.91649 -20567274.19449  20449137.7764   20449140.7664
  22109069.467   -18039647.45949 -12791461.71749  22109069.9394   22109071.7854
 98  1 28  3  9 30.0000000  0  8  4  9  8 10  5  6 24 30
  23042639.424   -12584979.19149  -6971337.87049  23042639.7224   23042642.1864
  23451241.285   -12223125.22049  -5716911.00749  23451240.5344   23451244.2374
  22088449.223   -17607107.43949 -13417228.30749  22088449.1954   22088451.6384
  22308036.169   -15607065.14049 -12143755.67049  22308035.1794   22308038.7704
  20312034.379   -28329609.69349 -22064138.36049  20312033.9614   20312036.4134
  24064970.683    -8747055.59149  -5998029.09449  24064970.9474   24064973.8534
  20456304.663   -26380877.02949 -20537927.26949  20456304.4054   20456307.4604
  22094068.093   -18118480.42449 -12852889.99949  22094068.5354   22094069.7354
 98  1 28  3 10  0.0000000  0  8  4  9  8 10  5  6 24 30
  23060998.313   -12488502.32749  -6896161.09449  23060997.9334   23060999.9624
  23468748.019   -12131126.60949  -5645223.79149  23468748.0244   23468750.7484
  22098126.633   -17556252.44449 -13377601.05549  22098126.2864   22098129.1664
  22293997.618   -15680838.53749 -12201241.41649  22293996.7674   22293999.8494
  20310230.556   -28339088.95949 -22071524.80549  20310230.2004   20310232.5234
  24052464.875    -8812774.16749  -6049238.37449  24052465.2554   24052467.8914
  20463555.438   -26342773.84749 -20508236.47649  20463555.4254   20463558.3764
  22079129.150   -18196985.30149 -12914062.62449  22079129.1274   22079131.4674
 98  1 28  3 10 30.0000000  0  8  4  9  8 10  5  6 24 30
  23079400.082   -12391800.25349  -6820808.82349  23079400.3644   23079402.8554
  23486293.675   -12038923.77349  -5573377.43949  23486293.6774   23486296.2404
  22107910.180   -17504839.44949 -13337539.00449  22107909.8034   22107912.6314
  22280035.254   -15754211.21749 -12258414.91449  22280034.2334   22280037.9844
  20308533.625   -28348006.30649 -22078473.38949  20308533.1954   20308535.6014
  24039976.632    -8878400.28149  -6100375.59149  24039976.7704   24039979.3604
  20470896.185   -26304198.16249 -20478177.49949  20470895.9344   20470899.0624
  22064258.389   -18275131.64149 -12974955.87449  22064258.8814   22064260.6724
 98  1 28  3 11  0.0000000  0  8  4  9  8 10  5  6 24 30
  23097838.665   -12294905.16149  -6745306.16149  23097839.3094   23097841.6054
  23503872.925   -11946544.12949  -5501393.31449  23503872.3984   23503875.6544
  22117794.180   -17452898.71549 -13297065.71849  22117793.9604   22117796.9674
  22266142.526   -15827217.93549 -12315303.24349  22266141.4014   22266144.9724
  20306938.785   -28356387.25849 -22085004.00549  20306938.1494   20306940.6624
  24027498.996    -8943970.48249  -6151469.23849  24027499.2284   24027502.2084
  20478322.685   -26265171.64349 -20447767.22049  20478322.5124   20478325.5734
  22049450.887   -18352945.36549 -13035589.93949  22049451.2934   22049453.0864
 98  1 28  3 11 30.0000000  0  8  4  9  8 10  5  6 24 30
  23116322.163   -12197773.78949  -6669619.37249  23116322.2934   23116324.6944
  23521494.159   -11853943.91449  -5429237.31249  23521493.8694   23521497.2684
  22127787.173   -17400385.26749 -13256146.16549  22127787.3024   22127789.9424
  22252330.338   -15899801.26449 -12371861.66249  22252329.5434   22252333.2334
  20305453.066   -28364194.62049 -22091087.66549  20305452.4384   20305454.8654
  24015039.562    -9009444.62849  -6202488.02749  24015039.5544   24015043.1414
  20485842.502   -26225654.77149 -20416974.84649  20485842.3564   20485845.3514
  22034716.890   -18430372.86549 -13095923.04749  22034717.0634   22034718.9474
 98  1 28  3 12  0.0000000  0  8  4  9  8 10  5  6 24 30
  23134840.399   -12100459.76649  -6593790.25249  23134840.8934   23134842.8844
  23539148.068   -11761172.43649  -5356947.86949  23539147.8074   23539151.3854
  22137882.567   -17347333.78849 -13214807.36349  22137882.0934   22137885.1004
  22238593.058   -15971991.26049 -12428113.58749  22238592.2734   22238595.3074
  20304069.344   -28371466.09549 -22096753.75249  20304068.7464   20304071.3124
  24002592.382    -9074854.80449  -6253456.96749  24002592.4414   24002595.4344
  20493448.090   -26185687.14749 -20385831.24049  20493447.7614   20493450.9974
  22020051.288   -18507441.22849 -13155976.31249  22020051.2464   22020053.2474
 98  1 28  3 12 30.0000000  0  8  4  9  8 10  5  6 24 30
  23153392.124   -12002969.73949  -6517824.00749  23153392.0504   23153394.6634
  23556834.505   -11668229.56849  -5284524.87349  23556834.3934   23556837.3064
  22148084.875   -17293720.62749 -13173030.89149  22148084.5704   22148087.7634
  22224932.570   -16043777.55949 -12484050.94549  22224931.6604   22224935.1734
  20302792.381   -28378176.66849 -22101982.77449  20302791.7204   20302794.3914
  23990158.249    -9140197.16649  -6304373.08949  23990158.1294   23990161.5684
  20501141.612   -26145257.40149 -20354327.54049  20501141.3354   20501144.2874
  22005456.193   -18584138.79449 -13215740.64849  22005455.8204   22005458.5804
 98  1 28  3 13  0.0000000  0  8  4  9  8 10  5  6 24 30
  23171974.871   -11905316.91449  -6441730.88849  23171974.8364   23171977.5644
  23574553.098   -11575117.82149  -5211970.28049  23574553.3264   23574556.6954
  22158395.359   -17239538.62249 -13130811.16349  22158394.2834   22158398.1824
  22211351.360   -16115147.05249 -12539663.51749  22211350.2824   22211354.0034
  20301620.064   -28384337.22049 -22106783.20349  20301619.5314   20301622.2764
  23977733.951    -9205487.49549  -6355248.62149  23977733.4114   23977737.5294
  20508921.686   -26104372.95549 -20322469.52649  20508921.5494   20508924.8104
  21990928.237   -18660483.57149 -13275230.07649  21990928.3274   21990931.0554
 98  1 28  3 13 30.0000000  0  8  4  9  8 10  5  6 24 30
  23190589.486   -11807496.77949  -6365507.41049  23190589.1594   23190591.6384
  23592304.092   -11481835.71749  -5139282.94449  23592303.4084   23592307.2644
  22168814.085   -17184787.62849 -13088148.06849  22168813.6604   22168816.4354
  22197853.721   -16186077.63249 -12594934.08349  22197852.7564   22197856.1094
  20300554.064   -28389939.11449 -22111148.31949  20300553.3494   20300556.0194
  23965320.381    -9270720.62849  -6406079.60549  23965319.9344   23965323.1894
  20516786.154   -26063044.93249 -20290265.87149  20516786.0654   20516789.1724
  21976468.203   -18736471.35049 -13334441.33449  21976468.5874   21976470.1664
 98  1 28  3 14  0.0000000  0  8  4  9  8 10  5  6 24 30
  23209230.544   -11709537.33249  -6289175.37249  23209231.0644   23209233.0064
  23610081.078   -11388416.63849  -5066488.87149  23610080.8014   23610083.5294
  22179336.473   -17129492.20349 -13045060.74349  22179335.9554   22179338.7584
  22184433.650   -16256600.41449 -12649886.88849  22184432.6974   22184436.0554
  20299592.593   -28394991.67049 -22115085.38449  20299592.2154   20299594.7964
  23952916.310    -9335904.70649  -6456872.36849  23952916.3214   23952919.5464
  20524730.237   -26021298.54449 -20257736.22049  20524729.9954   20524733.1574
  21962072.060   -18812123.78649 -13393391.28049  21962072.1044   21962074.3714
 98  1 28  3 14 30.0000000  0  8  4  9  8 10  5  6 24 30
  23227896.580   -11611446.60549  -6212741.05149  23227897.0124   23227899.0724
  23627882.228   -11294870.63949  -4993595.90749  23627882.5074   23627885.4734
  22189958.201   -17073674.83749 -13001566.71449  22189958.1124   22189960.5704
  22171089.411   -16326724.66649 -12704529.14149  22171088.2754   22171091.6794
  20298735.515   -28399495.79149 -22118595.09149  20298735.0784   20298737.5054
  23940521.350    -9401040.48349  -6507627.49649  23940521.2824   23940524.5974
  20532752.141   -25979143.05649 -20224887.78449  20532751.9024   20532755.0024
  21947736.691   -18887456.61149 -13452092.18049  21947736.7484   21947739.0944
 98  1 28  3 15  0.0000000  0  8  4  9  8 10  5  6 24 30
  23246593.775   -11513192.16449  -6136179.14749  23246593.4484   23246595.6834
  23645712.632   -11201171.21549  -4920583.38449  23645712.5744   23645715.6764
  22200680.842   -17017327.03449 -12957659.35349  22200680.3994   22200683.8394
  22157829.915   -16396403.94049 -12758824.66249  22157829.2044   22157832.4034
  20297987.079   -28403429.13949 -22121660.04149  20297986.5864   20297989.0254
  23928145.399    -9466076.43449  -6558304.83349  23928145.1004   23928147.7614
  20540855.991   -25936556.91249 -20191703.77249  20540855.5924   20540858.9494
  21933468.500   -18962436.29149 -13510517.89949  21933468.8454   21933470.4804
 98  1 28  3 15 30.0000000  0  8  4  9  8 10  5  6 24 30
  23265318.126   -11414794.80349  -6059505.87149  23265318.5154   23265320.0774
  23663567.203   -11107344.68049  -4847471.81649  23663566.9534   23663569.1364
  22211499.219   -16960476.35649 -12913360.14549  22211499.4294   22211501.6444
  22144650.130   -16465664.22449 -12812793.70149  22144649.4284   22144652.6744
  20297345.606   -28406800.11349 -22124286.78049  20297345.1204   20297347.6624
  23915790.110    -9531004.03049  -6608897.75249  23915789.3344   23915792.8444
  20549036.093   -25893570.10649 -20158207.56049  20549036.0584   20549039.1664
  21919267.393   -19037063.51649 -13568668.98149  21919267.4074   21919269.5854
 98  1 28  3 16  0.0000000  0  8  4  9  8 10  5  6 24 30
  23284072.727   -11316238.69349  -5982708.90849  23284072.6024   23284075.2234
  23681448.028   -11013380.07749  -4774252.67249  23681447.8054   23681451.1584
  22222415.389   -16903111.57449 -12868660.32549  22222414.7824   22222418.1444
  22131551.832   -16534496.26649 -12866429.04349  22131550.8364   22131553.9044
  20296814.048   -28409593.52749 -22126463.46749  20296813.5284   20296815.9904
  23903459.981    -9595799.19349  -6659387.46149  23903459.6794   23903463.4524
  20557298.189   -25850152.36449 -20124375.54949  20557297.9494   20557300.9074
  21905137.876   -19111314.45249 -13626526.85249  21905138.1584   21905139.6604
 98  1 28  3 16 30.0000000  0  8  4  9  8 10  5  6 24 30
  23302854.285   -11217540.57249  -5905801.29149  23302854.8094   23302856.3264
  23699352.080   -10919293.82849  -4700938.71949  23699351.9204   23699355.4474
  22233425.807   -16845251.33249 -12823574.44149  22233425.3504   22233428.4454
  22118532.934   -16602911.18349 -12919739.35149  22118532.2294   22118535.2384
  20296387.329   -28411835.95549 -22128210.81649  20296386.9544   20296389.3164
  23891149.740    -9660490.05549  -6709795.89949  23891149.6314   23891151.9234
  20565639.271   -25806319.58049 -20090220.12849  20565639.1044   20565642.2994
  21891075.562   -19185212.40749 -13684109.67149  21891075.7944   21891077.9034
 98  1 28  3 17  0.0000000  0  8  4  9  8 10  5  6 24 30
  23321663.820   -11118695.68249  -5828779.28849  23321664.0584   23321665.6864
  23717278.459   -10825090.34949  -4627533.42549  23717278.2204   23717281.6204
  22244532.692   -16786884.01449 -12778093.42849  22244532.1514   22244535.6804
  22105593.539   -16670908.12049 -12972723.96149  22105592.7974   22105595.9224
  20296062.855   -28413541.18549 -22129539.56649  20296062.1894   20296064.7234
  23878856.142    -9725092.91049  -6760135.77349  23878856.2224   23878858.9384
  20574058.798   -25762074.47649 -20055743.41649  20574058.4764   20574061.8154
  21877081.642   -19258750.72749 -13741412.25049  21877081.8114   21877083.6654
 98  1 28  3 17 30.0000000  0  8  4  9  8 10  5  6 24 30
  23340504.880   -11019685.17549  -5751628.25749  23340505.0554   23340506.9524
  23735230.444   -10730752.10449  -4554023.11949  23735230.1524   23735233.4284
  22255738.931   -16727994.64849 -12732205.62549  22255738.6934   22255742.0334
  22092734.135   -16738484.58849 -13025380.93249  22092732.8994   22092736.4644
  20295844.944   -28414686.19449 -22130431.78949  20295844.3594   20295846.8854
  23866577.839    -9789615.71249  -6810413.25849  23866577.7724   23866580.6004
  20582561.507   -25717392.56049 -20020926.33649  20582561.1894   20582564.3334
  21863160.696   -19331905.71849 -13798416.14249  21863160.7694   21863162.7244
 98  1 28  3 18  0.0000000  0  8  4  9  8 10  5  6 24 30
  23359374.029   -10920527.31449  -5674362.38349  23359374.7114   23359376.6564
  23753204.110   -10636299.94349  -4480424.05049  23753203.9994   23753207.2754
  22267038.835   -16668613.42849 -12685934.57749  22267038.6504   22267041.5314
  22079952.246   -16805653.72349 -13077720.49949  22079951.3684   22079954.1834
  20295728.380   -28415298.75549 -22130909.11449  20295727.8004   20295730.3214
  23854305.104    -9854109.08049  -6860667.79449  23854305.3184   23854307.8634
  20591144.069   -25672290.89849 -19985782.18149  20591144.0384   20591146.9034
  21849307.560   -19404704.36149 -13855142.35449  21849307.7494   21849309.5404
 98  1 28  3 18 30.0000000  0  8  4  9  8 10  5  6 24 30
  23378268.306   -10821236.90049  -5596993.24149  23378267.9624   23378270.7784
  23771199.209   -10541735.49649  -4406737.48249  23771199.5814   23771201.8404
  22278431.757   -16608743.33749 -12639282.57449  22278431.0034   22278434.3094
  22067247.821   -16872415.80149 -13129742.88449  22067246.8534   22067250.1274
  20295712.926   -28415379.88549 -22130972.33549  20295712.2414   20295714.9004
  23842034.277    -9918592.95749  -6910914.95249  23842033.6444   23842037.0974
  20599804.693   -25626779.12249 -19950318.45249  20599804.5324   20599807.6144
  21835522.300   -19477146.21949 -13911590.54949  21835522.3324   21835524.1874
 98  1 28  3 19  0.0000000  0  8  4  9  8 10  5  6 24 30
  23397195.939   -10721771.54949  -5519487.76749  23397197.1574   23397197.4814
  23789223.662   -10447016.53949  -4332930.52649  23789222.8344   23789226.9334
  22289924.097   -16548350.65849 -12592223.36349  22289923.3674   22289927.0424
  22054630.992   -16938717.48849 -13181406.52349  22054630.3574   22054633.6414
  20295810.200   -28414868.57249 -22130573.91649  20295809.6434   20295812.3034
  23829775.368    -9983013.80949  -6961112.99549  23829774.9804   23829777.9834
  20608552.086   -25580811.31549 -19914499.37849  20608551.9364   20608554.8404
  21821816.451   -19549171.18149 -13967713.89749  21821816.4514   21821818.7104
 98  1 28  3 19 30.0000000  0  8  4  9  8 10  5  6 24 30
  23416148.161   -10622176.63549  -5441881.33949  23416148.2984   23416150.0284
  23807269.706   -10352184.05749  -4259035.09649  23807269.4704   23807272.9984
  22301506.349   -16487485.52749 -12544796.00749  22301506.1194   22301508.7004
  22042094.299   -17004598.34549 -13232742.23849  22042093.4564   22042096.5174
  20296016.881   -28413782.36949 -22129727.52749  20296016.3504   20296018.9314
  23817523.987   -10047395.04449  -7011280.16449  23817523.4524   23817526.9134
  20617378.391   -25534428.79949 -19878357.15149  20617378.1564   20617381.1194
  21808182.442   -19620818.36549 -14023542.86849  21808182.7894   21808184.8704
 98  1 28  3 20  0.0000000  0  8  4  9  8 10  5  6 24 30
  23435124.598   -10522454.73749  -5364175.96949  23435125.2504   23435127.3104
  23825338.729   -10257230.71949  -4185045.49349  23825338.5614   23825341.3404
  22313183.392   -16426122.63949 -12496980.79549  22313183.2454   22313186.1884
  22029640.820   -17070041.71849 -13283737.05449  22029639.9284   22029642.9624
  20296335.433   -28412108.30849 -22128423.06849  20296334.8504   20296337.4964
  23805284.615   -10111713.13349  -7061398.14049  23805284.5144   23805287.6604
  20626284.068   -25487629.09249 -19841889.84149  20626283.8514   20626286.9584
  21794619.047   -19692094.62749 -14079082.80649  21794619.3394   21794621.3174
 98  1 28  3 20 30.0000000  0  8  4  9  8 10  5  6 24 30
  23454129.516   -10422583.42749  -5286354.16249  23454129.4844   23454132.3764
  23843433.915   -10162139.48049  -4110948.44449  23843433.7344   23843436.2524
  22324961.488   -16364228.32249 -12448751.47949  22324960.9814   22324964.3444
  22017276.206   -17135018.16349 -13334368.04249  22017275.5574   22017278.7834
  20296771.124   -28409818.65049 -22126638.92449  20296770.5684   20296773.2694
  23793064.822   -10175927.92049  -7111435.61349  23793064.3744   23793067.5824
  20635273.645   -25440388.48049 -19805078.96849  20635273.3684   20635276.5864
  21781130.921   -19762975.13049 -14134314.36649  21781131.1074   21781133.3284
 98  1 28  3 21  0.0000000  0  8  4  9  8 10  5  6 24 30
  23473161.397   -10322570.20449  -5208421.78849  23473161.9584   23473163.0124
  23861550.454   -10066935.74649  -4036763.72649  23861550.0734   23861553.6524
  22336838.311   -16301815.23849 -12400117.92249  22336837.5294   22336840.7034
  22004997.407   -17199543.40749 -13384647.43249  22004996.2384   22004999.7814
  20297319.497   -28406936.89149 -22124393.40749  20297319.0684   20297321.5344
  23780865.161   -10240037.42749  -7161391.06149  23780864.8304   23780867.9074
  20644341.502   -25392736.65349 -19767947.67449  20644341.4004   20644344.4334
  21767714.448   -19833479.47749 -14189252.82349  21767714.7054   21767716.6934
 98  1 28  3 21 30.0000000  0  8  4  9  8 10  5  6 24 30
  23492220.210   -10222415.47949  -5130379.15749  23492220.5144   23492223.0614
  23879688.336    -9971620.12649  -3962491.82849  23879687.9064   23879691.4574
  22348815.952   -16238872.26549 -12351071.47249  22348815.1374   22348818.9544
  21992804.056   -17263619.74949 -13434577.03349  21992803.2294   21992806.4584
  20297978.957   -28403471.36449 -22121693.00149  20297978.4924   20297981.0404
  23768684.766   -10304045.71149  -7211267.61149  23768684.8624   23768687.7624
  20653485.838   -25344682.89749 -19730503.18649  20653485.8194   20653488.6224
  21754369.429   -19903608.09849 -14243898.50049  21754369.6234   21754371.6364
 98  1 28  3 22  0.0000000  0  8  4  9  8 10  5  6 24 30
  23511314.924   -10122072.15049  -5052189.55849  23511315.0154   23511318.0164
  23897856.397    -9876146.49049  -3888096.80149  23897855.8094   23897859.6054
  22360904.031   -16175349.07249 -12301572.89549  22360904.0884   22360906.5684
  21980709.068   -17327179.25449 -13484103.90449  21980708.6724   21980711.8554
  20298755.361   -28399391.34549 -22118513.77049  20298754.9244   20298757.5024
  23756531.930   -10367909.19949  -7261031.35549  23756531.7854   23756534.1934
  20662717.319   -25296171.01249 -19692701.71049  20662716.8794   20662720.1674
  21741107.807   -19973298.22049 -14298202.48949  21741107.7644   21741110.3544
 98  1 28  3 22 30.0000000  0  8  4  9  8 10  5  6 24 30
  23530444.190   -10021547.34849  -4973858.54549  23530444.8624   23530446.5884
  23916050.504    -9780535.71349  -3813594.91649  23916049.4934   23916053.5214
  22373093.563   -16111292.80549 -12251658.93949  22373093.2304   22373096.1044
  21968709.767   -17390235.95249 -13533238.97549  21968708.9094   21968712.4404
  20299645.076   -28394715.88349 -22114870.55849  20299644.5294   20299647.1504
  23744403.276   -10431645.16849  -7310695.72549  23744402.7224   23744406.3204
  20672032.548   -25247219.21049 -19654557.44649  20672032.3304   20672035.1854
  21727930.047   -20042547.74749 -14352163.15649  21727929.8774   21727932.2594
 98  1 28  3 23  0.0000000  0  8  4  9  8 10  5  6 24 30
  23549605.507    -9920854.00249  -4895396.18949  23549605.9774   23549607.6344
  23934272.600    -9684778.23149  -3738978.71849  23934272.0484   23934276.1114
  22385380.829   -16046722.89849 -12201344.74149  22385380.2244   22385383.5064
  21956804.963   -17452796.11649 -13581987.14049  21956804.0014   21956807.6814
  20300648.575   -28389442.42549 -22110761.37449  20300648.0544   20300650.6384
  23732297.844   -10495259.84149  -7360265.58149  23732297.4024   23732301.3464
  20681429.744   -25197836.48149 -19616077.39649  20681429.6544   20681432.6384
  21714838.042   -20111346.51249 -14405772.58049  21714838.3004   21714840.2464
 98  1 28  3 23 30.0000000  0  8  4  9  8 10  5  6 24 30
  23568801.409    -9819978.48549  -4816791.89449  23568801.7784   23568804.2994
  23952527.210    -9588850.03449  -3664229.50249  23952527.4904   23952530.3374
  22397767.892   -15981628.46249 -12150621.82349  22397767.8584   22397770.4164
  21945002.463   -17514818.06349 -13630315.91349  21945001.7114   21945004.7014
  20301772.266   -28383537.47049 -22106160.11149  20301771.7064   20301774.4004
  23720218.219   -10558739.10649  -7409729.92349  23720217.4454   23720220.7174
  20690915.706   -25147987.33049 -19577233.89549  20690915.3274   20690918.5264
  21701838.265   -20179660.76049 -14459004.45249  21701838.2504   21701840.3764
 98  1 28  3 24  0.0000000  0  8  4  9  8 10  5  6 24 30
  23588033.597    -9718912.55949  -4738039.22749  23588033.9144   23588036.0034
  23970815.055    -9492747.17949  -3589344.18549  23970815.2504   23970818.2224
  22410252.174   -15916023.11649 -12099500.79549  22410251.7864   22410254.5724
  21933304.385   -17576291.73449 -13678217.45949  21933303.6604   21933306.7554
  20303019.949   -28376980.62249 -22101050.89149  20303019.4124   20303021.8584
  23708164.937   -10622079.35249  -7459085.94449  23708164.7694   23708167.8144
  20700492.482   -25097660.88049 -19538018.48149  20700492.3174   20700495.2754
  21688930.978   -20247489.07149 -14511857.68349  21688931.2554   21688933.0764
 98  1 28  3 24 30.0000000  0  8  4  9  8 10  5  6 24 30
  23607307.600    -9617627.40049  -4659115.74249  23607307.5114   23607310.3434
  23989139.160    -9396453.41449  -3514310.11049  23989139.3744   23989142.1854
  22422837.749   -15849885.36749 -12047964.90649  22422837.2834   22422840.7204
  21921712.384   -17637207.89449 -13725684.58549  21921711.4354   21921715.0144
  20304399.071   -28369733.30449 -22095403.63749  20304398.6674   20304401.1864
  23696144.201   -10685248.47749  -7508308.62949  23696143.6914   23696147.2804
  20710161.478   -25046849.91549 -19498425.52049  20710161.2244   20710164.4484
  21676121.243   -20314804.57849 -14564311.32149  21676121.3934   21676123.3994
 98  1 28  3 25  0.0000000  0  8  4  9  8 10  5  6 24 30
  23626621.196    -9516133.67449  -4580029.72449  23626621.6404   23626623.8034
  24007497.988    -9299977.29549  -3439133.92849  24007498.2154   24007501.4434
  22435526.307   -15783206.45249 -11996007.32549  22435525.9394   22435528.7414
  21910226.550   -17697566.33649 -13772717.12249  21910225.9664   21910229.1194
  20305908.367   -28361802.02549 -22089223.42749  20305907.7034   20305910.3104
  23684155.493   -10748249.52149  -7557400.34249  23684155.2314   23684158.9144
  20719920.893   -24995563.74949 -19458462.27549  20719920.7274   20719924.0074
  21663408.385   -20381611.32849 -14616368.52449  21663408.8744   21663410.7424
 98  1 28  3 25 30.0000000  0  8  4  9  8 10  5  6 24 30
  23645977.726    -9414414.74249  -4500768.23049  23645978.1904   23645979.8424
  24025888.218    -9203336.37149  -3363829.33449  24025888.5034   24025891.5424
  22448318.920   -15715980.78349 -11943623.70549  22448318.0534   22448321.5124
  21898847.169   -17757365.59849 -13819313.93549  21898846.3544   21898849.7394
  20307547.057   -28353190.72949 -22082513.33149  20307546.7284   20307549.3144
  23672198.451   -10811084.54949  -7606362.68449  23672198.0684   23672200.9104
  20729770.696   -24943802.63749 -19418128.93749  20729770.4094   20729773.4014
  21650790.320   -20447919.82149 -14668037.47249  21650790.3704   21650792.5164
 98  1 28  3 26  0.0000000  0  8  4  9  8 10  5  6 24 30
  23665373.863    -9312487.35149  -4421344.28449  23665374.4324   23665376.1364
  24044305.422    -9106553.28949  -3288413.96249  24044304.9044   24044308.1914
  22461210.228   -15648236.66349 -11890836.09549  22461210.1184   22461212.7084
  21887566.070   -17816648.18549 -13865508.14249  21887565.6144   21887568.6014
  20309309.731   -28343927.74549 -22075295.42549  20309309.2984   20309311.8884
  23660267.218   -10873783.50049  -7655218.99749  23660266.1494   23660270.2364
  20739704.383   -24891600.56349 -19377451.99249  20739704.1224   20739707.2564
  21638263.146   -20513750.59949 -14719334.17949  21638263.3324   21638264.9494
 98  1 28  3 26 30.0000000  0  8  4  9  8 10  5  6 24 30
  23684812.737    -9210335.55249  -4341745.48849  23684813.4854   23684814.5154
  24062753.684    -9009606.80149  -3212871.26949  24062753.6824   24062757.1034
  22474206.555   -15579940.62349 -11837618.42349  22474206.4514   22474209.3104
  21876389.584   -17875380.80449 -13911273.81049  21876389.0214   21876391.9184
  20311196.611   -28334012.25849 -22067569.08049  20311196.1614   20311198.8134
  23648367.011   -10936319.24949  -7703948.12649  23648367.1764   23648369.5924
  20749725.806   -24838937.43549 -19336415.78849  20749725.5844   20749728.7304
  21625832.605   -20579073.69049 -14770235.28349  21625832.7084   21625834.7854
 98  1 28  3 27  0.0000000  0  8  4  9  8 10  5  6 24 30
  23704293.640    -9107962.68949  -4261974.41849  23704293.2794   23704295.6534
  24081233.210    -8912496.71649  -3137201.09549  24081232.8594   24081236.0254
  22487308.894   -15511087.33049 -11783966.52149  22487308.5504   22487311.6214
  21865322.888   -17933536.52749 -13956589.94549  21865322.2724   21865325.4784
  20313207.417   -28323445.33949 -22059335.12649  20313206.9594   20313209.6084
  23636496.040   -10998701.82849  -7752557.91149  23636495.5454   23636498.1734
  20759836.858   -24785803.63249 -19295012.82649  20759836.5344   20759839.7824
  21613497.528   -20643895.00949 -14820745.40149  21613497.5674   21613499.8674
 98  1 28  3 27 30.0000000  0  8  4  9  8 10  5  6 24 30
  23723814.587    -9005379.52149  -4182039.48449  23723814.5054   23723816.5894
  24099741.419    -8815235.78749  -3061413.37849  24099741.3264   24099744.9314
  22500515.677   -15441684.75049 -11729886.60449  22500515.1574   22500518.8174
  21854366.579   -17991112.27449 -14001454.14549  21854365.4884   21854369.1304
  20315341.350   -28312231.48949 -22050597.06549  20315340.8224   20315343.4194
  23624651.999   -11060942.49949  -7801057.11249  23624651.2844   23624654.7124
  20770037.381   -24732199.66149 -19253243.49449  20770037.1234   20770040.1854
  21601257.657   -20708215.88049 -14870865.55249  21601257.6414   21601259.5464
 98  1 28  3 28  0.0000000  0  8  4  9  8 10  5  6 24 30
  23743372.655    -8902600.56749  -4101952.00049  23743373.6544   23743373.8534
  24118277.721    -8717827.18249  -2985510.58149  24118277.1644   24118281.4114
  22513827.805   -15371729.17149 -11675375.78449  22513827.8914   22513830.7014
  21843523.427   -18048093.15749 -14045854.81849  21843522.4744   21843525.9834
  20317599.611   -28300364.11549 -22041349.77149  20317599.0694   20317601.8434
  23612835.894   -11123036.40549  -7849441.96049  23612835.5044   23612839.1914
  20780328.286   -24678120.50649 -19211103.89549  20780328.1584   20780331.2144
  21589113.601   -20772033.08949 -14920593.24549  21589114.0674   21589116.0994
 98  1 28  3 28 30.0000000  0  8  4  9  8 10  5  6 24 30
  23762968.446    -8799623.90449  -4021710.44549  23762969.4994   23762970.9404
  24136840.921    -8620276.84149  -2909497.34649  24136840.4934   24136844.4044
  22527249.113   -15301200.05049 -11620418.04149  22527248.4904   22527251.9614
  21832797.988   -18104455.61649 -14089773.60249  21832797.1894   21832800.4974
  20319985.644   -28287825.36149 -22031579.31949  20319985.1774   20319987.7274
  23601052.224   -11184960.15949  -7897694.19849  23601052.4014   23601055.3054
  20790713.038   -24623548.28549 -19168580.08349  20790712.8794   20790715.8914
  21577067.959   -20835333.10049 -14969917.92449  21577068.2264   21577070.1474
 98  1 28  3 29  0.0000000  0  8  4  9  8 10  5  6 24 30
  23782596.886    -8696476.28849  -3941335.67849  23782597.3604   23782599.0964
  24155428.566    -8522598.26449  -2833384.19249  24155429.0344   24155431.1824
  22540775.516   -15230118.49249 -11565029.83349  22540775.2764   22540778.6834
  21822187.149   -18160215.90149 -14133223.16149  21822186.4254   21822189.6804
  20322500.720   -28274608.53649 -22021280.50449  20322500.3764   20322502.8924
  23589297.389   -11246732.09649  -7945828.15449  23589297.5094   23589299.9254
  20801188.090   -24568501.45349 -19125686.44649  20801187.9574   20801191.0074
  21565119.554   -20898122.32649 -15018844.59249  21565119.7284   21565121.6664
 98  1 28  3 29 30.0000000  0  8  4  9  8 10  5  6 24 30
  23802258.558    -8593153.58349  -3860824.49349  23802257.9304   23802260.6384
  24174046.100    -8424762.29849  -2757148.38249  24174046.1164   24174048.9674
  22554407.336   -15158483.13149 -11509210.08849  22554406.7194   22554410.1064
  21811690.830   -18215374.46249 -14176203.83749  21811690.0314   21811693.2574
  20325146.670   -28260704.16549 -22010445.93549  20325146.1044   20325148.7424
  23577575.689   -11308329.90749  -7993826.42149  23577575.5944   23577578.2634
  20811755.675   -24512968.62149 -19082414.10749  20811755.4024   20811758.4914
  21553272.141   -20960380.94549 -15067357.79949  21553272.3204   21553274.4404
 98  1 28  3 30  0.0000000  0  8  4  9  8 10  5  6 24 30
  23821952.403    -8489661.46849  -3780181.29049  23821952.9754   23821954.3404
  24192693.798    -8326768.19249  -2680789.37049  24192694.3164   24192696.2094
  22568141.555   -15086309.17149 -11452970.65949  22568141.4114   22568143.6424
  21801306.135   -18269946.20149 -14218727.25949  21801305.4904   21801308.3564
  20327923.014   -28246114.26349 -21999077.18849  20327922.5724   20327925.1214
  23565887.418   -11369752.15349  -8041687.88249  23565886.9864   23565890.4744
  20822411.204   -24456973.23149 -19038781.33449  20822410.8654   20822413.9784
  21541525.511   -21022109.76049 -15115458.17249  21541525.7624   21541527.7764
 98  1 28  3 30 30.0000000  0  8  4  9  8 10  5  6 24 30
  23841677.291    -8386007.25549  -3699411.76549  23841677.5504   23841679.0554
  24211372.634    -8228610.21349  -2604302.65549  24211371.8064   24211375.9854
  22581972.051   -15013629.45749 -11396337.12949  22581971.7064   22581974.4724
  21791030.152   -18323946.91249 -14260805.71849  21791029.3844   21791032.4164
  20330826.202   -28230858.12849 -21987189.29749  20330825.7624   20330828.2424
  23554231.612   -11431003.51649  -8089416.19249  23554231.4154   23554234.0124
  20833150.202   -24400539.40049 -18994806.91449  20833150.0604   20833153.0824
  21529879.309   -21083310.94549 -15163147.40449  21529879.4854   21529881.7654
 98  1 28  3 31  0.0000000  0  8  4  9  8 10  5  6 24 30
  23861437.937    -8282164.13549  -3618495.06849  23861438.0704   23861439.6094
  24230088.960    -8130254.95849  -2527662.22849  24230088.9284   24230092.7454
  22595898.903   -14940443.40949 -11339309.06549  22595899.5544   22595902.0954
  21780866.830   -18377355.46449 -14302422.76349  21780866.0604   21780869.2404
  20333856.995   -28214931.18549 -21974778.70149  20333856.4844   20333859.0474
  23542611.479   -11492067.41749  -8136998.42349  23542611.6094   23542614.5524
  20843973.514   -24343662.55649 -18950487.29949  20843973.3184   20843976.3364
  21518335.548   -21143974.00849 -15210417.32849  21518335.8864   21518337.9734
 98  1 28  3 31 30.0000000  0  8  4  9  8 10  5  6 24 30
  23881232.210    -8178144.59849  -3537440.87649  23881232.2874   23881235.2914
  24248835.415    -8031741.46149  -2450898.49649  24248836.1204   24248838.9364
  22609914.305   -14866791.94349 -11281918.33249  22609913.4734   22609917.3144
  21770810.015   -18430204.21849 -14343603.59749  21770809.4624   21770812.6254
  20337008.791   -28198368.34149 -21961872.59549  20337008.4424   20337010.9294
  23531022.184   -11552969.34049  -8184454.43749  23531021.8434   23531025.4364
  20854874.033   -24286379.91749 -18905851.47349  20854873.7414   20854876.8574
  21506887.510   -21204133.94649 -15257295.19849  21506887.6514   21506889.5984
 98  1 28  3 32  0.0000000  0  8  4  9  8 10  5  6 24 30
  23901062.104    -8073937.39549  -3456240.47049  23901061.6094   23901064.7544
  24267608.584    -7933088.07949  -2374025.76349  24267609.3644   24267611.8794
  22624018.382   -14792674.35549 -11224164.37949  22624018.2584   22624021.4634
  21760862.018   -18482481.42949 -14384339.06949  21760861.0594   21760864.3114
  20340284.905   -28181152.18749 -21948457.41549  20340284.3944   20340287.0414
  23519463.617   -11613710.20749  -8231784.96549  23519463.4344   23519466.6144
  20865853.703   -24228681.40049 -18860891.58849  20865853.3704   20865856.5124
  21495535.897   -21263786.95549 -15303778.06249  21495536.2504   21495537.9744
 98  1 28  3 32 30.0000000  0  8  4  9  8 10  5  6 24 30
  23920925.869    -7969553.17249  -3374902.11049  23920926.7874   23920927.9644
  24286405.736    -7834308.64049  -2297054.78049  24286405.8714   24286408.2124
  22638214.050   -14718075.75649 -11166035.61949  22638213.4314   22638217.5994
  21751026.421   -18534168.04949 -14424614.34349  21751025.5884   21751028.8734
  20343685.049   -28163284.50149 -21934534.55149  20343684.5204   20343687.1324
  23507935.110   -11674292.73949  -8278992.11149  23507934.8254   23507937.3794
  20876916.491   -24170546.05649 -18815591.31949  20876916.3124   20876919.1434
  21484280.658   -21322933.63449 -15349866.38249  21484280.7824   21484282.5574
 98  1 28  3 33  0.0000000  0  8  4  9  8 10  5  6 24 30
  23940815.721    -7865031.01749  -3293456.29749  23940815.7684   23940818.4174
  24305217.278    -7735453.64349  -2220024.93249  24305216.5594   24305219.9884
  22652501.039   -14642997.16149 -11107532.83949  22652500.8804   22652504.2664
  21741299.342   -18585284.05949 -14464444.98949  21741298.3724   21741301.7124
  20347205.847   -28144782.59049 -21920117.47949  20347205.3134   20347207.9894
  23496431.463   -11734744.53349  -8326097.37849  23496431.6394   23496434.0854
  20888059.957   -24111986.66849 -18769960.62449  20888059.7474   20888062.8064
  21473118.435   -21381591.58949 -15395573.87549  21473118.3694   21473120.7154
 98  1 28  3 33 30.0000000  0  8  4  9  8 10  5  6 24 30
  23960737.106    -7760343.96149  -3211881.95349  23960737.5774   23960739.1474
  24324049.050    -7636492.84549  -2142912.63549  24324049.3414   24324051.2864
  22666889.680   -14567384.70549 -11048614.06349  22666889.8694   22666892.4024
  21731689.779   -18635782.49749 -14503794.40749  21731689.0654   21731691.9794
  20350859.588   -28125582.00649 -21905155.99449  20350859.1234   20350861.8164
  23484960.192   -11795026.65049  -8373070.43649  23484961.0104   23484962.7334
  20899295.611   -24052942.75549 -18723952.37949  20899295.4894   20899298.2994
  21462059.163   -21439708.50149 -15440859.78249  21462059.5954   21462061.6254
 98  1 28  3 34  0.0000000  0  8  4  9  8 10  5  6 24 30
  23980684.580    -7655518.78449  -3130200.01649  23980685.3174   23980686.4444
  24342895.264    -7537455.08349  -2065740.37749  24342895.2244   24342898.1194
  22681377.648   -14491250.32949 -10989288.59449  22681377.2494   22681380.4434
  21722193.085   -18685687.71649 -14542681.58049  21722192.2094   21722195.2944
  20354641.760   -28105706.64649 -21889668.71249  20354641.2754   20354643.8904
  23473517.915   -11855156.16549  -8419924.56849  23473517.8424   23473521.1714
  20910621.657   -23993424.26249 -18677574.33449  20910621.5584   20910624.3124
  21451100.088   -21497298.82349 -15485735.35749  21451100.1424   21451102.0274
 98  1 28  3 34 30.0000000  0  8  4  9  8 10  5  6 24 30
  24000660.929    -7550542.80449  -3048400.54049  24000659.9494   24000663.1054
  24361759.426    -7438323.61049  -1988495.08349  24361759.3354   24361762.3184
  22695967.227   -14414581.71449 -10929546.83649  22695966.7994   22695969.5554
  21712809.967   -18734996.43249 -14581103.94649  21712809.0354   21712812.1564
  20358552.140   -28085157.54849 -21873656.43349  20358551.7084   20358554.2634
  23462105.345   -11915129.35149  -8466656.90549  23462105.4324   23462108.7424
  20922037.719   -23933432.42049 -18630827.44249  20922037.5654   20922040.4774
  21440244.305   -21554346.07749 -15530187.76149  21440244.5984   21440246.5154
 98  1 28  3 35  0.0000000  0  8  4  9  8 10  5  6 24 30
  24020665.476    -7445418.75449  -2966485.70649  24020664.7404   24020667.2534
  24380638.057    -7339115.87649  -1911190.37349  24380637.5064   24380640.6034
  22710647.877   -14337434.55349 -10869432.17849  22710647.5464   22710650.3094
  21703534.023   -18783741.84549 -14619087.37449  21703533.3674   21703536.4134
  20362587.810   -28063949.75249 -21857130.88549  20362587.3344   20362589.8214
  23450716.814   -11974976.66549  -8513291.15949  23450716.6774   23450719.5864
  20933536.482   -23873005.91549 -18583741.85449  20933536.0454   20933539.0914
  21429486.545   -21610878.54349 -15574239.03649  21429486.6954   21429488.7044
 98  1 28  3 35 30.0000000  0  8  4  9  8 10  5  6 24 30
  24040704.794    -7340111.42249  -2884428.03349  24040704.7864   24040706.8834
  24399537.351    -7239799.31949  -1833800.86749  24399536.7224   24399539.8124
  22725419.983   -14259806.60849 -10808942.88449  22725419.3404   22725422.3494
  21694369.848   -18831899.96449 -14656613.16549  21694369.1914   21694372.5574
  20366754.394   -28042054.20749 -21840069.42649  20366753.9104   20366756.5544
  23439355.488   -12034680.87049  -8559813.88449  23439354.6624   23439358.4784
  20945117.851   -23812145.23649 -18536317.94449  20945117.6274   20945120.6984
  21418830.439   -21666876.79949 -15617874.03649  21418830.5724   21418832.2534
 98  1 28  3 36  0.0000000  0  8  4  9  8 10  5  6 24 30
  24060780.221    -7234614.36649  -2802222.54449  24060779.9994   24060782.0864
  24418458.192    -7140369.64049  -1756323.20749  24418457.9734   24418460.9184
  22740282.903   -14181701.52949 -10748081.79749  22740282.5104   22740285.8654
  21685318.731   -18879463.77949 -14693675.86649  21685317.8274   21685320.9874
  20371047.943   -28019491.44249 -21822488.05849  20371047.4174   20371050.0504
  23428020.593   -12094245.65349  -8606227.97549  23428020.5894   23428023.8674
  20956777.508   -23750873.22249 -18488573.51649  20956777.3354   20956780.3534
  21408275.570   -21722343.11349 -15661094.54349  21408275.6294   21408277.6934
 98  1 28  3 36 30.0000000  0  8  4  9  8 10  5  6 24 30
  24080884.089    -7128967.09149  -2719900.00249  24080883.4214   24080886.2744
  24437396.160    -7040849.65449  -1678775.18549  24437395.7734   24437399.1554
  22755230.862   -14103149.11649 -10686872.14249  22755230.1624   22755233.6314
  21676381.897   -18926427.06149 -14730270.61849  21676380.8044   21676384.0654
  20375463.033   -27996290.06949 -21804409.07349  20375462.4314   20375465.0764
  23416706.130   -12153703.90949  -8652559.05949  23416705.7624   23416708.6324
  20968507.686   -23689230.76249 -18440540.42649  20968507.4344   20968510.4304
  21397817.970   -21777297.93349 -15703916.47949  21397818.0294   21397820.1334
 98  1 28  3 37  0.0000000  0  8  4  9  8 10  5  6 24 30
  24101022.093    -7023141.60049  -2637438.57149  24101021.6504   24101023.9744
  24456356.219    -6941213.89549  -1601136.94849  24456356.0874   24456358.6824
  22770271.745   -14024108.69849 -10625282.22549  22770271.4394   22770274.5024
  21667569.425   -18972736.80249 -14766356.12349  21667568.7644   21667571.4924
  20380006.932   -27972411.81949 -21785802.65249  20380006.3854   20380009.0464
  23405422.413   -12213000.23049  -8698763.97549  23405422.7134   23405424.3894
  20980312.977   -23627193.42249 -18392199.64449  20980312.8424   20980315.9014
  21387468.257   -21831686.20949 -15746296.95349  21387468.5944   21387470.4334
 98  1 28  3 37 30.0000000  0  8  4  9  8 10  5  6 24 30
  24121182.550    -6917197.11849  -2554884.43349  24121182.2734   24121186.3004
  24475328.192    -6841515.72449  -1523450.08549  24475327.3734   24475331.0354
  22785400.524   -13944606.10749 -10563332.16049  22785400.3464   22785403.2604
  21658873.064   -19018436.19649 -14801966.03049  21658872.1754   21658875.4254
  20384669.425   -27947910.12449 -21766710.42949  20384668.8174   20384671.4954
  23394162.406   -12272171.78049  -8744871.65549  23394162.4784   23394165.3064
  20992184.860   -23564806.12649 -18343586.16549  20992184.7434   20992187.7994
  21377218.274   -21885550.33449 -15788268.99949  21377218.5404   21377220.5654
 98  1 28  3 38  0.0000000  0  8  4  9  8 10  5  6 24 30
  24141370.182    -6811109.49849  -2472218.77849  24141371.1674   24141372.2594
  24494317.068    -6741728.63449  -1445693.93149  24494316.8574   24494320.0984
  22800623.104   -13864611.03049 -10500998.35049  22800622.6674   22800625.8754
  21650299.070   -19063492.83149 -14837075.08149  21650297.8714   21650301.2944
  20389454.712   -27922763.12649 -21747115.36949  20389454.1654   20389456.7704
  23382933.201   -12331181.56749  -8790853.28149  23382932.8524   23382935.7004
  21004133.236   -23502017.02749 -18294659.59149  21004132.7914   21004136.0384
  21367075.267   -21938852.13549 -15829802.86249  21367075.1824   21367077.3174
 98  1 28  3 38 30.0000000  0  8  4  9  8 10  5  6 24 30
  24161583.231    -6704889.37149  -2389449.85149  24161583.3244   24161585.8854
  24513320.294    -6641865.88349  -1367878.82649  24513319.8624   24513323.6524
  22815935.489   -13784143.81449 -10438296.63349  22815935.1974   22815938.5394
  21641845.009   -19107918.98849 -14871692.85249  21641843.9334   21641847.5164
  20394364.709   -27896960.77949 -21727009.65249  20394364.1064   20394366.7274
  23371737.560   -12390015.20549  -8836697.65649  23371737.1634   23371740.4034
  21016158.495   -23438823.93749 -18245418.22349  21016158.2764   21016161.3584
  21357040.146   -21991586.79549 -15870894.80749  21357040.3794   21357042.2604
 98  1 28  3 39  0.0000000  0  8  4  9  8 10  5  6 24 30
  24181822.181    -6598532.34249  -2306574.23749  24181822.7624   24181824.6494
  24532338.004    -6541927.28349  -1290004.61449  24532338.4264   24532341.4214
  22831331.960   -13703234.90549 -10375250.75449  22831331.6084   22831334.9474
  21633503.823   -19151752.24949 -14905848.63849  21633503.4074   21633506.3094
  20399399.813   -27870501.16149 -21706391.78149  20399399.3904   20399402.0694
  23360575.491   -12448672.46849  -8882404.59949  23360575.3204   23360578.2524
  21028259.701   -23375231.71249 -18195865.84849  21028259.6994   21028262.7914
  21347109.029   -22043774.75549 -15911560.75249  21347109.3344   21347111.5314
 98  1 28  3 39 30.0000000  0  8  4  9  8 10  5  6 24 30
  24202087.345    -6492037.92749  -2223591.59549  24202087.1444   24202089.5934
  24551375.328    -6441886.07349  -1212050.45149  24551375.1874   24551378.1504
  22846810.310   -13621895.89849 -10311869.72449  22846809.7734   22846813.3054
  21625277.762   -19194980.51249 -14939532.98449  21625277.1924   21625280.2404
  20404564.046   -27843362.98449 -21685245.15049  20404563.6754   20404566.2844
  23349446.548   -12507155.18549  -8927975.52249  23349446.3054   23349449.3124
  21040442.325   -23311211.78449 -18145980.18549  21040442.1254   21040445.1884
  21337281.172   -22095420.50549 -15951804.18849  21337281.4174   21337283.4914
 98  1 28  3 40  0.0000000  0  8  4  9  8 10  5  6 24 30
  24222376.401    -6385417.81549  -2140510.99649  24222376.3484   24222379.2404
  24570431.910    -6341742.95749  -1134016.87549  24570431.4644   24570435.0564
  22862367.782   -13540140.73949 -10248164.42349  22862367.1434   22862370.7014
  21617165.521   -19237610.70749 -14972751.30849  21617164.6884   21617167.6664
  20409854.332   -27815562.56949 -21663582.49549  20409853.9024   20409856.5184
  23338348.244   -12565476.66149  -8973420.80749  23338347.4184   23338351.0814
  21052704.920   -23246771.53849 -18095767.00449  21052704.7464   21052707.6954
  21327559.004   -22146510.89549 -15991614.87749  21327559.0584   21327561.3694
 98  1 28  3 40 30.0000000  0  8  4  9  8 10  5  6 24 30
  24242693.498    -6278651.17349  -2057316.20149  24242693.1934   24242694.7914
  24589506.868    -6241502.59449  -1055907.52249  24589506.2394   24589509.9954
  22878005.619   -13457963.29749 -10184130.06149  22878005.1574   22878008.5214
  21609169.451   -19279630.04449 -15005493.64249  21609168.6844   21609172.0654
  20415273.288   -27787085.80849 -21641392.81749  20415272.8914   20415275.4414
  23327280.258   -12623638.89749  -9018742.00049  23327279.5004   23327282.9484
  21065046.187   -23181917.64849 -18045231.50749  21065046.0324   21065049.0844
  21317944.605   -22197034.99449 -16030984.30449  21317944.7144   21317946.8964
 98  1 28  3 41  0.0000000  0  8  4  9  8 10  5  6 24 30
  24263036.948    -6171745.43249  -1974013.03349  24263036.8994   24263038.9014
  24608598.041    -6141177.53149   -977732.16449  24608599.3314   24608601.0804
  22893724.966   -13375357.92249 -10119762.24749  22893725.3444   22893727.3844
  21601290.396   -19321034.64449 -15037756.95449  21601289.4194   21601292.6634
  20420818.729   -27757944.28049 -21618685.13949  20420818.2424   20420820.8634
  23316237.191   -12681670.15649  -9063961.13849  23316237.0054   23316239.9214
  21077466.442   -23116648.58849 -17994372.50049  21077466.3144   21077469.4494
  21308437.253   -22246996.52349 -16069915.36349  21308437.5164   21308439.4724
 98  1 28  3 41 30.0000000  0  8  4  9  8 10  5  6 24 30
  24283406.195    -6064704.14549  -1890604.24949  24283406.1184   24283408.8414
  24627702.876    -6040780.99549   -899501.12549  24627701.9574   24627706.6484
  22909532.168   -13292290.65349 -10055034.51549  22909531.3314   22909534.9214
  21593533.123   -19361799.25849 -15069521.58449  21593532.4394   21593535.7054
  20426489.545   -27728144.01049 -21595464.15949  20426489.0864   20426491.6374
  23305218.631   -12739572.69649  -9109079.97849  23305218.3134   23305220.9714
  21089967.908   -23050952.99049 -17943181.12849  21089967.5994   21089970.5524
  21299040.833   -22296374.92649 -16108392.03949  21299041.0314   21299043.0104
 98  1 28  3 42  0.0000000  0  8  4  9  8 10  5  6 24 30
  24303798.808    -5957540.32349  -1807099.96549  24303799.5604   24303801.6164
  24646812.626    -5940358.44049   -821249.80949  24646812.3174   24646815.4744
  22925426.113   -13208767.43549  -9989951.49949  22925424.8894   22925427.8364
  21585893.891   -19401943.66149 -15100802.92049  21585893.1574   21585896.2104
  20432278.157   -27697724.58449 -21571760.71049  20432277.5094   20432280.2634
  23294222.100   -12797359.72649  -9154108.80349  23294221.8964   23294224.7824
  21102544.503   -22984862.49949 -17891682.04149  21102544.1634   21102547.2754
  21289751.599   -22345190.08049 -16146429.81449  21289751.9014   21289754.1174
 98  1 28  3 42 30.0000000  0  8  4  9  8 10  5  6 24 30
  24324214.812    -5850254.04849  -1723500.28049  24324214.0174   24324216.8774
  24665928.325    -5839904.17849   -742973.77449  24665927.8334   24665931.6564
  22941405.131   -13124797.27649  -9924520.22149  22941405.3564   22941407.1584
  21578375.302   -19441454.03449 -15131590.21449  21578374.5424   21578377.6874
  20438188.906   -27666663.37249 -21547557.17749  20438188.4274   20438190.8464
  23283252.433   -12855005.88249  -9199027.87449  23283252.6404   23283255.1134
  21115196.063   -22918378.25149 -17839876.13549  21115195.7644   21115198.8394
  21280567.906   -22393450.70949 -16184035.50249  21280568.2094   21280569.8484
 98  1 28  3 43  0.0000000  0  8  4  9  8 10  5  6 24 30
  24344647.237    -5742881.12949  -1639833.06649  24344648.6504   24344650.0794
  24685053.125    -5739402.79749   -664661.04449  24685052.7044   24685055.9854
  22957467.393   -13040389.64649  -9858748.05549  22957467.1264   22957470.0154
  21570975.622   -19480339.62249 -15161890.66549  21570974.8854   21570978.0634
  20444219.343   -27634973.10649 -21522863.47549  20444218.8124   20444221.5284
  23272312.373   -12912496.09149  -9243825.42949  23272311.8944   23272315.0174
  21127920.779   -22851509.29849 -17787770.46149  21127920.6354   21127923.6764
  21271487.284   -22441169.66849 -16221219.10749  21271487.3764   21271489.4174
